[[{"header":{"parameterUnit":"m.s-1","parameterCategory":1,"la1":30.6,"la2":29.2853,"lo1":-89.7004,"lo2":-87.6739,"dy":0.0162,"dx":0.0183,"nx":112,"ny":82,"refTime":"2026-03-23T12:00:00:Z","depth":0,"parameterNumber":2,"parameterNumberName":"U-component_of_WINDS"},"data":[0.0,0.0,0.0,0.0,0.0,0.0,0.0,0.0,0.0,0.0,0.0,0.0,0.0,0.0,0.0,0.0,0.0,0.0,0.0,0.0,0.0,0.0,0.0,0.0,0.0,0.0,0.0,0.0,0.0,0.0,0.0,0.0,0.0,0.0,0.0,0.0,0.0,0.0,0.0,0.0,0.0,0.0,0.0,0.0,0.0,0.0,0.0,0.0,0.0,0.0,0.0,0.0,0.0,0.0,0.0,0.0,0.0,0.0,0.0,0.0,0.0,0.0,0.0,0.0,0.0,0.0,0.0,0.0,0.0,0.0,0.0,0.0,0.0,0.0,0.0,0.0,0.0,0.0,0.0,0.0,0.0,0.0,0.0,0.0,0.0,0.0,0.0,0.0,0.0,0.0,-1.9964,-2.1984,-2.3631,-2.4529,-2.4407,-2.2921,-2.1192,-1.9329,0.0,0.0,0.0,0.0,0.0,0.0,0.0,0.0,0.0,0.0,0.0,0.0,0.0,0.0,0.0,0.0,0.0,0.0,0.0,0.0,0.0,0.0,0.0,0.0,0.0,0.0,0.0,0.0,0.0,0.0,0.0,0.0,0.0,0.0,0.0,0.0,0.0,0.0,0.0,0.0,0.0,0.0,0.0,0.0,0.0,0.0,0.0,0.0,0.0,0.0,0.0,0.0,0.0,0.0,0.0,0.0,0.0,0.0,0.0,0.0,0.0,0.0,0.0,0.0,0.0,0.0,0.0,0.0,0.0,0.0,0.0,0.0,0.0,0.0,0.0,0.0,0.0,0.0,0.0,0.0,0.0,0.0,0.0,0.0,0.0,0.0,0.0,0.0,0.0,0.0,0.0,0.0,0.0,0.0,0.0,0.0,0.0,0.0,0.0,0.0,0.0,0.0,0.0,0.0,-2.043,-2.3653,-2.4845,-2.5139,-2.4464,-2.3475,-2.1831,-1.9359,0.0,0.0,0.0,0.0,0.0,0.0,0.0,0.0,0.0,0.0,0.0,0.0,0.0,0.0,0.0,0.0,0.0,0.0,0.0,0.0,0.0,0.0,0.0,0.0,0.0,0.0,0.0,0.0,0.0,0.0,0.0,0.0,0.0,0.0,0.0,0.0,0.0,0.0,0.0,0.0,0.0,0.0,0.0,0.0,0.0,0.0,0.0,0.0,0.0,0.0,0.0,0.0,0.0,0.0,0.0,0.0,0.0,0.0,0.0,0.0,0.0,0.0,0.0,0.0,0.0,0.0,0.0,0.0,0.0,0.0,0.0,0.0,0.0,0.0,0.0,0.0,0.0,0.0,0.0,0.0,0.0,0.0,0.0,0.0,0.0,0.0,0.0,0.0,0.0,0.0,0.0,0.0,0.0,0.0,0.0,0.0,0.0,0.0,0.0,0.0,0.0,0.0,0.0,-1.975,-2.2261,-2.4775,-2.5375,-2.5453,-2.5074,-2.3857,-2.2198,-2.0037,-1.7343,0.0,0.0,0.0,0.0,0.0,0.0,0.0,0.0,0.0,0.0,0.0,0.0,0.0,0.0,0.0,0.0,0.0,0.0,0.0,0.0,0.0,0.0,0.0,0.0,0.0,0.0,0.0,0.0,0.0,0.0,0.0,0.0,0.0,0.0,0.0,0.0,0.0,0.0,0.0,0.0,0.0,0.0,0.0,0.0,0.0,0.0,0.0,0.0,0.0,0.0,0.0,0.0,0.0,0.0,0.0,0.0,0.0,0.0,0.0,0.0,0.0,0.0,0.0,0.0,0.0,0.0,0.0,0.0,0.0,0.0,0.0,0.0,0.0,0.0,0.0,0.0,0.0,0.0,0.0,0.0,0.0,0.0,0.0,0.0,0.0,0.0,0.0,0.0,0.0,0.0,0.0,0.0,0.0,0.0,0.0,0.0,0.0,0.0,0.0,0.0,0.0,0.0,-2.2015,-2.3741,-2.5427,-2.5608,-2.5527,-2.5306,-2.3764,-2.2054,-2.0305,-1.6934,0.0,0.0,0.0,0.0,0.0,0.0,0.0,0.0,0.0,0.0,0.0,0.0,0.0,0.0,0.0,0.0,0.0,0.0,0.0,0.0,0.0,0.0,0.0,0.0,0.0,0.0,0.0,0.0,0.0,0.0,0.0,0.0,0.0,0.0,0.0,0.0,0.0,0.0,0.0,0.0,0.0,0.0,0.0,0.0,0.0,0.0,0.0,0.0,0.0,0.0,0.0,0.0,0.0,0.0,0.0,0.0,0.0,0.0,0.0,0.0,0.0,0.0,0.0,0.0,0.0,0.0,0.0,0.0,0.0,0.0,0.0,0.0,0.0,0.0,0.0,0.0,0.0,0.0,0.0,0.0,0.0,0.0,0.0,0.0,0.0,0.0,0.0,0.0,0.0,0.0,0.0,0.0,0.0,0.0,0.0,0.0,0.0,0.0,0.0,0.0,0.0,0.0,-2.2017,-2.3739,-2.5418,-2.5604,-2.5263,-2.445,-2.2853,-2.1147,-1.9393,-1.6083,0.0,0.0,0.0,0.0,0.0,0.0,0.0,0.0,0.0,0.0,0.0,0.0,0.0,0.0,0.0,0.0,0.0,0.0,0.0,0.0,0.0,0.0,0.0,0.0,0.0,0.0,0.0,0.0,0.0,0.0,0.0,0.0,0.0,0.0,0.0,0.0,0.0,0.0,0.0,0.0,0.0,0.0,0.0,0.0,0.0,0.0,0.0,0.0,0.0,0.0,0.0,0.0,0.0,0.0,0.0,0.0,0.0,0.0,0.0,0.0,0.0,0.0,0.0,0.0,0.0,0.0,0.0,0.0,0.0,0.0,0.0,0.0,0.0,0.0,0.0,0.0,0.0,0.0,0.0,0.0,0.0,0.0,0.0,0.0,0.0,0.0,0.0,0.0,0.0,0.0,0.0,0.0,0.0,0.0,0.0,0.0,0.0,0.0,0.0,0.0,0.0,0.0,-2.2021,-2.3747,-2.5427,-2.5603,-2.5267,-2.4427,-2.3293,-2.1623,-1.9336,0.0,0.0,0.0,0.0,0.0,0.0,0.0,0.0,0.0,0.0,0.0,0.0,0.0,0.0,0.0,0.0,0.0,0.0,0.0,0.0,0.0,0.0,0.0,0.0,0.0,0.0,0.0,0.0,0.0,0.0,0.0,0.0,0.0,0.0,0.0,0.0,0.0,0.0,0.0,0.0,0.0,0.0,0.0,0.0,0.0,0.0,0.0,0.0,0.0,0.0,0.0,0.0,0.0,0.0,0.0,0.0,0.0,0.0,0.0,0.0,0.0,0.0,0.0,0.0,0.0,0.0,0.0,0.0,0.0,0.0,0.0,0.0,0.0,0.0,0.0,0.0,0.0,0.0,0.0,0.0,0.0,0.0,0.0,0.0,0.0,0.0,0.0,0.0,0.0,0.0,0.0,0.0,0.0,0.0,0.0,0.0,0.0,0.0,0.0,0.0,0.0,0.0,-1.9714,-2.1854,-2.3641,-2.5072,-2.5451,-2.5157,-2.4076,-2.3191,-2.1576,-1.8974,0.0,0.0,0.0,0.0,0.0,0.0,0.0,0.0,0.0,0.0,0.0,0.0,0.0,0.0,0.0,0.0,0.0,0.0,0.0,0.0,0.0,0.0,0.0,0.0,0.0,0.0,0.0,0.0,0.0,0.0,0.0,0.0,0.0,0.0,0.0,0.0,0.0,0.0,0.0,0.0,0.0,0.0,0.0,0.0,0.0,0.0,0.0,0.0,0.0,0.0,0.0,0.0,0.0,0.0,0.0,0.0,0.0,0.0,0.0,0.0,0.0,0.0,0.0,0.0,0.0,0.0,0.0,0.0,0.0,0.0,0.0,0.0,0.0,0.0,0.0,0.0,0.0,0.0,0.0,0.0,0.0,0.0,0.0,0.0,0.0,0.0,0.0,0.0,0.0,0.0,0.0,0.0,0.0,0.0,0.0,0.0,0.0,0.0,0.0,0.0,0.0,0.0,-1.8964,-2.1513,-2.3437,-2.431,-2.512,-2.4923,-2.3238,-2.2308,-2.0728,0.0,0.0,0.0,0.0,0.0,0.0,0.0,0.0,0.0,0.0,0.0,0.0,0.0,0.0,0.0,0.0,0.0,0.0,0.0,0.0,0.0,0.0,0.0,0.0,0.0,0.0,0.0,0.0,0.0,0.0,0.0,0.0,0.0,0.0,0.0,0.0,0.0,0.0,0.0,0.0,0.0,0.0,0.0,0.0,0.0,0.0,0.0,0.0,0.0,0.0,0.0,0.0,0.0,0.0,0.0,0.0,0.0,0.0,0.0,0.0,0.0,0.0,0.0,0.0,0.0,0.0,0.0,0.0,0.0,0.0,0.0,0.0,0.0,0.0,0.0,0.0,0.0,0.0,0.0,0.0,0.0,0.0,0.0,0.0,0.0,0.0,0.0,0.0,0.0,0.0,0.0,0.0,0.0,0.0,0.0,0.0,0.0,0.0,0.0,0.0,0.0,0.0,0.0,-1.8964,-2.1519,-2.3429,-2.4319,-2.5156,-2.4961,-2.3247,-2.2862,-2.1379,-1.8209,0.0,0.0,0.0,0.0,0.0,0.0,0.0,0.0,0.0,0.0,0.0,0.0,0.0,0.0,0.0,0.0,0.0,0.0,0.0,0.0,0.0,0.0,0.0,0.0,0.0,0.0,0.0,0.0,0.0,0.0,0.0,0.0,0.0,0.0,0.0,0.0,0.0,0.0,0.0,0.0,0.0,0.0,0.0,0.0,0.0,0.0,0.0,0.0,0.0,0.0,0.0,0.0,0.0,0.0,0.0,0.0,0.0,0.0,0.0,0.0,0.0,0.0,0.0,0.0,0.0,0.0,0.0,0.0,0.0,0.0,0.0,0.0,0.0,0.0,0.0,0.0,0.0,0.0,0.0,0.0,0.0,0.0,0.0,0.0,0.0,0.0,0.0,0.0,0.0,0.0,0.0,0.0,0.0,0.0,0.0,0.0,0.0,0.0,0.0,0.0,0.0,0.0,-1.8481,-2.1311,-2.33,-2.3823,-2.4975,-2.4994,-2.3258,-2.3105,-2.1639,-1.8214,0.0,0.0,0.0,0.0,0.0,0.0,0.0,0.0,0.0,0.0,0.0,0.0,0.0,0.0,0.0,0.0,0.0,0.0,0.0,0.0,0.0,0.0,0.0,0.0,0.0,0.0,0.0,0.0,0.0,0.0,0.0,0.0,0.0,0.0,0.0,0.0,0.0,0.0,0.0,0.0,0.0,0.0,0.0,0.0,0.0,0.0,0.0,0.0,0.0,0.0,0.0,0.0,0.0,0.0,0.0,0.0,0.0,0.0,0.0,0.0,0.0,0.0,0.0,0.0,0.0,0.0,0.0,0.0,0.0,0.0,0.0,0.0,0.0,0.0,0.0,0.0,0.0,0.0,0.0,0.0,0.0,0.0,0.0,0.0,0.0,0.0,0.0,0.0,0.0,0.0,0.0,0.0,0.0,0.0,0.0,0.0,0.0,0.0,0.0,0.0,0.0,0.0,-1.7783,-2.0984,-2.3091,-2.3091,-2.4653,-2.4985,-2.3247,-2.3091,-2.1644,-1.822,0.0,0.0,0.0,0.0,0.0,0.0,0.0,0.0,0.0,0.0,0.0,0.0,0.0,0.0,0.0,0.0,0.0,0.0,0.0,0.0,0.0,0.0,0.0,0.0,0.0,0.0,0.0,0.0,0.0,0.0,0.0,0.0,0.0,0.0,0.0,0.0,0.0,0.0,0.0,0.0,0.0,0.0,0.0,0.0,0.0,0.0,0.0,0.0,0.0,0.0,0.0,0.0,0.0,0.0,0.0,0.0,0.0,0.0,0.0,0.0,-2.0858,0.0,0.0,0.0,0.0,0.0,0.0,0.0,0.0,0.0,0.0,0.0,0.0,0.0,0.0,0.0,0.0,0.0,0.0,0.0,0.0,0.0,0.0,0.0,0.0,0.0,0.0,0.0,0.0,0.0,0.0,0.0,0.0,0.0,0.0,0.0,0.0,0.0,0.0,0.0,0.0,0.0,-1.7783,-2.0984,-2.3091,-2.3091,-2.4653,-2.4985,-2.3247,-2.3091,-2.1644,-1.822,-1.7008,0.0,0.0,0.0,0.0,0.0,0.0,0.0,0.0,0.0,0.0,0.0,0.0,0.0,0.0,0.0,0.0,0.0,0.0,0.0,0.0,0.0,0.0,0.0,0.0,0.0,0.0,0.0,0.0,0.0,0.0,0.0,0.0,0.0,0.0,0.0,0.0,0.0,0.0,0.0,0.0,0.0,0.0,0.0,0.0,0.0,0.0,0.0,0.0,0.0,0.0,0.0,0.0,0.0,0.0,0.0,0.0,0.0,0.0,0.0,0.0,-2.2622,0.0,0.0,0.0,0.0,0.0,0.0,0.0,0.0,0.0,0.0,0.0,0.0,0.0,0.0,0.0,0.0,0.0,0.0,0.0,0.0,0.0,0.0,0.0,0.0,0.0,0.0,0.0,0.0,0.0,0.0,0.0,0.0,0.0,0.0,0.0,0.0,0.0,0.0,0.0,0.0,-1.8348,-2.1237,-2.3267,-2.3676,-2.4907,-2.4985,-2.3247,-2.3091,-2.1821,-1.8809,-1.7401,0.0,0.0,0.0,0.0,0.0,0.0,0.0,0.0,0.0,0.0,0.0,0.0,0.0,0.0,0.0,0.0,0.0,0.0,0.0,0.0,0.0,0.0,0.0,0.0,0.0,0.0,0.0,0.0,0.0,0.0,0.0,0.0,0.0,0.0,0.0,0.0,0.0,0.0,0.0,0.0,0.0,0.0,0.0,0.0,0.0,0.0,0.0,0.0,0.0,0.0,0.0,0.0,0.0,-2.823,-2.9071,-2.9989,-2.9989,-3.0376,-3.0889,-2.8122,-2.6578,-2.5975,-2.502,0.0,0.0,0.0,0.0,0.0,0.0,0.0,0.0,0.0,0.0,0.0,0.0,0.0,0.0,0.0,0.0,0.0,0.0,0.0,0.0,0.0,0.0,0.0,0.0,-2.3767,-2.3091,0.0,0.0,0.0,0.0,0.0,0.0,0.0,0.0,0.0,0.0,0.0,0.0,-1.9188,-2.1628,-2.3424,-2.4319,-2.5179,-2.4985,-2.3247,-2.3091,-2.2017,-1.9456,-1.7951,-1.6698,0.0,0.0,0.0,0.0,0.0,0.0,0.0,0.0,0.0,0.0,0.0,0.0,0.0,0.0,0.0,0.0,0.0,0.0,0.0,0.0,0.0,0.0,0.0,0.0,0.0,0.0,0.0,0.0,0.0,0.0,0.0,0.0,-1.9838,-1.997,0.0,0.0,0.0,0.0,0.0,0.0,0.0,0.0,0.0,0.0,0.0,0.0,0.0,-2.6997,-2.7045,-2.8637,-3.0271,-3.1863,-3.1997,-3.2848,-3.4375,-3.4375,-3.4391,-3.4426,-3.3997,0.0,-2.9332,-2.7769,0.0,0.0,0.0,0.0,0.0,0.0,0.0,0.0,0.0,0.0,0.0,0.0,0.0,0.0,0.0,0.0,0.0,0.0,0.0,0.0,0.0,0.0,-2.7485,-2.7431,-2.6857,-2.6226,0.0,-2.3383,-2.0908,-2.0149,-1.9257,0.0,0.0,0.0,0.0,0.0,0.0,0.0,-2.0091,-2.1985,-2.3427,-2.4301,-2.5179,-2.4985,-2.3247,-2.3091,-2.2017,-1.9456,-1.9085,-1.8222,-1.6592,-1.546,0.0,0.0,0.0,0.0,0.0,0.0,0.0,0.0,0.0,0.0,0.0,0.0,0.0,0.0,0.0,0.0,0.0,0.0,0.0,0.0,0.0,0.0,0.0,0.0,0.0,0.0,0.0,0.0,0.0,-1.9569,-2.1101,-2.1589,-2.1687,-2.1529,0.0,0.0,0.0,0.0,0.0,0.0,0.0,0.0,0.0,-2.5977,-2.8433,-2.9978,-3.0396,-3.1985,-3.366,-3.5361,-3.5836,-3.6464,-3.7167,-3.7167,-3.6882,-3.6388,-3.6388,-3.5562,-3.3995,-3.1426,-3.0102,-2.9482,0.0,0.0,0.0,0.0,-2.6732,-2.726,-2.6861,-2.644,0.0,-2.5705,0.0,0.0,0.0,0.0,0.0,0.0,0.0,0.0,0.0,0.0,-2.8623,-2.8202,-2.8177,-2.8152,-2.7715,-2.6069,-2.4277,0.0,-2.1611,-2.0035,-1.7895,0.0,0.0,0.0,0.0,-1.8926,-2.1015,-2.2772,-2.4156,-2.5032,-2.5476,-2.4985,-2.3247,-2.3091,-2.2213,-2.0162,-1.9576,-1.8734,-1.7478,-1.6112,-1.4584,0.0,0.0,0.0,0.0,0.0,0.0,0.0,0.0,0.0,0.0,0.0,0.0,0.0,0.0,0.0,0.0,0.0,0.0,0.0,0.0,0.0,0.0,0.0,0.0,0.0,0.0,0.0,0.0,-2.0829,-2.235,-2.3232,-2.3583,-2.3491,0.0,0.0,0.0,0.0,0.0,0.0,-2.5006,-2.7259,-2.8636,-2.8824,-3.1066,-3.2648,-3.3444,-3.5069,-3.6594,-3.8054,-3.8906,-3.9448,-3.9656,-3.9656,-3.9286,-3.8679,-3.8679,-3.8433,-3.7788,-3.4717,-3.309,-3.2398,-3.0842,-3.0334,-3.0479,-3.0284,-3.0333,-3.0478,-3.0453,-2.9918,-2.9276,-2.9352,0.0,-2.6697,-2.6524,0.0,0.0,0.0,0.0,-2.8156,-2.8799,-2.9611,-3.007,-2.9264,-2.9578,-2.9784,-2.8749,-2.8016,-2.7061,0.0,-2.3828,-2.2233,-2.0498,0.0,0.0,0.0,0.0,-2.0306,-2.2224,-2.3594,-2.4726,-2.5603,-2.5695,-2.4986,-2.3247,-2.3091,-2.2389,-2.0711,-1.9988,-1.9146,-1.8049,-1.6741,-1.5136,-1.3174,0.0,0.0,0.0,0.0,0.0,0.0,0.0,0.0,0.0,0.0,0.0,0.0,0.0,0.0,0.0,0.0,0.0,0.0,0.0,0.0,0.0,0.0,0.0,0.0,0.0,0.0,0.0,0.0,0.0,-2.4965,-2.5801,0.0,0.0,0.0,0.0,-2.599,-2.6801,-2.7595,-2.8408,-3.0147,-3.1428,-3.215,-3.3947,-3.5267,-3.6017,-3.7666,-3.8925,-3.9786,-4.0658,-4.1484,-4.2211,-4.2211,-4.2204,-4.2147,-4.2147,-4.1245,-3.9578,-3.7049,-3.5998,-3.579,-3.4198,-3.4069,-3.4687,-3.3851,-3.4082,-3.4762,-3.4642,-3.4109,-3.3508,-3.3647,-3.2178,-3.0187,-2.936,-2.9074,0.0,0.0,-3.0327,-3.1541,-3.1599,-3.2256,-3.2716,-3.19,-3.1786,-3.1416,-2.9799,-2.9401,-2.8853,0.0,-2.6089,-2.4959,-2.3207,0.0,-2.1546,-2.155,-2.0915,-2.1373,-2.3936,-2.4353,-2.4726,-2.5605,-2.5698,-2.4989,-2.3248,-2.3091,-2.2389,-2.0711,-2.0555,-1.9772,-1.8069,-1.7912,-1.666,-1.4079,-1.3996,0.0,0.0,0.0,0.0,0.0,0.0,0.0,0.0,0.0,0.0,0.0,0.0,0.0,0.0,0.0,0.0,0.0,0.0,0.0,0.0,0.0,0.0,0.0,0.0,0.0,0.0,0.0,0.0,-2.7411,-2.8743,0.0,-2.884,-2.8522,-2.8444,-2.866,-2.9912,-3.0547,-3.0313,-3.2414,-3.3741,-3.3998,-3.5183,-3.6444,-3.7799,-3.8906,-4.0146,-4.151,-4.2393,-4.2962,-4.3246,-4.3246,-4.2943,-4.2401,-4.2401,-4.206,-4.1435,-4.0555,-3.8917,-3.6928,-3.6435,-3.6378,-3.6483,-3.5702,-3.5912,-3.6511,-3.5922,-3.5239,-3.4418,-3.3516,-3.2402,-3.1424,-3.1671,-3.1347,-3.1023,-3.1579,-3.2179,-3.2643,-3.2643,-3.2875,-3.3045,-3.2787,-3.2337,-3.1783,-3.1223,-3.0255,-2.9471,-2.9374,-2.8238,-2.6924,-2.5757,-2.4863,-2.4126,-2.3563,-2.3217,-2.334,-2.4286,-2.4884,-2.5362,-2.5661,-2.5703,-2.4996,-2.3256,-2.3095,-2.2389,-2.0711,-2.0594,-1.9812,-1.8073,-1.7995,-1.6764,-1.4147,-1.4107,-1.3265,0.0,0.0,0.0,0.0,0.0,0.0,0.0,0.0,0.0,0.0,0.0,0.0,0.0,0.0,0.0,0.0,0.0,0.0,0.0,0.0,0.0,0.0,0.0,0.0,0.0,-2.5989,-2.8233,-2.9091,-3.0711,-3.1515,-3.092,-3.0925,-3.0898,-3.0812,-3.2072,-3.2728,-3.2463,-3.4282,-3.559,-3.6159,-3.6737,-3.7723,-3.9077,-4.0184,-4.1302,-4.2401,-4.3568,-4.4099,-4.4099,-4.4099,-4.3796,-4.3246,-4.3246,-4.3095,-4.2848,-4.2848,-4.12,-3.869,-3.8771,-3.84,-3.779,-3.728,-3.7413,-3.7761,-3.725,-3.6749,-3.6072,-3.4535,-3.3769,-3.352,-3.3843,-3.3561,-3.3247,-3.3803,-3.3977,-3.3977,-3.3977,-3.3977,-3.391,-3.3664,-3.3169,-3.2593,-3.2089,-3.0886,-3.0066,-3.0594,-2.9588,-2.8459,-2.7875,-2.7098,-2.6244,-2.5368,-2.5017,-2.4844,-2.4831,-2.5335,-2.5701,-2.5691,-2.5702,-2.5116,-2.3669,-2.3273,-2.2506,-2.1139,-2.0769,-1.9949,-1.8505,-1.8154,-1.7041,-1.5029,-1.4402,-1.3556,-1.2435,0.0,0.0,0.0,0.0,0.0,0.0,0.0,0.0,0.0,0.0,0.0,0.0,0.0,0.0,0.0,0.0,0.0,0.0,0.0,0.0,0.0,0.0,0.0,-2.5117,-2.7271,-2.9177,-3.0048,-3.1697,-3.2683,-3.252,-3.2646,-3.2645,-3.2482,-3.3297,-3.4112,-3.4908,-3.5761,-3.6984,-3.8652,-3.869,-3.9077,-3.99,-4.1548,-4.2401,-4.2431,-4.4099,-4.4895,-4.4895,-4.4895,-4.4895,-4.4895,-4.4895,-4.4459,-4.3739,-4.3739,-4.2773,-4.1264,-4.1219,-4.0195,-3.8727,-3.8709,-3.869,-3.8719,-3.876,-3.8841,-3.8651,-3.7041,-3.6612,-3.6555,-3.5849,-3.5659,-3.5704,-3.5704,-3.5684,-3.5665,-3.5684,-3.5684,-3.5438,-3.4627,-3.442,-3.394,-3.2298,-3.1313,-3.0733,-3.0707,-3.008,-2.9537,-2.954,-2.8827,-2.7957,-2.71,-2.6264,0.0,-2.5738,-2.5717,-2.5694,-2.5705,-2.57,-2.5351,-2.447,-2.3604,-2.276,-2.1958,-2.1081,-2.0202,-1.9343,-1.8485,-1.7627,-1.6727,-1.5018,-1.4144,-1.4148,0.0,0.0,0.0,0.0,0.0,0.0,0.0,0.0,0.0,0.0,0.0,0.0,0.0,0.0,0.0,0.0,0.0,0.0,0.0,0.0,0.0,-2.6058,-2.768,-2.768,-3.036,-3.2634,-3.3449,-3.504,-3.5847,-3.5221,-3.5202,-3.4936,-3.4263,-3.5022,-3.5609,-3.5817,-3.6623,-3.7571,-3.8671,-3.869,-3.9077,-3.99,-4.1548,-4.2401,-4.2431,-4.4099,-4.4895,-4.4895,-4.4895,-4.4895,-4.4895,-4.4895,-4.4762,-4.4573,-4.4573,-4.3947,-4.2886,-4.1673,-4.0525,-3.9513,-3.8917,-3.869,-3.869,-3.8729,-3.8772,-3.8652,-3.7631,-3.6985,-3.6594,-3.6433,-3.6041,-3.5643,-3.5679,-3.5245,-3.4897,-3.5535,-3.5226,-3.4863,-3.5252,-3.4855,-3.411,-3.3072,-3.2173,-3.139,-3.0808,-3.0522,-3.0396,-3.0431,-2.9723,-2.9067,-2.8814,-2.7528,0.0,-2.6574,-2.6055,-2.5696,-2.5693,-2.5695,-2.5351,-2.4472,-2.3607,-2.276,-2.1958,-2.1081,-2.0202,-1.9343,-1.907,-1.823,-1.6727,-1.5604,-1.5024,0.0,0.0,0.0,0.0,0.0,0.0,0.0,0.0,0.0,0.0,0.0,0.0,0.0,0.0,0.0,0.0,0.0,0.0,0.0,0.0,0.0,0.0,-2.8938,-3.0901,-3.1242,-3.2975,-3.4377,-3.4832,-3.6367,-3.7078,-3.6282,-3.6206,-3.5836,-3.4965,-3.5704,-3.6358,-3.668,-3.7495,-3.8329,-3.9172,-3.9191,-3.9608,-4.0431,-4.1738,-4.2583,-4.2962,-4.427,-4.4895,-4.4895,-4.4895,-4.4895,0.0,-4.4895,-4.4895,-4.4895,-4.4895,-4.4421,0.0,0.0,0.0,0.0,0.0,-3.869,-3.8746,-3.9077,-3.9233,-3.9133,-3.8356,-3.7859,-3.7433,-3.6811,-3.6362,-3.6009,-3.5736,-3.5049,-3.4529,-3.5013,-3.4781,-3.4534,-3.5029,-3.5048,-3.4724,-3.3887,-3.273,-3.1732,-3.1288,-3.0614,0.0,-3.0671,-3.035,-2.9917,-2.9547,-2.8636,-2.7723,-2.6983,-2.6498,-2.6075,-2.574,-2.5707,-2.5485,-2.5,-2.4157,0.0,0.0,0.0,-2.0593,-1.9343,-1.9304,0.0,0.0,0.0,0.0,0.0,0.0,0.0,0.0,-1.4701,-1.4431,0.0,0.0,0.0,0.0,0.0,0.0,0.0,0.0,0.0,0.0,0.0,0.0,0.0,0.0,0.0,0.0,-3.1648,-3.4074,-3.4794,-3.5154,-3.5287,-3.5192,-3.6576,-3.7192,-3.6301,-3.6206,-3.5874,-3.5097,-3.5761,-3.6585,-3.7495,0.0,0.0,0.0,0.0,-4.0317,-4.1188,-4.2003,-4.2848,-4.3701,-4.4516,-4.4895,-4.4895,-4.4895,-4.4895,-4.4895,-4.4895,-4.4895,-4.4895,-4.4895,-4.4478,-4.3815,-4.3531,-4.2041,-3.9957,-3.9134,-3.8841,-3.8936,-3.9654,0.0,0.0,-3.913,-3.8917,-3.8623,-3.7205,-3.6719,-3.6548,-3.5907,-3.5073,-3.4408,-3.4529,-3.4471,-3.4413,-3.4529,-3.5148,-3.5458,-3.4587,-3.317,-3.2053,-3.1927,-3.0651,-2.9827,-3.0567,-3.0752,-3.0531,-2.9754,-2.9567,-2.8911,-2.7255,-2.6963,-2.6597,-2.5788,0.0,0.0,-2.5702,-2.4901,-2.4074,-2.3309,-2.2486,-2.1295,-1.9655,-1.9499,-1.8679,-1.702,-1.775,-1.8165,-1.819,-1.9007,-1.9814,-2.0537,-1.79,-1.6727,0.0,0.0,0.0,0.0,0.0,0.0,0.0,0.0,0.0,0.0,0.0,0.0,0.0,0.0,0.0,-2.948,-3.2473,-3.4718,-3.4889,-3.668,-3.7704,-3.7002,-3.7818,-3.7856,-3.6358,-3.6206,-3.613,-3.596,-3.6112,-3.687,-3.8367,-3.8614,-3.9058,-3.9862,-3.99,-4.0317,-4.1188,-4.2003,-4.2848,-4.3701,0.0,0.0,-4.4895,-4.4895,-4.4895,-4.4895,-4.4895,-4.4895,-4.4895,-4.4895,-4.4819,-4.4478,-4.2469,-4.1389,-4.0828,-3.9976,-3.9673,-3.9692,-3.9843,-3.99,-3.9881,-3.9721,-3.9294,-3.8766,-3.8509,-3.7581,0.0,-3.651,-3.5443,-3.4497,-3.5253,-3.4935,-3.4587,-3.5284,-3.5568,-3.5458,-3.4587,-3.4142,-3.3509,-3.2159,-3.1626,-3.1256,-3.0777,-3.0714,-3.0673,-3.0569,-2.9956,-2.9126,-2.8074,-2.7333,-2.6597,-2.5788,-2.5692,-2.5707,-2.5696,-2.4902,-2.4333,-2.4155,-2.3349,-2.2428,-2.1431,-2.073,-1.9851,-1.8816,-1.8965,-1.9368,-2.0006,-2.0866,-2.1662,-2.2329,-1.9665,-1.8754,0.0,0.0,0.0,0.0,0.0,0.0,0.0,0.0,0.0,0.0,0.0,-2.5989,-2.7271,0.0,-3.0825,-3.1659,-3.4245,-3.614,-3.614,-3.7978,-3.8831,-3.7552,-3.8178,-3.8197,-3.6927,-3.6813,-3.6813,-3.6813,-3.7211,-3.7818,-3.8652,-3.9077,-3.9475,-3.99,-4.0317,-4.0942,-4.1795,-4.264,-4.3474,-4.4308,-4.4706,-4.4895,-4.4895,-4.4895,-4.4895,-4.4895,-4.4895,-4.4895,-4.4895,-4.4895,-4.4895,-4.4743,-4.3095,-4.245,-4.2299,-4.1018,-4.0544,-4.0487,-4.0052,-3.99,-3.99,-3.99,-3.9648,-3.9294,-3.8955,-3.8336,-3.7677,-3.7352,-3.6406,-3.552,-3.5589,-3.5334,-3.5051,-3.5051,-3.538,-3.5568,-3.5148,-3.4703,-3.4147,-3.3306,-3.2455,-3.1729,-3.1357,-3.0933,-3.0662,-3.0736,-3.0411,-2.9684,-2.8379,-2.7818,-2.7082,-2.5822,-2.5704,-2.5698,-2.5706,-2.4901,-2.4393,-2.4409,-2.3583,-2.274,-2.1939,-2.147,-2.0631,-1.9323,-2.0119,-2.0759,-2.1145,-2.2422,-2.3444,-2.4164,-2.2342,-2.1445,0.0,0.0,0.0,0.0,0.0,0.0,0.0,-2.2836,-2.3891,-2.5387,-2.7043,-2.8624,-2.9981,-3.1572,-3.2937,-3.379,-3.5874,-3.7457,-3.7628,-3.8963,-3.9275,-3.7599,-3.8026,-3.8102,-3.7249,-3.7173,-3.7306,-3.7628,-3.8291,-3.8765,-3.8917,-3.9551,-3.9976,-4.0146,-4.0828,-4.1662,-4.2628,-4.336,-4.4099,-4.4895,-4.4895,-4.4895,-4.4895,-4.4895,-4.4895,-4.4895,-4.4895,-4.4895,-4.4895,-4.4895,-4.4895,-4.4838,-4.4194,-4.3929,-4.3701,-4.1882,-4.1188,-4.1075,-4.0203,-3.99,-3.99,-3.99,-3.99,-3.9797,-3.9187,-3.8945,-3.8756,-3.819,-3.7498,-3.6747,-3.5933,-3.5828,-3.5706,-3.4847,-3.5176,-3.5679,-3.5704,-3.5148,-3.4607,-3.4432,-3.3131,-3.2014,-3.1927,-3.117,-3.0622,-3.0681,-3.0739,-3.0216,-2.8642,-2.8457,-2.7801,-2.6108,-2.5928,-2.5864,-2.5718,-2.5055,-2.4648,-2.4643,-2.3995,-2.3152,-2.2173,-2.231,-2.1568,-1.9831,-2.1273,-2.2149,-2.2303,-2.3662,-2.4734,-2.5498,-2.4738,-2.3827,-2.2684,-2.3316,-2.4232,-2.3409,-2.4379,-2.5551,0.0,-2.6235,-2.7116,-2.8012,-2.9577,-3.0852,-3.1033,-3.2425,-3.3828,-3.4624,-3.6253,-3.7666,-3.8443,-3.9323,-3.9275,-3.7599,-3.7495,-3.723,-3.6415,-3.6339,-3.6946,-3.8443,-3.8633,-3.9001,-3.973,-3.9843,-4.0241,-4.1018,-4.115,-4.1958,-4.3549,-4.3644,-4.4099,-4.4895,-4.4895,-4.4895,-4.4895,-4.4895,-4.4895,-4.4895,-4.4895,-4.4895,-4.4895,-4.4895,-4.4895,-4.4895,-4.48,-4.4762,-4.4478,-4.209,-4.1188,-4.1075,-4.0203,-3.99,-3.99,-3.99,-3.99,-3.9881,-3.9797,-3.9321,-3.8813,-3.8785,-3.8289,-3.7571,-3.6781,-3.6613,-3.6472,-3.5659,-3.5529,-3.5637,-3.5679,-3.5626,-3.5342,-3.4549,-3.3615,-3.273,-3.2024,-3.1181,-3.0625,-3.0687,-3.0704,-3.0378,-2.9479,-2.9353,-2.8697,-2.6944,-2.6773,-2.6474,-2.5755,-2.5613,-2.5544,-2.5546,-2.5466,-2.4662,-2.3034,-2.3715,-2.3324,-2.1646,-2.2505,-2.3344,-2.4103,-2.4305,-2.479,-2.5576,-2.5423,-2.4803,-2.4416,-2.5174,-2.6228,-2.53,-2.6662,-2.8129,-2.766,-2.894,-3.0362,-3.0737,-3.256,-3.4112,-3.4112,-3.5059,-3.595,-3.6291,-3.7382,-3.8273,-3.8652,-3.9399,-3.9275,-3.7599,-3.7401,-3.7268,-3.6927,-3.6908,-3.758,-3.9267,-3.9399,-3.9551,-3.9881,-4.0374,-4.0809,-4.1188,-4.2147,-4.3,-4.3682,-4.4156,-4.4573,-4.4895,-4.4895,-4.4895,-4.4895,-4.4895,-4.4895,-4.4895,-4.4895,-4.4895,-4.4895,-4.4895,-4.4895,-4.4895,-4.4895,-4.4895,-4.4668,-4.264,-4.1901,-4.17,-4.0355,-3.99,-3.99,-3.99,-3.99,-3.99,-3.99,-3.9686,-3.9454,-3.9524,-3.9366,-3.8998,-3.8191,-3.7678,-3.7178,-3.6367,-3.5843,-3.5559,-3.5628,-3.5662,-3.5588,-3.5226,-3.404,-3.2991,-3.2658,-3.1482,-3.061,-3.0633,-3.0683,-3.0234,-2.891,-2.8734,-2.8087,-2.6379,-2.6205,-2.6079,-2.5731,-2.5704,-2.5482,-2.498,-2.5428,-2.4916,-2.317,-2.3949,-2.3832,-2.2623,-2.3422,-2.4047,-2.4397,-2.4918,-2.5567,-2.6346,-2.6295,-2.6287,-2.5937,-2.6896,-2.7979,-2.7274,-2.8791,-3.031,-2.9698,-3.1157,-3.2638,-3.2694,-3.4368,-3.5836,-3.5836,-3.631,-3.686,-3.7325,-3.7931,-3.85,-3.8974,-3.9532,-3.937,-3.79,-3.754,-3.7484,-3.7671,-3.7532,-3.7997,-3.9456,-3.9767,-3.9995,-4.0241,-4.0847,-4.1397,-4.1882,-4.3076,-4.3815,-4.4023,-4.4611,-4.4895,-4.4895,-4.4895,-4.4895,-4.4895,-4.4895,-4.4895,-4.4895,-4.4895,-4.4895,-4.4895,-4.4895,-4.4895,-4.4895,-4.4895,-4.4895,-4.4724,-4.3303,-4.2609,-4.2155,-4.0487,-3.99,-3.99,-3.99,-3.99,-3.99,-3.99,-3.99,-3.9911,-3.9954,-4.0029,-3.9909,-3.9099,-3.8494,-3.7871,-3.6846,-3.6217,-3.5791,-3.5624,-3.5645,-3.5704,-3.5704,-3.4485,-3.3378,-3.3146,-3.1889,-3.0858,-3.0634,-3.0641,-3.0155,-2.8725,-2.8137,-2.7478,-2.6496,-2.5972,-2.5783,-2.6013,-2.5832,-2.532,-2.4452,-2.5214,-2.4915,-2.317,-2.4164,-2.4359,-2.3482,-2.4301,-2.4769,-2.4769,-2.5625,-2.636,-2.6936,-2.7106,-2.7488,-2.7123,-2.8545,-2.9786,-2.9633,-3.0866,-3.2098,-3.2002,-3.2748,-3.3458,-3.3468,-3.4254,-3.4946,-3.4946,-3.4965,-3.5514,-3.7135,-3.742,-3.8016,-3.9635,-3.9881,-3.9575,-3.8669,-3.7867,-3.7675,-3.8403,-3.7821,-3.778,-3.8671,-3.9456,-4.0279,-4.1113,-4.1188,-4.1939,-4.3568,-4.3663,-4.4061,-4.4857,-4.4895,-4.4895,-4.4895,-4.4895,-4.4895,-4.4895,-4.4895,-4.4895,-4.4895,-4.4895,-4.4895,-4.4895,-4.4895,-4.4895,-4.4895,-4.4895,-4.4895,-4.48,-4.3966,-4.3133,-4.2155,-4.0487,-3.99,-3.99,-3.99,-3.99,-3.99,-3.99,-3.99,-3.99,-3.99,-4.0005,-3.9897,-3.9022,-3.888,-3.8551,-3.699,-3.6627,-3.6476,-3.5753,-3.5645,-3.5704,-3.5704,-3.4974,-3.4079,-3.3242,-3.2353,-3.1492,-3.0711,-3.06,-3.0296,-2.9479,-2.7935,-2.7245,-2.8035,-2.6673,-2.6011,-2.6809,-2.6148,-2.533,-2.4467,-2.5214,-2.4911,-2.3169,-2.475,-2.5257,-2.4378,-2.5218,-2.5668,-2.5668,-2.6547,-2.6977,-2.7015,-2.7801,-2.8143,-2.8129,-2.9787,-3.1421,-3.1374,-3.299,-3.4454,-3.3941,-3.4955,-3.5715,-3.465,-3.5144,-3.559,-3.5003,-3.5363,-3.595,-3.651,-3.7533,-3.8462,-3.902,-3.9559,-3.9765,-3.9444,-3.8655,-3.8214,-3.841,-3.778,0.0,-3.926,-4.0148,-4.0752,-4.1054,-4.2131,-4.2982,-4.3548,-4.4096,-4.4493,-4.4757,-4.4776,-4.4776,-4.4776,-4.4776,-4.4776,-4.4776,-4.4776,-4.4776,-4.4776,-4.4776,-4.4776,-4.4776,-4.4776,-4.4783,-4.4821,-4.4821,-4.4858,-4.48,-4.4004,-4.3512,-4.3019,-4.134,-4.0753,-4.0677,-4.0089,-3.99,-3.99,-3.99,-3.99,-3.99,-3.99,-3.9933,-3.9897,-3.9612,-3.918,-3.8689,-3.8184,-3.7305,-3.6511,-3.6348,-3.5996,-3.5704,-3.5704,-3.4993,-3.4118,-3.3242,-3.2372,-3.1526,-3.0728,-2.9644,-2.8833,-2.8579,-2.7076,-2.6167,-2.6515,-2.605,-2.5816,-2.6089,-2.5322,-2.4463,-2.3584,-2.4355,-2.4314,-2.3155,-2.4772,-2.5551,-2.5277,-2.5551,-2.598,-2.6567,-2.686,-2.7582,-2.8733,-2.8961,-2.9345,-2.9741,-3.144,-3.3123,-3.3441,-3.4669,-3.5672,-3.5227,-3.5558,-3.5658,-3.4611,-3.4386,-3.4302,-3.4008,-3.4453,-3.5031,-3.5598,-3.7112,-3.8304,-3.8588,-3.9315,-3.9811,-3.9766,-3.8973,-3.8526,-3.8775,-3.8054,-3.8021,-3.9122,-4.0263,-4.1054,-4.1337,-4.2655,-4.354,-4.3847,-4.4369,-4.4632,-4.4632,-4.4632,-4.4632,-4.4632,-4.4632,-4.4632,-4.4632,-4.4632,-4.4632,-4.4632,-4.4632,-4.4632,-4.4632,-4.4659,-4.4693,-4.4776,-4.4783,-4.4833,-4.4838,-4.4326,-4.4137,-4.3853,-4.1882,-4.1188,-4.1056,-4.0184,-3.99,-3.99,-3.99,-3.99,-3.99,-3.99,-3.99,-3.99,-3.99,-3.9532,-3.906,-3.8849,-3.784,-3.6891,-3.6707,-3.6132,-3.5673,-3.5704,-3.5245,-3.4582,-3.3712,-3.2585,-3.1618,-3.112,-2.9368,-2.8099,-2.8091,-2.6643,-2.5734,-2.6087,-2.5874,-2.5699,-2.5699,-2.4909,-2.389,-2.2719,-2.3745,-2.4004,-2.314,-2.4777,-2.5691,-2.5707,-2.6019,-2.645,-2.6996,-2.7621,-2.8499,-2.9612,-2.9845,-3.0221,-3.1892,-3.3523,-3.4974,-3.5754,-3.5942,-3.5905,-3.5841,-3.4668,-3.3524,-3.3342,-3.21,-3.1248,-3.1977,-3.2222,-3.2836,-3.4421,-3.6147,-3.7551,-3.8316,-3.9173,-3.9703,-3.975,-3.8906,-3.8677,-3.9476,-3.8707,-3.8234,-3.8395,0.0,-4.1179,-4.1942,-4.2793,-4.3637,-4.4449,-4.4487,-4.4487,-4.4487,-4.4487,-4.4487,-4.4487,-4.4487,-4.4487,-4.4487,-4.4487,-4.4487,-4.4487,-4.4487,-4.4487,-4.4501,-4.4551,-4.4632,-4.4699,-4.4757,-4.4821,-4.4883,-4.4883,-4.4883,-4.4542,-4.2155,-4.1321,-4.1169,-4.026,-3.9976,-3.9957,-3.9919,-3.99,-3.99,-3.99,-3.99,-3.99,-3.99,-3.99,-3.9721,-3.9036,-3.8251,-3.7504,-3.6807,-3.6093,-3.5606,-3.5679,-3.5665,-3.538,-3.4549,-3.2957,-3.1792,-3.1792,-2.972,-2.8155,-2.8116,-2.6637,-2.5929,-2.6747,-2.6167,-2.5699,-2.5699,-2.4907,-2.3691,-2.2046,-2.3483,-2.4021,-2.3202,-2.4841,-2.5776,-2.5766,-2.6626,-2.7095,-2.7134,-2.8792,-2.9612,-2.969,-3.0437,-3.0769,-3.3647,-3.5521,-3.7143,-3.6798,-3.7183,-3.7204,-3.5407,-3.4728,-3.377,-3.126,-3.042,-3.0014,-2.9618,-3.0534,-3.1695,-3.2712,-3.5268,-3.7212,-3.7438,-3.8679,-3.9771,-4.0365,-3.9626,-3.9362,-4.0168,-3.9402,-3.9132,0.0,-4.0909,-4.1632,-4.1838,-4.3222,-4.4134,-4.4325,-4.4358,-4.4358,-4.4358,-4.4358,-4.4358,-4.4358,-4.4358,-4.4358,-4.4358,-4.4358,-4.4358,-4.4358,-4.4358,-4.4358,-4.4358,-4.4411,-4.4482,-4.457,-4.4619,-4.4699,-4.4764,-4.4764,-4.4764,-4.4575,-4.3335,-4.2992,-4.2829,-4.134,-4.0866,-4.0753,-4.0108,-3.99,-3.99,-3.99,-3.99,-3.99,-3.99,-3.99,-3.9873,-3.9739,-3.8623,-3.7609,-3.7504,-3.6459,-3.5547,-3.5616,-3.5135,-3.4665,-3.4432,-3.2957,-3.1792,-3.1792,-3.0247,-2.8838,-2.8175,-2.6637,-2.5695,-2.5989,-2.5816,-2.5699,-2.5699,-2.4902,-2.4209,-2.3776,-2.4158,-2.4307,-2.4082,-2.5742,-2.6679,-2.6674,-2.7512,-2.829,-2.8934,-2.938,-2.9905,-3.0509,-3.0696,-3.0799,-3.4805,-3.6515,-3.7984,-3.7617,-3.7335,-3.6726,-3.5029,-3.3568,-3.2034,-3.0141,-2.8889,-2.8098,-2.8003,-2.9003,-3.0236,-3.1391,-3.4014,-3.6054,-3.6429,-3.7572,-3.8665,-3.9451,-3.9074,-3.9195,-4.0379,-4.0012,-4.0011,-4.0847,-4.1417,-4.187,-4.2224,-4.3472,-4.4162,-4.4162,-4.4162,-4.4162,-4.4162,-4.4162,-4.4162,-4.4162,-4.4162,-4.4162,-4.4162,-4.4162,-4.4162,-4.4162,0.0,-4.4162,-4.4177,-4.4285,-4.4358,-4.4416,-4.4482,-4.4551,-4.4605,-4.4605,-4.4605,-4.4562,-4.4137,-4.4045,-4.3806,-4.1805,-4.1185,-4.1037,-4.0165,-3.99,-3.99,-3.99,-3.99,-3.99,-3.99,-3.99,-3.9911,-3.9943,-3.8745,-3.7622,-3.7731,-3.6535,-3.549,-3.5622,-3.5281,-3.4974,-3.4974,-3.3518,-3.2372,-3.2372,-3.0673,-2.909,-2.82,-2.6962,-2.6043,-2.5736,-2.5699,-2.5699,-2.5699,-2.5251,-2.4962,-2.4973,-2.5333,-2.5542,-2.5538,-2.6811,-2.7537,-2.7539,-2.8378,-2.906,-2.9565,-2.9933,-3.0358,-3.08,-3.0798,-3.0791,-3.5632,-3.6963,-3.8124,-3.8041,-3.6837,-3.5408,-3.4344,-3.1729,-2.9429,-2.9092,-2.7233,-2.5909,-2.6699,-2.7591,-2.8746,-3.0345,-3.2734,-3.4643,-3.5389,-3.6297,-3.7156,-3.7978,-3.8026,-3.8657,-4.0319,-4.0425,-4.0773,-4.1683,-4.1757,-4.2054,-4.276,-4.3559,-4.4005,-4.4005,-4.4005,-4.4005,-4.4005,-4.4005,-4.4005,-4.4005,-4.4005,-4.4005,-4.4005,-4.4005,-4.4005,-4.4005,-4.4005,0.0,-4.4005,-4.4135,-4.4244,-4.4285,-4.4373,-4.4411,-4.4473,-4.4473,-4.4473,-4.4487,-4.4551,-4.4619,-4.4308,-4.2138,-4.1408,-4.1188,-4.0336,-3.9995,-3.99,-3.99,-3.99,-3.99,-3.99,-3.99,-3.99,-3.99,-3.8703,-3.7585,-3.7678,-3.6477,-3.5457,-3.5662,-3.5704,-3.5704,-3.5704,-3.435,-3.3223,-3.3126,-3.1176,-2.933,-2.824,-2.7397,-2.6583,-2.5773,-2.5697,-2.5697,-2.5699,-2.5796,-2.5855,-2.5855,-2.6679,-2.716,-2.7159,-2.7943,-2.8362,-2.8371,-2.9234,-2.9667,-2.9668,-3.0427,-3.0793,-3.0801,-3.0801,-3.08,-3.6483,-3.7679,-3.8603,-3.736,-3.6323,-3.4883,-3.2083,-2.9953,-2.7969,-2.5903,-2.4613,-2.4097,-2.4912,-2.6241,-2.7774,-2.9387,-3.224,-3.4289,-3.4438,-3.5758,-3.7023,-3.7841,-3.792,-3.859,-4.0262,-4.0416,-4.101,-4.2482,-4.2593,-4.2649,-4.2797,-4.3559,-4.4005,-4.4005,-4.4005,-4.4005,-4.4005,-4.4005,-4.4005,-4.4005,-4.4005,-4.4005,-4.4005,-4.4005,-4.4005,-4.4005,-4.4005,0.0,-4.4005,-4.4135,-4.4199,-4.4229,-4.4285,-4.4329,-4.4329,-4.4329,-4.4329,-4.4344,-4.4411,-4.4468,-4.4382,-4.3454,-4.2714,-4.2041,-4.1207,-4.0468,-3.99,-3.99,-3.99,-3.99,-3.99,-3.99,-3.99,-3.99,-3.8633,-3.747,-3.7585,-3.6457,-3.5457,-3.5662,-3.5704,-3.5704,-3.5704,-3.4853,-3.3924,-3.3204,-3.2169,-3.0647,-2.8396,-2.7401,-2.657,-2.5704,-2.5628,-2.563,-2.5699,-2.6303,-2.6691,-2.6691,-2.7511,-2.7989,-2.7989,-2.8811,-2.9268,-2.9279,-3.0125,-3.0562,-3.0566,-3.0722,-3.0836,-3.0887,-3.0823,-3.08,-3.5956,-3.6941,-3.7461,-3.5901,-3.4882,-3.3575,-3.0762,-2.8502,-2.6532,-2.4935,-2.3601,-2.2985,-2.3822,-2.4918,-2.6366,-2.8444,-3.0432,-3.2147,-3.341,-3.4284,-3.5398,-3.7076,-3.7652,-3.8711,-4.081,-4.1386,-4.2129,-4.3336,-4.3429,-4.3429,-4.3429,-4.3782,-4.4005,-4.4005,-4.4005,-4.4005,-4.4005,-4.4005,-4.4005,-4.4005,-4.4005,-4.4005,-4.4005,-4.4005,-4.4005,-4.4005,-4.4005,0.0,-4.4005,-4.407,-4.4104,-4.4104,-4.4131,-4.4147,-4.4147,-4.4147,-4.4147,-4.4162,-4.427,-4.4044,-4.3699,-4.3501,-4.2944,-4.2108,-4.084,-4.02,-3.99,-3.99,-3.99,-3.99,-3.99,-3.99,-3.99,-3.99,-3.8662,-3.7366,-3.7088,-3.6151,-3.5416,-3.5616,-3.5639,-3.5639,-3.5639,-3.4925,-3.4204,-3.3793,-3.2652,-3.1235,-2.9556,-2.8279,-2.7034,-2.5749,-2.5602,-2.5979,-2.6924,-2.7353,-2.7957,-2.8873,-2.9321,-2.9559,-2.955,-2.9942,-3.018,-3.0188,-3.059,-3.0798,-3.081,-3.0798,-3.082,-3.0855,-3.0812,-3.0807,-3.5045,-3.5956,-3.6322,-3.4667,-3.3543,-3.2184,-2.9751,-2.714,-2.5016,-2.4211,-2.273,-2.1827,-2.2671,-2.3468,-2.4728,-2.7037,-2.8367,-2.9842,-3.1942,-3.2667,-3.3875,-3.6179,-3.7312,-3.8859,-4.1349,-4.2333,-4.3132,-4.3949,-4.4005,-4.4005,-4.4005,-4.4005,-4.4005,-4.4005,-4.4005,-4.4005,-4.4005,-4.4005,-4.4005,-4.4005,-4.4005,-4.4005,-4.4005,-4.4005,-4.4005,-4.4005,-4.4005,0.0,0.0,-4.4005,-4.4005,-4.4005,-4.4005,-4.4005,-4.4005,-4.4005,-4.4005,-4.4002,-4.3945,-4.3502,-4.2955,-4.2776,-4.2416,-4.1784,-4.0473,-3.9989,-3.99,-3.99,-3.99,-3.99,-3.99,-3.99,-3.9862,-3.9673,-3.8702,-3.7538,-3.6672,-3.5974,-3.5534,-3.5547,-3.5534,-3.5534,-3.5534,-3.4963,-3.4456,-3.4263,-3.2968,-3.1636,-3.0612,-2.9076,-2.7514,-2.6012,-2.5703,-2.6147,-2.7524,-2.7994,-2.8773,-3.0158,-3.0587,-3.0801,-3.0801,-3.0801,-3.0801,-3.0801,-3.0791,-3.0808,-3.0809,-3.0803,-3.0796,-3.08,-3.0798,-3.0813,-3.429,-3.5479,-3.6309,-3.4637,-3.3057,-3.1266,-2.8793,-2.5736,-2.3211,-2.2402,-2.0953,-2.008,-2.0879,-2.1696,-2.2792,-2.4555,-2.6749,-2.8579,-2.9582,-3.1626,-3.3652,-3.5398,-3.6965,-3.8859,-4.1349,-4.2333,-4.3132,-4.3949,-4.4005,-4.4005,-4.4005,-4.4005,-4.4005,-4.4005,-4.4005,-4.4005,-4.4005,-4.4005,-4.4005,-4.4005,-4.4005,-4.4005,-4.4005,-4.4005,-4.4005,-4.4005,-4.4005,0.0,0.0,-4.4005,-4.4005,-4.4005,-4.4005,-4.4005,-4.4005,-4.4005,-4.4005,-4.3909,-4.3256,-4.2969,-4.27,-4.1378,-4.1017,-4.1101,-4.1002,-4.0473,-3.99,-3.99,-3.99,-3.99,-3.99,-3.99,-3.9711,-3.8993,-3.875,-3.826,-3.6746,-3.6341,-3.6113,-3.545,-3.533,-3.533,-3.533,-3.5254,-3.4947,-3.4153,-3.3267,-3.2148,-3.0617,-2.9004,-2.7677,-2.6775,-2.6045,-2.5656,-2.5838,-2.7281,-2.8279,-2.8424,-2.9925,-3.0801,-3.0801,-3.0801,-3.0801,-3.0801,-3.0801,-3.0795,-3.0799,-3.0791,-3.0807,-3.08,-3.08,-3.0836,-3.25,-3.3243,-3.3466,-3.2314,-3.1199,-2.9824,-2.7836,-2.5207,-2.298,-2.2163,-2.0715,-1.985,-2.0641,-2.1458,-2.2542,-2.4239,-2.5708,-2.7297,-2.9136,-3.0641,-3.2351,-3.4457,-3.6179,-3.7949,-3.99,-4.1293,-4.2612,-4.3893,-4.4005,-4.4005,-4.4005,-4.4005,-4.4005,-4.4005,-4.4005,-4.4005,-4.4005,-4.4005,-4.4005,-4.4005,-4.4005,-4.4005,-4.4005,-4.4005,-4.4005,-4.4005,-4.4005,0.0,0.0,-4.4005,-4.4005,-4.4005,-4.4005,-4.4005,-4.3949,-4.3466,-4.328,-4.3169,-4.2396,-4.1797,-4.131,-4.0756,-4.0317,-4.0015,-4.02,-4.0061,-3.9837,-3.9837,-3.9878,-3.99,-3.99,-3.99,-3.9824,-3.9513,-3.9079,-3.8448,-3.7357,-3.6709,-3.6124,-3.5376,-3.5239,-3.5239,-3.5239,-3.5239,-3.5124,-3.4772,-3.3585,-3.2523,-3.193,-3.0032,-2.8405,-2.7612,-2.6366,-2.5815,-2.6333,-2.7491,-2.8413,-2.895,-3.0139,-3.0801,-3.0801,-3.0801,-3.0801,-3.0801,-3.0801,-3.1059,-3.1579,-3.1063,-3.1061,-3.1567,-3.103,-3.0801,-3.0772,-3.144,-3.1552,-3.0511,-2.9619,-2.8579,-2.6925,-2.4631,-2.2683,-2.2126,-2.0715,-1.9776,-2.0344,-2.1105,-2.2115,0.0,-2.464,-2.6117,-2.8337,-2.9582,-3.105,-3.3231,-3.494,-3.6606,-3.8228,-4.0327,-4.2166,-4.354,-4.3875,-4.4005,-4.4005,-4.4005,-4.4005,-4.4005,-4.4005,-4.4005,-4.4005,-4.4005,-4.4005,-4.4005,-4.4005,-4.4005,-4.4005,-4.4005,-4.4005,-4.4005,-4.4005,0.0,0.0,-4.3652,-4.3503,-4.328,-4.328,-4.328,-4.3225,-4.2649,-4.2445,-4.2333,-4.1516,-4.0866,-4.036,-4.0188,-3.9722,-3.9317,-3.9564,-3.9703,-3.9762,-3.9792,-3.9856,-3.99,-3.99,-3.99,-3.99,-3.99,-3.9475,-3.8776,-3.7756,-3.7062,-3.6321,-3.5308,-3.5107,-3.5107,-3.5107,-3.5107,-3.5107,-3.5107,-3.3691,-3.2676,-3.2723,-3.0631,-2.8832,-2.8058,-2.6738,-2.6088,-2.6487,-2.7554,-2.8462,-2.9075,-3.0166,-3.0772,-3.0796,-3.0796,-3.0796,-3.0801,-3.0801,-3.1093,-3.1702,-3.1103,-3.112,-3.1705,-3.1093,-3.0797,-2.9415,-3.0586,-3.1422,-2.9805,-2.8765,-2.7687,-2.608,-2.3795,-2.2015,-2.1996,-2.0715,-1.9609,-1.9609,-2.027,-2.1087,-2.1885,-2.3423,0.0,-2.6702,-2.8356,-3.001,-3.1626,-3.3262,-3.4884,-3.6556,-3.9677,-4.1943,-4.2742,-4.3559,0.0,-4.4005,-4.4005,-4.4005,-4.4005,-4.4005,-4.4005,-4.4005,-4.4005,-4.4005,-4.4005,-4.4005,-4.4005,-4.4005,-4.4005,-4.4005,0.0,0.0,0.0,0.0,-4.2816,-4.2333,-4.1609,-4.1609,-4.1609,-4.1609,-4.1609,-4.1609,-4.1497,-4.068,-4.0416,-4.0267,-3.9481,-3.9215,-3.9242,-3.9438,-3.9607,-3.9717,-3.9781,-3.9856,-3.99,-3.99,-3.99,-3.99,-3.99,-3.99,-3.9426,-3.775,-3.7401,-3.6908,-3.523,-3.4889,-3.4889,-3.4889,-3.4889,-3.4889,-3.4889,-3.3532,-3.2528,-3.2583,-3.0503,-2.8727,-2.7974,-2.7176,-2.6401,-2.567,-2.719,-2.8196,-2.821,-2.9788,-3.0728,-3.0806,-3.0806,-3.0791,-3.0801,-3.0801,-3.0801,-3.0801,-3.0801,-3.0795,-3.0819,-3.0809,-3.0793,-2.739,-2.8059,-2.8337,-2.7817,-2.7074,-2.6182,-2.5113,-2.3386,-2.1848,-2.1291,-2.0344,-1.9609,-1.9609,-2.0258,-2.1049,-2.1866,-2.2914,0.0,-2.6591,-2.8337,-2.9991,-3.1608,-3.4228,-3.6538,-3.8172,-4.0308,-4.2166,-4.3522,-4.3856,-4.4005,-4.4005,-4.4005,-4.4005,-4.4005,-4.4005,-4.4005,-4.4005,-4.4005,-4.4005,-4.4005,-4.4005,-4.4005,-4.4005,-4.4005,-4.4005,0.0,0.0,0.0,0.0,-4.2203,-4.1832,-4.159,-4.159,-4.159,-4.1534,-4.0992,-4.0773,-4.0661,-3.9807,-3.951,-3.9468,-3.9203,-3.9129,-3.9156,-3.9256,-3.942,-3.9455,-3.9033,-3.8927,-3.8938,-3.8938,-3.9343,-3.977,-3.9815,-3.9826,-3.9383,-3.775,-3.7401,-3.6898,-3.523,-3.4908,-3.4908,-3.4908,-3.4908,-3.4908,-3.4908,-3.3496,-3.2477,-3.2591,-3.0445,-2.8645,-2.7909,-2.7113,-2.6329,-2.558,-2.7139,-2.8123,-2.8136,-2.9742,-3.071,-3.0728,-3.0781,-3.0791,-3.0801,-3.0801,-3.1093,-3.168,-3.1093,-3.1103,-3.1683,-3.1682,-3.2014,-2.5077,-2.5736,-2.5922,-2.5578,-2.5132,-2.4538,-2.3748,-2.2505,-2.1402,-2.0901,-2.0158,-1.9609,-1.9609,-2.0258,-2.1049,-2.1866,-2.2683,-2.4065,-2.6553,-2.8059,-2.9731,-3.1998,-3.4618,-3.6885,-3.8488,-4.016,-4.1683,-4.3002,-4.3652,-4.3875,-4.3559,-4.3838,-4.4005,-4.4005,-4.3708,-4.3559,-4.3559,-4.3243,-4.3095,-4.3095,-4.3095,-4.3095,-4.3095,-4.3095,-4.3095,0.0,0.0,0.0,0.0,-4.1349,-4.094,-4.0661,-4.0661,-4.0661,-4.0606,-4.0085,-3.99,-3.9825,-3.9287,-3.9101,-3.9101,-3.9101,-3.9115,-3.9087,-3.883,-3.8876,-3.8851,-3.818,-3.8184,-3.8429,-3.8429,-3.9032,-3.9677,-3.9758,-3.9781,-3.9361,-3.774,-3.7401,-3.6898,-3.523,-3.4908,-3.4908,-3.4908,-3.4908,-3.4908,-3.4908,-3.3468,-3.2424,-3.2514,-3.0377,-2.8564,-2.7809,-2.6993,-2.6227,-2.5455,-2.7028,-2.8206,-2.8524,-2.9858,-3.0789,-3.1144,-3.0889,-3.0733,-3.0756,-3.0759,-3.1037,-3.1617,-3.1052,-3.1254,-3.2101,-3.2104,-3.2568,0.0,-2.3702,-2.4194,-2.3333,-2.3165,-2.298,-2.2107,-2.1346,0.0,-2.0734,-2.0128,-1.9609,-1.9609,-2.0258,-2.1049,-2.1866,-2.272,-2.4158,-2.6646,-2.7873,-2.9694,-3.2816,-3.4655,-3.629,-3.7819,-3.9435,-4.0717,-4.1534,-4.2983,0.0,-4.2742,-4.3429,-4.3838,-4.3838,-4.3039,-4.2686,-4.2797,-4.1999,-4.159,-4.159,-4.159,-4.159,-4.159,-4.159,-4.159,0.0,0.0,0.0,0.0,-4.0327,-3.9825,-3.9101,-3.9101,-3.9101,-3.9101,-3.9101,-3.9101,-3.9101,-3.9101,-3.9101,-3.9101,-3.9101,-3.9105,-3.8955,-3.8154,-3.7997,-3.7953,-3.7211,-3.758,-3.8199,-3.8199,-3.8893,-3.9618,-3.967,-3.9747,-3.935,-3.773,-3.739,-3.6898,-3.5211,-3.4908,-3.4908,-3.4908,-3.4908,-3.4908,-3.4908,-3.3468,-3.2397,-3.2397,-3.0297,-2.8472,-2.7679,-2.6867,-2.6076,-2.5258,-2.6896,-2.836,-2.9216,-3.0095,-3.097,-3.1844,-3.1116,-3.0684,-3.0685,-3.0691,-3.0733,-3.0806,-3.0855,-3.1349,-3.2189,-3.2249,-3.273,-2.1087,0.0,-2.3304,-2.2497,-2.2739,-2.2831,0.0,-2.0938,-2.0622,-2.0017,-1.9739,-1.9609,-1.9609,-2.0258,-2.1049,-2.1866,-2.3238,-2.5048,-2.7483,-3.0679,-3.3287,-3.4748,-3.6352,-3.7726,-3.8711,-3.977,-4.0717,-4.1534,-4.1943,-4.2073,-4.1887,-4.2054,-4.2166,-4.2166,-4.1367,-4.1553,-4.2797,-4.1999,-4.159,-4.159,-4.159,-4.159,-4.159,-4.159,-4.159,0.0,0.0,0.0,-4.036,-3.9677,-3.9287,-3.9101,-3.9101,-3.9101,-3.9101,-3.9101,-3.9101,-3.9101,-3.9101,-3.9101,-3.9101,-3.9101,-3.8687,-3.805,-3.7251,-3.7112,-3.7044,-3.6245,-3.6601,-3.7237,-3.7237,-3.8371,-3.9521,-3.9539,-3.9637,-3.9274,-3.7675,-3.7318,-3.6837,-3.522,-3.4908,-3.4908,-3.4908,-3.4908,-3.4908,-3.4908,-3.3468,-3.2397,-3.2397,-3.0246,-2.8427,-2.7606,-2.6809,-2.6009,-2.5184,-2.6743,-2.8151,-2.9023,-3.045,-3.1383,-3.1669,-3.1521,-3.1163,-3.0567,-3.0642,-3.0725,-3.0806,-3.1461,-3.2248,-3.3105,-3.3734,-3.4484,-2.0128,-2.1142,-2.2089,-2.2015,-2.2052,-2.1866,-2.0994,-2.0511,-2.0128,-1.9701,-1.9609,-1.972,-2.0084,-2.0511,-2.1317,-2.2885,-2.3915,-2.5745,-2.9304,-3.2685,-3.525,-3.6458,-3.7689,-3.8785,0.0,-4.0118,-4.0583,-4.1014,0.0,-4.1441,-4.107,-4.1386,-4.159,-4.159,-4.081,-4.081,-4.1683,-4.0866,-4.0438,-4.0438,-4.0438,-4.0443,-4.0399,-4.0443,-4.0443,0.0,0.0,0.0,-3.977,-3.9287,-3.9101,-3.9101,-3.9101,-3.9073,-3.9045,-3.9045,-3.9031,-3.9003,-3.9031,-3.9073,-3.9101,-3.9101,-3.8804,-3.8228,-3.7058,-3.6998,-3.7105,-3.5944,-3.6187,-3.6895,-3.7254,-3.835,-3.938,-3.9401,-3.9508,-3.9173,-3.7591,-3.7276,-3.6816,-3.522,-3.4908,-3.4908,-3.4908,-3.4908,-3.4908,-3.4908,-3.3468,-3.2397,-3.2397,-3.0238,-2.8396,-2.7595,-2.6747,-2.5925,-2.5114,-2.6257,-2.758,-2.8881,-3.0183,-3.111,-3.1539,-3.12,-3.1008,-3.1047,-3.1181,-3.1475,-3.19,-3.2008,-3.2508,-3.3368,-3.3414,-3.3926,-1.9534,-2.0184,-2.0957,-2.1643,-2.1495,-2.1135,-2.1012,-2.0455,-1.9947,-1.9954,-1.998,-2.0158,-2.0864,-2.1179,-2.2033,-2.4148,-2.5002,-2.699,-3.1522,-3.4179,-3.6222,-3.7713,-3.8586,0.0,-4.0094,-4.0168,-4.0168,0.0,0.0,-4.0892,-4.0205,-4.0818,-4.1189,-4.1189,-4.0521,-4.0168,-4.0168,-3.9458,-3.9101,-3.9101,-3.9087,-3.9031,-3.8964,-3.9036,-3.9017,-3.8964,0.0,0.0,-3.9101,-3.9101,-3.9101,-3.9101,-3.9087,-3.905,-3.8983,-3.895,-3.8892,-3.8833,-3.8939,-3.9021,-3.9073,-3.9101,-3.9027,-3.8655,-3.7299,-3.7262,-3.7448,-3.6216,-3.6365,-3.7052,-3.7708,-3.8561,-3.921,-3.9272,-3.9389,-3.9076,-3.7525,-3.7233,-3.6824,-3.5201,-3.4898,-3.4898,-3.4908,-3.4908,-3.4908,-3.4908,-3.3468,-3.2397,-3.2397,-3.0332,-2.857,-2.7771,-2.6918,-2.6065,-2.525,-2.5932,-2.7051,-2.8592,-2.9603,-3.0553,-3.1429,-3.0774,-3.0727,-3.1474,-3.1748,-3.219,-3.2796,-3.227,-3.2375,-3.3104,-3.2552,-3.2696,-1.9212,-2.0184,-2.0827,-2.0957,-2.1917,-2.2661,-2.197,-2.1686,-2.1559,-2.1617,-2.1625,-2.1662,-2.1792,-2.2937,-2.3967,-2.4338,-2.7311,-3.0554,-3.3352,-3.5361,-3.6827,-3.7706,0.0,-3.9048,-3.912,-3.9139,-3.9139,0.0,0.0,-3.9254,-3.9124,-3.925,-3.9309,-3.9309,-3.918,-3.9139,-3.9139,-3.9119,-3.9101,-3.9101,-3.905,-3.895,-3.8837,-3.8833,-3.8833,0.0,0.0,-3.9007,-3.9101,-3.9101,-3.9101,-3.9101,-3.9036,-3.8935,-3.8822,-3.871,-3.8569,-3.851,-3.8743,-3.8862,-3.895,-3.9059,-3.8637,-3.8042,-3.7782,-3.7318,-3.6965,-3.7411,-3.7615,-3.7745,-3.7856,-3.8561,-3.9197,-3.921,-3.9367,-3.9064,-3.7455,-3.7167,-3.6756,-3.5209,-3.4907,-3.4898,-3.4898,-3.4908,-3.4908,-3.4908,-3.3468,-3.2397,-3.2397,-3.0825,-2.9404,-2.8608,-2.779,-2.6956,-2.6084,-2.6804,-2.7425,-2.7701,-2.9129,-3.036,-3.1282,-3.1249,-3.0983,-3.0516,-3.1312,-3.1492,-3.1006,-3.1667,-3.2096,-3.2305,-3.2903,-3.3261,-1.9249,-2.0184,-2.0901,-2.1297,-2.2241,-2.2993,-2.2622,-2.2521,-2.2384,-2.2027,-2.2317,-2.2786,-2.3225,-2.4164,-2.5434,-2.7105,-3.0093,-3.2777,-3.441,-3.6112,-3.7461,0.0,0.0,-3.874,-3.8634,-3.8618,0.0,0.0,0.0,0.0,-3.8618,-3.8618,-3.8618,-3.8618,-3.8618,-3.8618,-3.8618,-3.8695,-3.8815,-3.8993,-3.8844,-3.8725,-3.8652,-3.8606,-3.8588,-3.8634,0.0,-3.8829,-3.8993,-3.8993,-3.8993,-3.8979,-3.8844,-3.8725,-3.8603,-3.8412,-3.8334,-3.8368,-3.8575,-3.8728,-3.8881,-3.9007,-3.8832,-3.8456,-3.7988,-3.7922,-3.7986,-3.7877,-3.7867,-3.7986,-3.8432,-3.885,-3.9142,-3.9142,-3.9242,-3.8906,-3.7324,-3.7064,-3.6678,-3.5148,-3.4877,-3.4907,-3.4898,-3.4908,-3.4908,-3.4908,-3.3866,-3.2937,-3.2454,-3.1355,-3.0105,-2.8836,-2.8362,-2.7612,-2.6311,-2.7001,-2.7866,-2.873,-2.948,-3.0094,-3.0536,-3.1053,-3.1188,-3.0894,-3.1847,-3.2196,-3.1894,-3.1922,-3.1974,-3.2049,-3.2008,-3.2004,-1.8987,-1.9729,-2.0426,-2.1369,-2.2467,-2.3327,-2.3529,-2.3548,-2.3437,-2.3068,-2.3526,-2.4199,-2.4829,-2.5581,-2.7057,-2.9942,-3.2215,-3.4091,-3.5418,-3.6681,-3.7798,-3.8636,-3.8603,-3.8478,-3.835,0.0,0.0,0.0,0.0,0.0,-3.8334,-3.8334,-3.8334,-3.8334,-3.8334,-3.8334,-3.8334,-3.8334,-3.8478,-3.8773,-3.8603,-3.8478,-3.8364,-3.8334,-3.8334,-3.8399,-3.846,-3.8603,-3.8788,-3.8788,-3.8788,-3.8773,-3.8588,-3.8462,-3.8334,-3.8086,-3.807,-3.8189,-3.8334,-3.851,-3.8716,-3.8892,-3.8993,-3.8906,-3.8243,-3.8493,-3.8887,-3.8224,-3.8081,-3.828,-3.892,-3.9101,-3.9101,-3.9101,-3.9156,-3.8763,-3.7206,-3.698,-3.6629,-3.5057,-3.4798,-3.4859,-3.4879,-3.4879,-3.4879,-3.4908,-3.4197,-3.3336,-3.2512,-3.1679,-3.0608,-2.9139,-2.8817,-2.8173,-2.6892,-2.7392,-2.8389,-2.9821,-2.9897,-2.9897,-2.9897,-3.0959,-3.1499,-3.139,-3.252,-3.2968,-3.265,-3.2106,-3.179,-3.1666,-3.1067,-3.0781,-1.7876,-1.8338,-1.8763,-2.0377,-2.2459,-2.4311,-2.5065,-2.5179,-2.535,-2.6103,-2.6317,-2.6383,-2.6507,-2.764,-2.929,-3.1564,-3.277,-3.4269,-3.6705,0.0,-3.7481,-3.84,-3.8401,-3.8272,0.0,0.0,0.0,0.0,0.0,0.0,-3.8118,-3.8118,-3.8118,-3.8118,-3.8118,-3.8118,-3.8118,-3.8118,-3.8236,-3.843,-3.837,-3.8223,-3.8035,-3.8035,-3.8035,-3.8035,-3.8101,-3.8251,-3.843,-3.843,-3.843,-3.843,-3.8354,-3.8174,-3.7916,-3.7703,-3.7685,-3.7774,-3.7966,-3.8171,-3.8387,-3.8716,-3.8822,-3.8803,-3.8748,-3.8766,-3.8803,-3.8748,-3.8774,-3.8861,-3.9041,-3.9101,-3.9101,-3.9101,-3.9156,-3.875,-3.7143,-3.692,-3.6529,-3.4921,-3.4666,-3.4758,-3.4877,-3.4858,-3.4819,-3.4887,-3.4111,-3.3242,-3.2496,-3.1645,-3.0774,-2.9907,-2.9158,-2.8646,-2.8532,-2.8589,-2.8987,-2.9859,-2.9897,-2.9897,-2.9897,-3.1459,-3.1996,-3.1314,-3.291,-3.3032,-3.1603,-3.168,-3.1366,-3.0707,-3.0711,-3.0731,-1.8581,-1.8908,-1.9339,-2.0925,-2.2363,-2.3611,-2.4398,-2.5608,-2.6636,-2.6972,-2.7797,-2.85,-2.8657,-2.9502,-3.0695,-3.2328,-3.3746,-3.5143,-3.6561,-3.7243,-3.7725,-3.815,-3.8122,0.0,0.0,0.0,0.0,0.0,0.0,0.0,-3.7792,-3.7792,-3.7792,-3.7792,-3.7792,-3.7792,-3.7792,-3.7792,-3.7827,-3.7897,-3.8003,-3.8021,-3.7933,-3.781,-3.781,-3.7933,-3.7968,-3.807,-3.8201,-3.8201,-3.8201,-3.8185,-3.8088,-3.7898,-3.7703,-3.7631,-3.7613,-3.7667,-3.7863,-3.8002,-3.8171,-3.8494,-3.859,-3.8559,-3.8588,-3.8572,-3.8559,-3.8588,-3.8728,-3.8877,-3.9059,-3.9101,-3.9101,-3.9101,-3.8738,-3.8082,-3.6985,-3.6429,-3.5805,-3.4686,-3.4561,-3.4676,-3.4809,-3.4827,-3.4798,-3.4819,-3.4544,-3.4006,-3.3185,-3.2836,-3.2344,-3.1545,-3.073,-3.0257,-3.0257,-2.9802,-2.9612,-2.9878,-2.9897,-2.9897,-2.9897,-3.1033,-3.1269,-3.0452,-3.2167,-3.2248,-3.0624,-3.1309,-3.1235,-3.0487,-3.0591,-3.0665,-1.8945,-1.9047,-1.928,-2.0891,-2.2054,-2.3084,-2.4178,-2.5912,-2.744,-2.7945,-2.9088,-2.9949,-2.9852,-3.0604,-3.1513,-3.2329,-3.4044,-3.5525,-3.6274,-3.7167,-3.7757,-3.788,-3.781,0.0,0.0,0.0,0.0,0.0,0.0,0.0,0.0,-3.6988,-3.697,-3.722,-3.722,-3.7345,-3.7595,-3.7363,-3.722,-3.722,-3.7095,-3.7308,-3.7811,-3.7667,-3.7685,-3.7811,-3.7811,-3.7863,-3.7931,-3.7931,-3.7931,-3.7932,-3.7846,-3.7721,-3.7595,-3.7595,-3.7595,-3.7631,-3.7757,-3.7863,-3.7949,-3.8252,-3.8318,-3.8285,-3.8334,-3.8318,-3.8285,-3.8334,-3.8496,-3.8701,-3.8931,-3.9045,-3.9101,-3.9101,-3.8488,-3.7671,-3.6872,-3.6118,-3.536,-3.4519,-3.4484,-3.4594,-3.4727,-3.4747,-3.4747,-3.4747,-3.4747,-3.4436,-3.3578,-3.3515,-3.3233,-3.2484,-3.1915,-3.1469,-3.1223,-3.0692,-3.0238,-2.9916,-2.9897,-2.9897,-2.9897,-3.073,-3.092,-3.0313,-3.2041,-3.2129,-3.0483,-3.1458,-3.1373,-3.0373,-3.0506,-3.0599,-1.8654,-1.8371,-1.8238,-1.997,-2.1515,-2.3045,-2.4744,-2.6266,-2.7787,-2.939,-3.0296,-3.0584,-2.9859,-3.0848,-3.1737,-3.1533,-3.3454,-3.5243,-3.5987,-3.6783,-3.7392,-3.7667,0.0,0.0,0.0,0.0,0.0,0.0,0.0,0.0,0.0,-3.565,-3.5578,-3.6363,-3.6399,-3.6774,-3.7595,-3.6792,-3.6399,-3.6381,-3.5578,-3.6042,-3.7595,-3.7595,-3.7595,-3.7595,-3.7595,-3.7595,-3.7595,-3.7595,-3.7595,-3.7595,-3.7595,-3.7595,-3.7595,-3.7595,-3.7595,-3.7595,-3.7595,-3.7649,-3.7739,-3.7932,-3.8001,-3.8001,-3.8001,-3.8001,-3.8001,-3.8001,-3.8138,-3.837,-3.8716,-3.895,-3.9101,-3.9101,-3.8469,-3.7671,-3.6872,-3.6118,-3.5317,-3.446,-3.4416,-3.4517,-3.4591,-3.4602,-3.4602,-3.4602,-3.4602,-3.4301,-3.3502,-3.3423,-3.3173,-3.2505,-3.2428,-3.2094,-3.128,-3.1204,-3.0844,-2.9953,-2.9916,-2.9916,-2.9897,-3.073,-3.1185,-3.1185,-3.2823,-3.2888,-3.1279,-3.2159,-3.1794,-3.0292,-3.0447,-3.0545,-1.8681,-1.9076,-1.9804,-2.1404,-2.2556,-2.4001,-2.6661,-2.8017,-2.9293,-3.1324,-3.15,-3.1227,-3.1016,-3.126,-3.1629,-3.1996,-3.3125,-3.4356,-3.5523,-3.6023,-3.6547,0.0,0.0,0.0,0.0,0.0,0.0,0.0,0.0,0.0,0.0,-3.565,-3.5578,-3.6363,-3.6399,-3.6774,-3.7595,-3.6792,-3.6399,-3.6381,-3.5578,-3.5757,-3.6756,-3.6756,-3.7059,-3.7595,-3.7595,-3.7595,-3.7595,-3.7595,-3.7595,-3.7595,-3.7595,-3.7595,-3.7595,-3.7595,-3.7595,-3.7595,-3.7595,-3.7613,-3.7667,-3.7863,-3.7828,-3.7739,-3.7881,-3.7828,-3.7757,-3.7881,-3.802,-3.8171,-3.8494,-3.868,-3.8811,-3.9045,-3.8042,-3.6983,-3.6742,-3.5597,-3.4549,-3.4289,-3.4293,-3.4374,-3.445,-3.4461,-3.4461,-3.4461,-3.4461,-3.442,-3.4253,-3.4808,-3.4948,-3.4235,-3.416,-3.3581,-3.2151,-3.2037,-3.1431,-2.9991,-3.0484,-3.0541,-2.9934,-3.0143,-3.0294,-3.0294,-3.1374,-3.1402,-3.0319,-3.1236,-3.1154,-3.0178,-3.0931,-3.1306,-1.8825,-1.9448,-2.0354,-2.2256,-2.3501,-2.5164,-2.8607,-2.9787,-3.0602,-3.225,-3.22,-3.1743,-3.1409,-3.1555,-3.1719,-3.1775,-3.2669,-3.3647,-3.4436,-3.4974,-3.5532,0.0,0.0,0.0,0.0,0.0,0.0,0.0,0.0,0.0,0.0,-3.4602,-3.4549,-3.5331,-3.5385,-3.5741,-3.6577,-3.5776,-3.5385,-3.5349,-3.4549,-3.4584,-3.5402,-3.6078,-3.6827,-3.7595,-3.7595,-3.7595,-3.7595,-3.7595,-3.7595,-3.7595,-3.7595,-3.7595,-3.7595,-3.7595,-3.7595,-3.7595,-3.7595,-3.7595,-3.7631,-3.7739,-3.7703,-3.7613,-3.7739,-3.7703,-3.7631,-3.7757,-3.7828,-3.7949,-3.8236,-3.8348,-3.8507,-3.8917,-3.8067,-3.7055,-3.674,-3.5652,-3.4606,-3.4228,-3.4209,-3.4257,-3.4281,-3.4316,-3.434,-3.4316,-3.434,-3.4386,-3.4506,-3.5044,-3.5233,-3.4793,-3.479,-3.413,-3.2458,-3.2372,-3.167,-3.0004,-3.0722,-3.0958,-3.0446,-3.0427,-3.0257,-2.9916,-3.0749,-3.0768,-2.9897,-3.0818,-3.1018,-3.0598,-3.1221,-3.1725,-1.9041,-1.9583,-2.0282,-2.2676,-2.4462,-2.6565,-3.0248,-3.1223,-3.1585,-3.2396,-3.2456,-3.2126,-3.1321,-3.1707,-3.1917,-3.1185,-3.2212,-3.3061,-3.3072,-3.3832,0.0,0.0,0.0,0.0,0.0,0.0,0.0,0.0,0.0,0.0,0.0,-3.3014,-3.2943,-3.3756,-3.3774,-3.4163,-3.496,-3.4181,-3.3774,0.0,-3.2961,-3.2996,-3.3827,-3.542,-3.6595,-3.7362,-3.738,-3.7381,-3.7398,-3.747,-3.7488,-3.7506,-3.7577,-3.7595,-3.7595,-3.7595,-3.7595,-3.7595,-3.7595,-3.7595,-3.7595,-3.7595,-3.7595,-3.7595,-3.7595,-3.7595,-3.7595,-3.7595,-3.7649,-3.7739,-3.7932,-3.8035,-3.8219,-3.8713,-3.8282,-3.7563,-3.6837,-3.6033,-3.5218,-3.4358,-3.4179,-3.4136,-3.4074,-3.4161,-3.4233,-3.4185,-3.432,-3.4398,-3.4381,-3.4495,-3.4547,-3.4473,-3.4526,-3.3903,-3.2324,-3.2241,-3.1626,-3.0112,-3.0827,-3.1299,-3.1299,-3.1299,-3.0939,-3.0143,-3.0825,-3.0806,-3.0029,-3.073,-3.1153,-3.1298,-3.1435,-3.1989,-1.8988,-1.993,-2.1021,-2.3331,-2.5955,-2.8359,-2.9834,-3.0605,-3.1269,-3.2177,-3.2301,-3.2109,-3.1722,-3.1789,-3.1822,-3.1667,-3.1891,-3.2304,-3.2855,-3.3211,0.0,0.0,0.0,0.0,0.0,0.0,0.0,0.0,0.0,0.0,-3.3547,-3.2791,-3.2721,-3.353,-3.3547,-3.3952,-3.4763,-3.397,-3.3547,0.0,-3.2739,-3.2791,-3.3583,-3.4128,-3.4835,-3.5634,-3.5686,-3.5721,-3.5774,-3.6399,-3.6649,-3.672,-3.7363,-3.7595,-3.7595,-3.7595,-3.7595,-3.7595,-3.7595,-3.7595,-3.7595,-3.7595,-3.7595,-3.7595,-3.7595,-3.7595,-3.7595,-3.7595,-3.7613,-3.7667,-3.7863,-3.7916,-3.8003,-3.8219,-3.7825,-3.7386,-3.7315,-3.6196,-3.5127,-3.4924,-3.4331,-3.386,-3.3726,-3.378,-3.3868,-3.4023,-3.4723,-3.4996,-3.4338,-3.4767,-3.4915,-3.4332,-3.3731,-3.3007,-3.2119,-3.1591,-3.1164,-3.0868,-3.166,-3.2132,-3.2132,-3.2132,-3.2037,-3.1867,-3.1431,-3.1109,-3.092,-3.0427,-3.0549,-3.1248,-3.1985,-3.2812,-1.883,-1.994,-2.1276,-2.4306,-2.6558,-2.8427,-2.9934,-3.0543,-3.1046,-3.1881,-3.2055,-3.2002,-3.1819,-3.18,-3.18,-3.18,-3.18,-3.1921,-3.2317,-3.2462,0.0,0.0,0.0,0.0,0.0,0.0,0.0,0.0,0.0,-3.2844,-3.2844,-3.2424,-3.2406,-3.2826,-3.2844,-3.3036,-3.3457,-3.3036,-3.2844,-3.2809,-3.2406,-3.2442,-3.2915,-3.3917,-3.4641,-3.5101,-3.517,-3.5186,-3.5258,-3.6078,-3.6399,-3.647,-3.7291,-3.7595,-3.7595,-3.7595,-3.7595,-3.7595,-3.7595,-3.7595,-3.7595,-3.7595,-3.7595,-3.7595,-3.7595,-3.7595,-3.7595,-3.7595,-3.7595,-3.7613,-3.7721,-3.7775,-3.7775,-3.7845,-3.7812,-3.7703,-3.7451,-3.6406,-3.5435,-3.5069,-3.4257,-3.3615,-3.352,-3.3601,-3.3753,-3.3881,-3.4412,-3.4586,-3.4079,-3.4341,-3.4408,-3.3963,-3.3617,-3.2986,-3.1857,-3.1559,-3.1269,-3.0932,-3.1751,-3.243,-3.2798,-3.3222,-3.3119,-3.2416,-3.1981,-3.1772,-3.1772,-3.1318,-3.1545,-3.2425,-3.3294,-3.4192,-1.8493,-1.9941,-2.1595,-2.487,-2.6402,-2.7609,-2.9644,-3.0214,-3.0541,-3.142,-3.177,-3.1875,-3.1818,-3.18,-3.18,-3.18,-3.18,-3.18,-3.18,-3.1856,0.0,0.0,0.0,0.0,0.0,0.0,0.0,0.0,0.0,-3.2037,-3.2037,-3.2037,-3.2037,-3.2037,-3.2037,-3.2037,-3.2037,-3.2037,-3.2037,-3.2037,-3.2037,-3.2073,-3.2196,-3.3794,-3.4553,-3.4658,-3.4726,-3.4742,-3.4814,-3.5615,-3.5954,-3.6061,-3.7005,-3.738,-3.7398,-3.7523,-3.7595,-3.7595,-3.7595,-3.7595,-3.7595,-3.7595,-3.7595,-3.7595,-3.7595,-3.7595,-3.7595,-3.7595,-3.7595,-3.7595,-3.7595,-3.7595,-3.7595,-3.7595,-3.7898,-3.8041,-3.7528,-3.6635,-3.5748,-3.513,-3.4138,-3.3375,-3.3334,-3.3491,-3.3643,-3.3726,-3.386,-3.3881,-3.3766,-3.3611,-3.3524,-3.3545,-3.3442,-3.2889,-3.1727,-3.1716,-3.157,-3.1052,-3.1773,-3.2556,-3.3368,-3.4102,-3.3907,-3.2675,-3.259,-3.2561,-3.257,-3.2446,-3.2834,-3.3705,-3.4377,-3.5183,-1.7728,-2.0337,-2.2664,-2.3819,-2.518,-2.6523,-2.7523,-2.8247,-2.911,-3.0541,-3.137,-3.1818,-3.18,-3.18,-3.18,-3.18,-3.18,-3.18,-3.18,0.0,0.0,0.0,0.0,0.0,0.0,0.0,0.0,0.0,-3.1837,-3.1837,-3.1837,-3.1837,-3.1837,-3.1837,-3.1837,-3.1837,-3.1837,-3.1837,-3.1837,-3.1837,-3.1837,-3.1874,-3.1948,-3.2317,-3.2617,-3.2841,-3.2924,-3.294,-3.3011,-3.3825,-3.4145,-3.4304,-3.5847,-3.647,-3.6577,-3.7326,-3.7595,-3.7595,-3.7595,-3.7595,-3.7595,-3.7595,-3.7595,-3.7595,-3.7595,-3.7595,-3.7595,-3.7595,-3.7595,-3.7595,-3.7595,-3.7595,-3.7595,-3.7595,-3.7667,-3.7721,-3.7874,-3.6716,-3.5632,-3.5537,-3.4139,-3.2995,-3.3042,-3.3178,-3.3313,-3.3419,-3.3563,-3.3633,-3.3549,-3.2817,-3.2586,-3.3265,-3.2065,-3.1451,-3.2069,-3.1649,-3.1667,-3.2312,-3.2521,-3.2976,-3.3784,-3.3926,-3.3901,-3.3704,-3.3358,-3.3207,-3.3277,-3.2628,-3.277,-3.3611,-3.379,-3.4301,-1.7349,-1.9769,-2.1802,-2.3405,-2.4319,-2.5249,-2.6919,-2.754,-2.8334,-3.03,-3.0973,-3.13,-3.1714,-3.18,-3.18,-3.18,-3.18,-3.18,-3.18,0.0,0.0,0.0,0.0,0.0,0.0,0.0,0.0,0.0,-3.18,-3.18,-3.18,-3.18,-3.18,-3.18,-3.18,-3.18,-3.18,-3.18,-3.18,-3.18,-3.18,-3.1838,-3.1894,-3.1966,-3.2109,-3.2336,-3.2404,-3.242,-3.249,-3.33,-3.367,-3.3916,-3.5545,-3.622,-3.6417,-3.7273,-3.7595,-3.7595,-3.7595,-3.7595,-3.7595,-3.7595,-3.7595,-3.7595,-3.7595,-3.7595,-3.7595,-3.7595,-3.7595,-3.7595,-3.7595,-3.7595,-3.7595,-3.7595,-3.7595,-3.7631,-3.7757,-3.6502,-3.5121,-3.4257,-3.3444,-3.2916,-3.2932,-3.3055,-3.3162,-3.3226,-3.3375,-3.3452,-3.3283,-3.2919,-3.2769,-3.3055,-3.211,-3.1427,-3.1361,-3.1247,-3.1339,-3.1733,-3.2211,-3.2855,-3.3707,-3.3725,-3.3725,-3.3725,-3.3716,-3.3731,-3.3855,-3.3671,-3.3549,-3.3496,-3.4103,-3.4567,-1.6735,-1.87,-2.0389,-2.2664,-2.3388,-2.4026,-2.5971,-2.6713,-2.754,-2.9437,-2.9989,-3.0334,-3.1076,-3.1541,-3.18,-3.18,-3.18,-3.18,-3.18,0.0,0.0,0.0,0.0,0.0,0.0,0.0,0.0,0.0,-3.18,-3.18,-3.18,-3.18,-3.18,-3.18,-3.18,-3.18,-3.18,-3.18,-3.18,-3.18,-3.18,-3.1819,-3.1875,-3.1875,-3.1948,-3.209,-3.2197,-3.2249,-3.2301,-3.2915,-3.3213,-3.3459,-3.4888,-3.5509,-3.5776,-3.6826,-3.7219,-3.7254,-3.745,-3.7503,-3.7503,-3.7503,-3.7503,-3.7503,-3.7503,-3.7503,-3.7539,-3.754,-3.754,-3.7558,-3.7577,-3.7595,-3.7595,-3.7595,-3.7595,-3.7541,-3.7345,-3.6345,-3.5043,-3.3507,-3.3203,-3.315,-3.2936,-3.2977,-3.3039,-3.3039,-3.318,-3.3229,-3.3055,-3.286,-3.2722,-3.2612,-3.2007,-3.1365,-3.0708,-3.1026,-3.1251,-3.1247,-3.2013,-3.2748,-3.3397,-3.3415,-3.3415,-3.3415,-3.3643,-3.3865,-3.4099,-3.434,-3.4199,-3.3684,-3.4489,-3.4879,-1.558,-1.7139,-1.8855,-2.116,-2.2233,-2.2974,-2.3802,-2.5111,-2.6419,-2.7299,-2.8023,-2.8747,-2.9489,-3.0817,-3.18,-3.18,-3.18,-3.18,0.0,0.0,0.0,0.0,0.0,0.0,0.0,0.0,0.0,0.0,-3.18,-3.18,-3.18,-3.18,-3.18,-3.18,-3.18,-3.18,-3.18,-3.18,-3.18,-3.18,-3.18,-3.18,-3.1818,-3.1818,-3.1818,-3.1837,-3.2019,-3.2108,-3.2108,-3.2161,-3.2196,-3.2371,-3.3283,-3.3706,-3.4023,-3.5597,-3.6183,-3.6307,-3.705,-3.7316,-3.7316,-3.7316,-3.7316,-3.7316,-3.7316,-3.7316,-3.7334,-3.7392,-3.7411,-3.7448,-3.7576,-3.7595,-3.7595,-3.7595,-3.7595,-3.7398,-3.6631,-3.6399,-3.5882,-3.4347,-3.4044,-3.3794,-3.3025,-3.29,-3.2916,-3.2916,-3.2916,-3.2916,-3.2916,-3.2239,-3.1775,-3.176,-3.1046,-3.0547,-3.0511,-3.1204,-3.1666,-3.1666,-3.2414,-3.2878,-3.293,-3.2948,-3.2948,-3.2948,-3.3011,-3.3313,-3.3815,-3.4023,-3.4203,-3.4353,-3.4658,-3.4848,-1.4149,-1.6279,-1.851,-1.9803,-2.0682,-2.1561,-2.2802,-2.3526,-2.456,-2.6833,-2.7506,-2.8058,-2.9282,-2.9955,-3.0317,-3.0317,-3.0317,-3.0317,0.0,0.0,0.0,0.0,0.0,0.0,0.0,0.0,0.0,0.0,0.0,-3.1076,-3.1076,-3.0593,-3.0558,-3.1076,-3.1076,-3.1317,-3.18,-3.18,-3.18,-3.18,-3.18,-3.18,-3.18,-3.18,-3.18,-3.18,-3.1892,-3.191,-3.191,-3.191,-3.1947,-3.2089,-3.2963,-3.3386,-3.3705,-3.5308,-3.5908,-3.6032,-3.6823,-3.7105,-3.7105,-3.7105,-3.7105,-3.7105,-3.7105,-3.7145,-3.7185,-3.7298,-3.7373,-3.7429,-3.7576,-3.7595,-3.7595,-3.7595,-3.7595,-3.7523,-3.7238,-3.6756,-3.6078,-3.5025,-3.442,-3.4008,-3.3723,-3.3239,-3.29,-3.29,-3.29,-3.29,-3.29,-3.265,-3.2472,-3.2472,-3.1742,-3.1064,-3.0532,-3.0761,-3.0939,-3.0939,-3.1671,-3.2364,-3.2882,-3.29,-3.29,-3.29,-3.2916,-3.307,-3.3353,-3.416,-3.4373,-3.4043,-3.4948,-3.5437,-1.3398,-1.5288,-1.7366,-1.8614,-1.9303,-2.005,-2.1578,-2.2147,-2.2974,-2.5281,-2.5954,-2.6575,-2.8092,-2.8352,-2.861,-2.9386,-2.9506,-2.9506,0.0,0.0,0.0,0.0,0.0,0.0,0.0,0.0,0.0,0.0,0.0,0.0,-3.0714,-2.9937,-2.9868,-3.0662,-3.0938,-3.13,-3.18,-3.18,-3.18,-3.18,-3.18,-3.18,-3.18,-3.18,-3.18,-3.18,-3.18,-3.18,-3.18,-3.18,-3.1838,-3.1964,-3.2539,-3.2839,-3.3157,-3.4753,-3.5332,-3.5489,-3.6521,-3.6888,-3.6888,-3.6888,-3.6888,-3.6888,-3.6888,-3.695,-3.7029,-3.7163,-3.7241,-3.7318,-3.7448,-3.7503,-3.754,-3.754,-3.7576,-3.7595,-3.7595,-3.7166,-3.656,-3.5757,-3.5221,-3.4704,-3.4204,-3.3651,-3.3221,-3.2936,-3.29,-3.29,-3.29,-3.29,-3.2793,-3.2525,-3.2025,-3.1367,-3.0582,-3.0496,-3.0618,-3.0886,-3.1403,-3.2061,-3.2864,-3.29,-3.29,-3.29,-3.29,-3.293,-3.3042,-3.4132,-3.4619,-3.4578,-3.5281,-3.5728,0.0,0.0,0.0,-1.7555,-1.8114,-1.851,-1.9964,-2.0923,-2.1716,-2.2509,-2.325,-2.425,-2.5801,-2.6094,-2.6818,-2.9075,-2.9437,-2.9437,0.0,0.0,0.0,0.0,0.0,0.0,0.0,0.0,0.0,0.0,-3.1041,-3.0645,-3.0645,-2.9886,-2.9834,-3.061,-3.1334,-3.1731,-3.1731,-3.1765,-3.1765,-3.1765,-3.1783,-3.18,-3.18,-3.18,-3.18,-3.18,-3.18,-3.18,-3.18,-3.18,-3.1838,-3.1894,-3.1894,-3.1984,-3.2282,-3.3813,-3.4387,-3.4613,-3.6162,-3.6681,-3.6681,-3.6681,-3.6681,-3.6681,-3.6681,-3.6745,-3.6829,-3.6948,-3.7048,-3.7127,-3.7259,-3.7353,-3.7411,-3.7411,-3.7503,-3.7595,-3.7595,-3.7595,-3.7381,-3.6577,-3.6417,-3.5917,-3.4401,-3.4099,-3.383,-3.3025,-3.29,-3.29,-3.29,-3.29,-3.2596,-3.1813,-3.174,-3.1403,-3.06,-3.0547,-3.0868,-3.1653,-3.1689,-3.2061,-3.2864,-3.29,-3.29,-3.29,-3.29,-3.2918,-3.2936,-3.3928,-3.4984,-3.6032,-3.5636,-3.571,-1.2742,0.0,0.0,0.0,0.0,0.0,-1.7725,-1.8551,-1.9665,-2.1509,-2.2492,-2.3646,-2.5715,-2.6094,-2.6506,-2.7713,-2.7902,-2.7902,0.0,0.0,0.0,0.0,0.0,0.0,0.0,0.0,0.0,0.0,-2.9455,-2.9041,-2.9041,-2.8834,-2.8816,-2.9023,-2.9748,-3.0144,-3.0144,-3.0713,-3.0989,-3.1007,-3.1541,-3.18,-3.18,-3.18,-3.18,-3.18,-3.18,-3.18,-3.18,-3.18,-3.1818,-3.1819,-3.1819,-3.1838,-3.2065,-3.3604,-3.4174,-3.4399,-3.5904,-3.6423,-3.6423,-3.6423,-3.6423,-3.6423,-3.6423,-3.6485,-3.6606,-3.6745,-3.6829,-3.693,-3.7126,-3.7241,-3.7353,-3.7392,-3.7503,-3.7595,-3.7595,-3.7595,-3.7541,-3.7309,-3.6792,-3.6078,-3.5062,-3.4454,-3.383,-3.3025,-3.29,-3.29,-3.29,-3.29,-3.2811,-3.2596,-3.2579,-3.2239,-3.1439,-3.1367,-3.1457,-3.1689,-3.1689,-3.2061,-3.2864,-3.29,-3.29,-3.29,-3.29,-3.3186,-3.3776,-3.4676,-3.5053,-3.4978,-3.5896,-3.6888,-1.3917,-1.458,-1.5253,-1.5253,0.0,0.0,-1.645,-1.7139,-1.8166,0.0,-2.0768,-2.1975,-2.4267,-2.4681,-2.5042,-2.6161,-2.6333,-2.6575,0.0,0.0,0.0,0.0,0.0,0.0,0.0,-2.9506,-2.9506,-2.9506,-2.8816,-2.8265,-2.7954,-2.823,-2.8403,-2.8403,-2.9127,-2.9506,-2.9506,-3.03,-3.0714,-3.0714,-3.1438,-3.18,-3.18,-3.18,-3.18,-3.18,-3.18,-3.18,-3.18,-3.18,-3.18,-3.18,-3.18,-3.18,-3.1955,-3.3145,-3.38,-3.4268,-3.5439,-3.6042,-3.6301,-3.6301,-3.6301,-3.6301,-3.6301,-3.6402,-3.6523,-3.6602,-3.6684,-3.6788,-3.695,-3.7068,-3.7201,-3.7242,-3.7373,-3.7466,-3.7466,-3.7254,-3.7059,-3.7095,-3.672,-3.6042,-3.4936,-3.4366,-3.383,-3.3025,-3.29,-3.29,-3.29,-3.29,-3.29,-3.29,-3.29,-3.2704,-3.2239,-3.1885,-3.1831,-3.2186,-3.1885,-3.2061,-3.2864,-3.29,-3.29,-3.29,-3.29,-3.3453,-3.4544,-3.5076,-3.5241,-3.5105,-3.6397,-3.7104,-1.6002,-1.5968,-1.5899,-1.5899,-1.583,0.0,-1.5658,-1.6226,-1.6984,0.0,-1.8597,-1.9855,-2.2044,-2.2526,-2.3043,-2.4505,-2.4747,-2.5281,0.0,0.0,0.0,0.0,0.0,0.0,-2.9058,-2.9127,-2.9161,-2.9248,-2.8661,-2.7989,-2.7333,-2.792,-2.8282,-2.8282,-2.892,-2.9265,-2.9265,-3.0041,-3.0437,-3.0437,-3.1282,-3.1679,-3.1679,-3.1765,-3.18,-3.18,-3.18,-3.18,-3.18,-3.18,-3.18,-3.18,-3.18,-3.18,-3.1886,-3.2628,-3.3352,-3.4076,-3.4904,-3.5628,-3.6197,-3.6266,-3.6301,-3.6301,-3.6301,-3.6381,-3.6482,-3.6482,-3.6564,-3.6664,-3.6748,-3.6869,-3.697,-3.705,-3.7164,-3.7241,-3.7171,-3.6698,-3.6239,-3.6132,-3.6203,-3.581,-3.4365,-3.4115,-3.383,-3.3025,-3.29,-3.29,-3.29,-3.29,-3.29,-3.29,-3.29,-3.29,-3.29,-3.2239,-3.215,-3.2846,-3.2239,-3.215,-3.2864,-3.29,-3.29,-3.29,-3.29,-3.3632,-3.5096,-3.5096,-3.5401,-3.6027,-3.6753,-3.6611,-1.6622,-1.6347,-1.5899,-1.5899,-1.5452,0.0,-1.4201,-1.465,-1.5443,0.0,-1.7459,-1.8907,-2.0549,-2.1389,-2.2108,-2.2992,-2.3147,-2.3681,0.0,0.0,0.0,0.0,0.0,0.0,-2.6695,-2.6749,-2.704,-2.7678,-2.7592,-2.7437,-2.7315,-2.7453,-2.7506,-2.7506,-2.7644,-2.773,-2.773,-2.8472,-2.8851,-2.8868,-3.0248,-3.0903,-3.092,-3.1524,-3.18,-3.18,-3.18,-3.18,-3.18,-3.18,-3.18,-3.18,-3.18,-3.18,-3.1886,-3.2628,-3.3007,-3.3335,-3.4714,-3.5283,-3.5508,-3.6111,-3.6301,-3.6301,-3.6301,-3.6322,-3.6343,-3.6343,-3.6343,-3.6402,-3.6544,-3.6664,-3.6786,-3.6831,-3.695,-3.6909,-3.637,-3.6198,-3.5793,-3.4621,-3.4956,-3.515,-3.4258,-3.4115,-3.383,-3.3025,-3.29,-3.29,-3.29,-3.29,-3.29,-3.29,-3.29,-3.29,-3.29,-3.2757,-3.2721,-3.2882,-3.2757,-3.2739,-3.2882,-3.29,-3.29,-3.29,-3.29,-3.3382,-3.4295,-3.4378,-3.5153,-3.6589,-3.5605,-3.5495,-1.7906,-1.7563,-1.6902,-1.6505,-1.5844,0.0,0.0,-1.4779,-1.5502,-1.6249,-1.7312,-1.8441,-1.9556,-2.007,-2.0597,-2.1382,-2.1502,-2.1777,-2.255,0.0,0.0,0.0,0.0,0.0,-2.6025,-2.6094,-2.6437,-2.723,-2.7299,-2.7299,-2.7299,-2.7299,-2.7299,-2.7299,-2.7299,-2.7299,-2.7299,-2.8023,-2.8403,-2.842,-2.9955,-3.0714,-3.0731,-3.1455,-3.18,-3.18,-3.18,-3.18,-3.18,-3.18,-3.18,-3.18,-3.18,-3.18,-3.1834,-3.2214,-3.2576,-3.3007,-3.3783,-3.4559,-3.5249,-3.5628,-3.6008,-3.6301,-3.6301,-3.6301,-3.6301,-3.6301,-3.6301,-3.6322,-3.6482,-3.6544,-3.6623,-3.6725,-3.6492,-3.6186,-3.5897,-3.5308,-3.4588,-3.3934,-3.386,-3.3819,-3.3546,-3.3491,-3.3364,-3.2953,-3.29,-3.29,-3.29,-3.29,-3.29,-3.29,-3.29,-3.29,-3.29,-3.29,-3.29,-3.29,-3.29,-3.29,-3.29,-3.2507,-3.2311,-3.2311,-3.2704,-3.3311,-3.4115,-3.413,-3.4639,-3.5539,-3.479,-3.4594,-1.9401,-1.8939,-1.8082,-1.726,0.0,-1.5772,0.0,0.0,0.0,0.0,0.0,0.0,0.0,0.0,0.0,0.0,0.0,0.0,0.0,0.0,0.0,0.0,0.0,0.0,0.0,-2.556,-2.599,-2.6799,-2.6713,-2.6695,-2.6851,-2.6988,-2.7057,-2.7057,-2.7213,-2.7299,-2.7299,-2.7885,-2.8178,-2.8196,-2.9592,-3.0248,-3.0282,-3.1179,-3.1576,-3.1593,-3.1731,-3.18,-3.18,-3.18,-3.18,-3.18,-3.18,-3.18,-3.18,-3.18,-3.2179,-3.2714,-3.2852,-3.3714,-3.48,-3.5094,-3.5697,-3.6301,-3.6301,-3.6301,-3.6301,-3.6301,-3.6301,-3.6322,-3.6423,-3.6444,-3.6447,-3.6429,-3.5911,-3.5392,-3.5231,-3.426,-3.3441,-3.3424,-3.2947,-3.2606,-3.2802,-3.2868,-3.2868,-3.2852,-3.2868,-3.2868,-3.2852,-3.2868,-3.2868,-3.2834,-3.2852,-3.2852,-3.2852,-3.2852,-3.2852,-3.2852,-3.2852,-3.2852,-3.2852,-3.2228,-3.1923,-3.192,-3.2579,-3.3221,-3.3865,-3.3865,-3.4074,-3.4473,-3.4329,-3.4027,-2.0811,0.0,0.0,0.0,-1.7194,0.0,0.0,0.0,-1.5627,-1.5643,0.0,0.0,0.0,0.0,0.0,0.0,0.0,0.0,-1.7001,-1.7856,0.0,0.0,0.0,0.0,0.0,-2.3681,-2.4388,-2.5212,-2.4594,-2.4508,-2.5229,-2.5885,-2.6247,-2.6247,-2.6919,-2.7299,-2.7299,-2.7385,-2.742,-2.742,-2.8265,-2.8661,-2.8713,-3.0162,-3.0817,-3.0851,-3.1524,-3.18,-3.18,-3.18,-3.18,-3.18,-3.18,-3.18,-3.18,-3.18,-3.1852,-3.2024,-3.2679,-3.3007,-3.3386,-3.4749,-3.5697,-3.6301,-3.6301,-3.6301,-3.6301,-3.6301,-3.6301,-3.6301,-3.6322,-3.6322,-3.6149,-3.5514,-3.5307,-3.4915,-3.3663,-3.3325,-3.305,-3.2476,-3.2354,-3.2403,-3.2606,-3.2739,-3.2773,-3.2655,-3.2739,-3.2773,-3.2655,-3.2739,-3.2773,-3.2655,-3.2639,-3.2639,-3.2639,-3.2639,-3.2639,-3.2639,-3.2639,-3.2639,-3.2639,-3.265,-3.2695,-3.2757,-3.2846,-3.2936,-3.3043,-3.3043,-3.3757,-3.5078,-3.4417,-3.4077,0.0,0.0,0.0,0.0,0.0,0.0,-1.5295,0.0,-1.5664,0.0,0.0,0.0,0.0,0.0,0.0,0.0,-1.6343,0.0,0.0,0.0,-1.7175,0.0,0.0,0.0,0.0,0.0,0.0,0.0,0.0,-2.3509,-2.4267,-2.5439,-2.6094,-2.6094,-2.6885,-2.7299,-2.7299,-2.7299,-2.7299,-2.7315,-2.804,-2.8403,-2.8454,-3.0006,-3.0714,-3.0748,-3.1472,-3.18,-3.18,-3.18,-3.18,-3.18,-3.18,-3.18,-3.18,-3.18,-3.18,-3.1834,-3.2145,-3.2541,-3.3076,-3.4197,-3.4766,-3.5094,-3.5525,-3.5604,-3.5648,-3.6159,-3.6259,-3.6255,-3.628,-3.6276,-3.6061,-3.5322,-3.473,-3.4071,-3.3124,-3.2595,-3.22,-3.2016,-3.1983,-3.2037,-3.2109,-3.2438,-3.2655,-3.2606,-3.2639,-3.2655,-3.2606,-3.2639,-3.2657,-3.2557,-3.2472,-3.2421,-3.237,-3.2404,-3.2421,-3.237,-3.237,-3.2176,-3.1751,-3.2309,-3.2493,-3.2206,-3.2668,-3.29,-3.29,-3.29,-3.3239,-3.3847,-3.3544,-3.3384,-2.0094,0.0,0.0,0.0,0.0,0.0,0.0,0.0,0.0,0.0,0.0,0.0,0.0,0.0,0.0,-1.617,0.0,-1.5456,0.0,0.0,0.0,0.0,0.0,0.0,0.0,0.0,0.0,0.0,0.0,0.0,-2.3147,-2.4853,-2.5801,-2.5801,-2.6782,-2.7299,-2.7299,-2.7266,-2.7266,-2.7315,-2.7817,-2.8059,-2.8144,-2.9455,-3.0179,-3.0403,-3.1126,-3.1556,-3.1727,-3.1726,-3.1726,-3.1726,-3.1726,-3.1726,-3.1726,-3.1781,-3.18,-3.18,-3.18,-3.2283,-3.3007,-3.3576,-3.3923,-3.418,-3.4694,-3.4864,-3.5039,-3.5689,-3.5972,-3.6101,-3.6148,-3.5972,-3.5604,-3.4808,-3.3915,-3.305,-3.2397,-3.1784,-3.1411,-3.1504,-3.1523,-3.1542,-3.156,-3.2056,-3.2438,-3.2387,-3.2438,-3.2438,-3.2387,-3.2438,-3.2404,-3.2284,-3.2162,-3.2073,-3.2002,-3.2073,-3.2109,-3.209,-3.2055,-3.1812,-3.1306,-3.2003,-3.2225,-3.1868,-3.2453,-3.2737,-3.2737,-3.2753,-3.2804,-3.2818,-3.2884,-3.2775,0.0,0.0,0.0,-1.6306,0.0,0.0,0.0,0.0,-1.6322,0.0,0.0,0.0,0.0,0.0,-1.7223,-1.5836,-1.507,0.0,0.0,0.0,0.0,0.0,0.0,0.0,0.0,0.0,0.0,0.0,0.0,0.0,-2.1578,-2.3815,-2.504,-2.504,-2.6506,-2.7299,-2.7299,-2.7168,-2.7168,-2.7299,-2.7185,-2.7202,-2.7351,-2.8127,-2.8868,-2.9575,-3.0262,-3.0946,-3.1598,-3.1538,-3.1517,-3.1517,-3.1517,-3.1517,-3.1536,-3.1726,-3.18,-3.18,-3.18,-3.2283,-3.2904,-3.2938,-3.3455,-3.4093,-3.3974,-3.4271,-3.4627,-3.4734,-3.5244,-3.5805,-3.5817,-3.5278,-3.4534,-3.366,-3.2744,-3.1838,-3.1046,-3.0841,-3.0825,-3.0845,-3.0845,-3.0865,-3.1004,-3.1618,-3.2037,-3.1838,-3.1983,-3.2054,-3.1855,-3.2,-3.2001,-3.1654,-3.1637,-3.16,-3.1523,-3.1564,-3.1674,-3.1801,-3.169,-3.1673,-3.1766,-3.1984,-3.2161,-3.2283,-3.2318,-3.2318,-3.2318,-3.2456,-3.2557,-3.2605,-3.2802,-3.2489,0.0,0.0,-1.8323,-1.7327,0.0,0.0,0.0,0.0,0.0,0.0,0.0,0.0,0.0,-1.7982,-1.7058,-1.5694,-1.4907,-1.3993,0.0,0.0,0.0,0.0,0.0,0.0,0.0,0.0,0.0,0.0,-1.8887,0.0,0.0,-2.3447,-2.5005,-2.5005,-2.6488,-2.7266,-2.7168,-2.6989,-2.694,-2.7041,-2.694,-2.6973,-2.7123,-2.8009,-2.8507,-2.8767,-2.9844,-3.0382,-3.0581,-3.0898,-3.1041,-3.1041,-3.1041,-3.1041,-3.1081,-3.1445,-3.1612,-3.1612,-3.1612,-3.1766,-3.1972,-3.1972,-3.216,-3.2535,-3.3329,-3.3622,-3.3862,-3.4768,-3.5268,-3.5498,-3.5424,-3.4953,-3.4255,-3.3302,-3.2376,-3.1536,-3.0763,-3.0597,-3.0597,-3.0597,-3.0597,-3.0613,-3.0675,-3.0958,-3.1215,-3.1315,-3.1393,-3.1413,-3.1353,-3.1411,-3.1391,-3.1218,-3.1123,-3.1044,-3.0995,-3.0998,-3.1081,-3.1257,-3.1142,-3.1142,-3.1334,-3.1487,-3.1674,-3.1895,-3.1913,-3.1913,-3.1913,-3.2038,-3.1934,-3.1611,-3.1762,-3.1799,-1.9798,-1.928,0.0,-1.7768,-1.6841,0.0,-1.6082,0.0,0.0,0.0,0.0,0.0,0.0,0.0,-1.7246,-1.5896,-1.4928,-1.3852,0.0,-1.2903,0.0,0.0,0.0,-1.7187,0.0,0.0,-1.7242,-1.7602,-1.8217,-1.9091,0.0,0.0,-2.4287,-2.456,-2.6044,-2.6805,-2.6708,-2.6738,-2.6792,-2.6842,-2.6758,-2.6792,-2.6909,-2.7585,-2.7978,-2.8169,-2.9236,-2.9749,-2.9885,-3.0463,-3.0683,-3.0683,-3.0683,-3.0683,-3.074,-3.1117,-3.1252,-3.1252,-3.1252,-3.1252,-3.1252,-3.1252,-3.1252,-3.1433,-3.2487,-3.2868,-3.3206,-3.4299,-3.4878,-3.5125,-3.5055,-3.4368,-3.3562,-3.2879,-3.1825,-3.0876,-3.0394,-3.0274,-3.0274,-3.0274,-3.0274,-3.0274,-3.0274,-3.0359,-3.051,-3.0841,-3.0942,-3.0942,-3.0885,-3.0942,-3.0922,-3.0801,-3.0683,-3.0601,-3.0572,-3.0547,-3.0593,-3.0801,-3.072,-3.074,-3.0865,-3.1021,-3.1179,-3.1376,-3.1376,-3.1376,-3.1376,-3.1545,-3.137,-3.0889,-3.0763,-3.0714]},{"header":{"parameterUnit":"m.s-1","parameterCategory":1,"la1":30.6,"la2":29.2853,"lo1":-89.7004,"lo2":-87.6739,"dy":0.0162,"dx":0.0183,"nx":112,"ny":82,"refTime":"2026-03-23T12:00:00:Z","depth":0,"parameterNumber":3,"parameterNumberName":"V-component_of_WINDS"},"data":[0.0,0.0,0.0,0.0,0.0,0.0,0.0,0.0,0.0,0.0,0.0,0.0,0.0,0.0,0.0,0.0,0.0,0.0,0.0,0.0,0.0,0.0,0.0,0.0,0.0,0.0,0.0,0.0,0.0,0.0,0.0,0.0,0.0,0.0,0.0,0.0,0.0,0.0,0.0,0.0,0.0,0.0,0.0,0.0,0.0,0.0,0.0,0.0,0.0,0.0,0.0,0.0,0.0,0.0,0.0,0.0,0.0,0.0,0.0,0.0,0.0,0.0,0.0,0.0,0.0,0.0,0.0,0.0,0.0,0.0,0.0,0.0,0.0,0.0,0.0,0.0,0.0,0.0,0.0,0.0,0.0,0.0,0.0,0.0,0.0,0.0,0.0,0.0,0.0,0.0,-0.1484,-0.1441,-0.1394,-0.142,-0.1493,-0.1477,-0.1575,-0.1819,0.0,0.0,0.0,0.0,0.0,0.0,0.0,0.0,0.0,0.0,0.0,0.0,0.0,0.0,0.0,0.0,0.0,0.0,0.0,0.0,0.0,0.0,0.0,0.0,0.0,0.0,0.0,0.0,0.0,0.0,0.0,0.0,0.0,0.0,0.0,0.0,0.0,0.0,0.0,0.0,0.0,0.0,0.0,0.0,0.0,0.0,0.0,0.0,0.0,0.0,0.0,0.0,0.0,0.0,0.0,0.0,0.0,0.0,0.0,0.0,0.0,0.0,0.0,0.0,0.0,0.0,0.0,0.0,0.0,0.0,0.0,0.0,0.0,0.0,0.0,0.0,0.0,0.0,0.0,0.0,0.0,0.0,0.0,0.0,0.0,0.0,0.0,0.0,0.0,0.0,0.0,0.0,0.0,0.0,0.0,0.0,0.0,0.0,0.0,0.0,0.0,0.0,0.0,0.0,-0.1541,-0.1654,-0.1683,-0.1675,-0.1523,-0.1384,-0.1383,-0.146,0.0,0.0,0.0,0.0,0.0,0.0,0.0,0.0,0.0,0.0,0.0,0.0,0.0,0.0,0.0,0.0,0.0,0.0,0.0,0.0,0.0,0.0,0.0,0.0,0.0,0.0,0.0,0.0,0.0,0.0,0.0,0.0,0.0,0.0,0.0,0.0,0.0,0.0,0.0,0.0,0.0,0.0,0.0,0.0,0.0,0.0,0.0,0.0,0.0,0.0,0.0,0.0,0.0,0.0,0.0,0.0,0.0,0.0,0.0,0.0,0.0,0.0,0.0,0.0,0.0,0.0,0.0,0.0,0.0,0.0,0.0,0.0,0.0,0.0,0.0,0.0,0.0,0.0,0.0,0.0,0.0,0.0,0.0,0.0,0.0,0.0,0.0,0.0,0.0,0.0,0.0,0.0,0.0,0.0,0.0,0.0,0.0,0.0,0.0,0.0,0.0,0.0,0.0,-0.1468,-0.1679,-0.1841,-0.1941,-0.1947,-0.1781,-0.1538,-0.1455,-0.1555,-0.1651,0.0,0.0,0.0,0.0,0.0,0.0,0.0,0.0,0.0,0.0,0.0,0.0,0.0,0.0,0.0,0.0,0.0,0.0,0.0,0.0,0.0,0.0,0.0,0.0,0.0,0.0,0.0,0.0,0.0,0.0,0.0,0.0,0.0,0.0,0.0,0.0,0.0,0.0,0.0,0.0,0.0,0.0,0.0,0.0,0.0,0.0,0.0,0.0,0.0,0.0,0.0,0.0,0.0,0.0,0.0,0.0,0.0,0.0,0.0,0.0,0.0,0.0,0.0,0.0,0.0,0.0,0.0,0.0,0.0,0.0,0.0,0.0,0.0,0.0,0.0,0.0,0.0,0.0,0.0,0.0,0.0,0.0,0.0,0.0,0.0,0.0,0.0,0.0,0.0,0.0,0.0,0.0,0.0,0.0,0.0,0.0,0.0,0.0,0.0,0.0,0.0,0.0,-0.1564,-0.179,-0.2029,-0.2212,-0.2233,-0.2075,-0.174,-0.1566,-0.1643,-0.1407,0.0,0.0,0.0,0.0,0.0,0.0,0.0,0.0,0.0,0.0,0.0,0.0,0.0,0.0,0.0,0.0,0.0,0.0,0.0,0.0,0.0,0.0,0.0,0.0,0.0,0.0,0.0,0.0,0.0,0.0,0.0,0.0,0.0,0.0,0.0,0.0,0.0,0.0,0.0,0.0,0.0,0.0,0.0,0.0,0.0,0.0,0.0,0.0,0.0,0.0,0.0,0.0,0.0,0.0,0.0,0.0,0.0,0.0,0.0,0.0,0.0,0.0,0.0,0.0,0.0,0.0,0.0,0.0,0.0,0.0,0.0,0.0,0.0,0.0,0.0,0.0,0.0,0.0,0.0,0.0,0.0,0.0,0.0,0.0,0.0,0.0,0.0,0.0,0.0,0.0,0.0,0.0,0.0,0.0,0.0,0.0,0.0,0.0,0.0,0.0,0.0,0.0,-0.154,-0.1816,-0.214,-0.2465,-0.2544,-0.222,-0.1874,-0.1641,-0.1526,-0.1266,0.0,0.0,0.0,0.0,0.0,0.0,0.0,0.0,0.0,0.0,0.0,0.0,0.0,0.0,0.0,0.0,0.0,0.0,0.0,0.0,0.0,0.0,0.0,0.0,0.0,0.0,0.0,0.0,0.0,0.0,0.0,0.0,0.0,0.0,0.0,0.0,0.0,0.0,0.0,0.0,0.0,0.0,0.0,0.0,0.0,0.0,0.0,0.0,0.0,0.0,0.0,0.0,0.0,0.0,0.0,0.0,0.0,0.0,0.0,0.0,0.0,0.0,0.0,0.0,0.0,0.0,0.0,0.0,0.0,0.0,0.0,0.0,0.0,0.0,0.0,0.0,0.0,0.0,0.0,0.0,0.0,0.0,0.0,0.0,0.0,0.0,0.0,0.0,0.0,0.0,0.0,0.0,0.0,0.0,0.0,0.0,0.0,0.0,0.0,0.0,0.0,0.0,-0.1467,-0.1713,-0.2029,-0.2268,-0.2294,-0.203,-0.1757,-0.1559,-0.1501,0.0,0.0,0.0,0.0,0.0,0.0,0.0,0.0,0.0,0.0,0.0,0.0,0.0,0.0,0.0,0.0,0.0,0.0,0.0,0.0,0.0,0.0,0.0,0.0,0.0,0.0,0.0,0.0,0.0,0.0,0.0,0.0,0.0,0.0,0.0,0.0,0.0,0.0,0.0,0.0,0.0,0.0,0.0,0.0,0.0,0.0,0.0,0.0,0.0,0.0,0.0,0.0,0.0,0.0,0.0,0.0,0.0,0.0,0.0,0.0,0.0,0.0,0.0,0.0,0.0,0.0,0.0,0.0,0.0,0.0,0.0,0.0,0.0,0.0,0.0,0.0,0.0,0.0,0.0,0.0,0.0,0.0,0.0,0.0,0.0,0.0,0.0,0.0,0.0,0.0,0.0,0.0,0.0,0.0,0.0,0.0,0.0,0.0,0.0,0.0,0.0,0.0,-0.1119,-0.1337,-0.1549,-0.1808,-0.1975,-0.198,-0.1763,-0.1545,-0.1391,-0.1368,0.0,0.0,0.0,0.0,0.0,0.0,0.0,0.0,0.0,0.0,0.0,0.0,0.0,0.0,0.0,0.0,0.0,0.0,0.0,0.0,0.0,0.0,0.0,0.0,0.0,0.0,0.0,0.0,0.0,0.0,0.0,0.0,0.0,0.0,0.0,0.0,0.0,0.0,0.0,0.0,0.0,0.0,0.0,0.0,0.0,0.0,0.0,0.0,0.0,0.0,0.0,0.0,0.0,0.0,0.0,0.0,0.0,0.0,0.0,0.0,0.0,0.0,0.0,0.0,0.0,0.0,0.0,0.0,0.0,0.0,0.0,0.0,0.0,0.0,0.0,0.0,0.0,0.0,0.0,0.0,0.0,0.0,0.0,0.0,0.0,0.0,0.0,0.0,0.0,0.0,0.0,0.0,0.0,0.0,0.0,0.0,0.0,0.0,0.0,0.0,0.0,0.0,-0.0869,-0.1127,-0.1357,-0.1487,-0.1674,-0.1688,-0.1421,-0.1267,-0.1177,0.0,0.0,0.0,0.0,0.0,0.0,0.0,0.0,0.0,0.0,0.0,0.0,0.0,0.0,0.0,0.0,0.0,0.0,0.0,0.0,0.0,0.0,0.0,0.0,0.0,0.0,0.0,0.0,0.0,0.0,0.0,0.0,0.0,0.0,0.0,0.0,0.0,0.0,0.0,0.0,0.0,0.0,0.0,0.0,0.0,0.0,0.0,0.0,0.0,0.0,0.0,0.0,0.0,0.0,0.0,0.0,0.0,0.0,0.0,0.0,0.0,0.0,0.0,0.0,0.0,0.0,0.0,0.0,0.0,0.0,0.0,0.0,0.0,0.0,0.0,0.0,0.0,0.0,0.0,0.0,0.0,0.0,0.0,0.0,0.0,0.0,0.0,0.0,0.0,0.0,0.0,0.0,0.0,0.0,0.0,0.0,0.0,0.0,0.0,0.0,0.0,0.0,0.0,-0.0869,-0.101,-0.1151,-0.1328,-0.1401,-0.139,-0.1269,-0.1148,-0.1074,-0.1094,0.0,0.0,0.0,0.0,0.0,0.0,0.0,0.0,0.0,0.0,0.0,0.0,0.0,0.0,0.0,0.0,0.0,0.0,0.0,0.0,0.0,0.0,0.0,0.0,0.0,0.0,0.0,0.0,0.0,0.0,0.0,0.0,0.0,0.0,0.0,0.0,0.0,0.0,0.0,0.0,0.0,0.0,0.0,0.0,0.0,0.0,0.0,0.0,0.0,0.0,0.0,0.0,0.0,0.0,0.0,0.0,0.0,0.0,0.0,0.0,0.0,0.0,0.0,0.0,0.0,0.0,0.0,0.0,0.0,0.0,0.0,0.0,0.0,0.0,0.0,0.0,0.0,0.0,0.0,0.0,0.0,0.0,0.0,0.0,0.0,0.0,0.0,0.0,0.0,0.0,0.0,0.0,0.0,0.0,0.0,0.0,0.0,0.0,0.0,0.0,0.0,0.0,-0.0746,-0.0861,-0.0966,-0.1092,-0.1118,-0.1119,-0.1041,-0.0958,-0.0945,-0.1014,0.0,0.0,0.0,0.0,0.0,0.0,0.0,0.0,0.0,0.0,0.0,0.0,0.0,0.0,0.0,0.0,0.0,0.0,0.0,0.0,0.0,0.0,0.0,0.0,0.0,0.0,0.0,0.0,0.0,0.0,0.0,0.0,0.0,0.0,0.0,0.0,0.0,0.0,0.0,0.0,0.0,0.0,0.0,0.0,0.0,0.0,0.0,0.0,0.0,0.0,0.0,0.0,0.0,0.0,0.0,0.0,0.0,0.0,0.0,0.0,0.0,0.0,0.0,0.0,0.0,0.0,0.0,0.0,0.0,0.0,0.0,0.0,0.0,0.0,0.0,0.0,0.0,0.0,0.0,0.0,0.0,0.0,0.0,0.0,0.0,0.0,0.0,0.0,0.0,0.0,0.0,0.0,0.0,0.0,0.0,0.0,0.0,0.0,0.0,0.0,0.0,0.0,-0.0582,-0.071,-0.0806,-0.0806,-0.0861,-0.0872,-0.0812,-0.0806,-0.0827,-0.0895,0.0,0.0,0.0,0.0,0.0,0.0,0.0,0.0,0.0,0.0,0.0,0.0,0.0,0.0,0.0,0.0,0.0,0.0,0.0,0.0,0.0,0.0,0.0,0.0,0.0,0.0,0.0,0.0,0.0,0.0,0.0,0.0,0.0,0.0,0.0,0.0,0.0,0.0,0.0,0.0,0.0,0.0,0.0,0.0,0.0,0.0,0.0,0.0,0.0,0.0,0.0,0.0,0.0,0.0,0.0,0.0,0.0,0.0,0.0,0.0,0.3514,0.0,0.0,0.0,0.0,0.0,0.0,0.0,0.0,0.0,0.0,0.0,0.0,0.0,0.0,0.0,0.0,0.0,0.0,0.0,0.0,0.0,0.0,0.0,0.0,0.0,0.0,0.0,0.0,0.0,0.0,0.0,0.0,0.0,0.0,0.0,0.0,0.0,0.0,0.0,0.0,0.0,-0.0582,-0.071,-0.0806,-0.0806,-0.0861,-0.0872,-0.0812,-0.0806,-0.0827,-0.0895,-0.0891,0.0,0.0,0.0,0.0,0.0,0.0,0.0,0.0,0.0,0.0,0.0,0.0,0.0,0.0,0.0,0.0,0.0,0.0,0.0,0.0,0.0,0.0,0.0,0.0,0.0,0.0,0.0,0.0,0.0,0.0,0.0,0.0,0.0,0.0,0.0,0.0,0.0,0.0,0.0,0.0,0.0,0.0,0.0,0.0,0.0,0.0,0.0,0.0,0.0,0.0,0.0,0.0,0.0,0.0,0.0,0.0,0.0,0.0,0.0,0.0,0.4193,0.0,0.0,0.0,0.0,0.0,0.0,0.0,0.0,0.0,0.0,0.0,0.0,0.0,0.0,0.0,0.0,0.0,0.0,0.0,0.0,0.0,0.0,0.0,0.0,0.0,0.0,0.0,0.0,0.0,0.0,0.0,0.0,0.0,0.0,0.0,0.0,0.0,0.0,0.0,0.0,-0.0641,-0.0742,-0.0813,-0.0853,-0.087,-0.0872,-0.0812,-0.0806,-0.081,-0.0842,-0.0855,0.0,0.0,0.0,0.0,0.0,0.0,0.0,0.0,0.0,0.0,0.0,0.0,0.0,0.0,0.0,0.0,0.0,0.0,0.0,0.0,0.0,0.0,0.0,0.0,0.0,0.0,0.0,0.0,0.0,0.0,0.0,0.0,0.0,0.0,0.0,0.0,0.0,0.0,0.0,0.0,0.0,0.0,0.0,0.0,0.0,0.0,0.0,0.0,0.0,0.0,0.0,0.0,0.0,0.5936,0.6113,0.6306,0.6306,0.6457,0.6671,0.5785,0.5438,0.5462,0.5062,0.0,0.0,0.0,0.0,0.0,0.0,0.0,0.0,0.0,0.0,0.0,0.0,0.0,0.0,0.0,0.0,0.0,0.0,0.0,0.0,0.0,0.0,0.0,0.0,0.2577,0.2274,0.0,0.0,0.0,0.0,0.0,0.0,0.0,0.0,0.0,0.0,0.0,0.0,-0.0649,-0.0732,-0.0792,-0.0902,-0.0907,-0.0872,-0.0812,-0.0806,-0.0793,-0.0807,-0.0803,-0.0839,0.0,0.0,0.0,0.0,0.0,0.0,0.0,0.0,0.0,0.0,0.0,0.0,0.0,0.0,0.0,0.0,0.0,0.0,0.0,0.0,0.0,0.0,0.0,0.0,0.0,0.0,0.0,0.0,0.0,0.0,0.0,0.0,0.3342,0.3007,0.0,0.0,0.0,0.0,0.0,0.0,0.0,0.0,0.0,0.0,0.0,0.0,0.0,0.5339,0.5687,0.6185,0.6573,0.6882,0.6911,0.7132,0.7463,0.7463,0.7664,0.7948,0.781,0.0,0.657,0.622,0.0,0.0,0.0,0.0,0.0,0.0,0.0,0.0,0.0,0.0,0.0,0.0,0.0,0.0,0.0,0.0,0.0,0.0,0.0,0.0,0.0,0.0,0.371,0.3368,0.306,0.2728,0.0,0.1866,0.1439,0.1365,0.1241,0.0,0.0,0.0,0.0,0.0,0.0,0.0,-0.0504,-0.0576,-0.069,-0.0875,-0.0907,-0.0872,-0.0812,-0.0806,-0.0793,-0.0807,-0.0792,-0.0855,-0.0978,-0.0929,0.0,0.0,0.0,0.0,0.0,0.0,0.0,0.0,0.0,0.0,0.0,0.0,0.0,0.0,0.0,0.0,0.0,0.0,0.0,0.0,0.0,0.0,0.0,0.0,0.0,0.0,0.0,0.0,0.0,0.3937,0.3935,0.3758,0.3653,0.353,0.0,0.0,0.0,0.0,0.0,0.0,0.0,0.0,0.0,0.564,0.6109,0.6543,0.6913,0.7495,0.7965,0.8326,0.8438,0.8586,0.8752,0.8752,0.8769,0.882,0.882,0.8579,0.8161,0.74,0.6881,0.6435,0.0,0.0,0.0,0.0,0.5166,0.5515,0.5709,0.553,0.0,0.4706,0.0,0.0,0.0,0.0,0.0,0.0,0.0,0.0,0.0,0.0,0.3895,0.3494,0.321,0.2897,0.2547,0.208,0.1698,0.0,0.1464,0.1313,0.1114,0.0,0.0,0.0,0.0,0.0083,-0.0092,-0.0273,-0.0448,-0.0601,-0.0778,-0.0872,-0.0812,-0.0806,-0.0776,-0.0748,-0.0748,-0.0777,-0.0878,-0.0827,-0.086,0.0,0.0,0.0,0.0,0.0,0.0,0.0,0.0,0.0,0.0,0.0,0.0,0.0,0.0,0.0,0.0,0.0,0.0,0.0,0.0,0.0,0.0,0.0,0.0,0.0,0.0,0.0,0.0,0.4404,0.4572,0.4542,0.4371,0.4221,0.0,0.0,0.0,0.0,0.0,0.0,0.5859,0.6262,0.6545,0.6688,0.7136,0.7575,0.8029,0.8622,0.9124,0.9488,0.97,0.979,0.9842,0.9842,0.9795,0.9644,0.9644,0.9582,0.9422,0.8415,0.783,0.7443,0.652,0.6275,0.6444,0.623,0.6378,0.6722,0.6926,0.6633,0.6089,0.5606,0.0,0.4109,0.3816,0.0,0.0,0.0,0.0,0.3988,0.4047,0.4162,0.4126,0.3658,0.3337,0.3065,0.261,0.2236,0.1922,0.0,0.1666,0.153,0.1411,0.0,0.0,0.0,0.0,0.051,0.0339,0.0077,-0.0162,-0.0335,-0.0645,-0.0845,-0.0812,-0.0806,-0.0782,-0.0701,-0.0698,-0.0731,-0.0788,-0.0749,-0.0777,-0.0878,0.0,0.0,0.0,0.0,0.0,0.0,0.0,0.0,0.0,0.0,0.0,0.0,0.0,0.0,0.0,0.0,0.0,0.0,0.0,0.0,0.0,0.0,0.0,0.0,0.0,0.0,0.0,0.0,0.0,0.5136,0.5044,0.0,0.0,0.0,0.0,0.5851,0.6249,0.6625,0.7083,0.7203,0.7473,0.7979,0.8111,0.8385,0.8938,0.9348,0.9705,0.9966,1.0184,1.0343,1.0573,1.0573,1.0523,1.0508,1.0508,1.0331,0.9914,0.9237,0.885,0.8634,0.7895,0.767,0.7769,0.766,0.779,0.8145,0.8477,0.8189,0.7582,0.6845,0.5565,0.4276,0.4126,0.4054,0.0,0.0,0.4262,0.4468,0.4476,0.4569,0.4525,0.3988,0.3622,0.3233,0.2705,0.2314,0.2049,0.0,0.1824,0.1745,0.1597,0.0,0.1247,0.1177,0.0959,0.077,0.0679,0.0372,0.0081,-0.0196,-0.0505,-0.0736,-0.0786,-0.0806,-0.0782,-0.0701,-0.0695,-0.0734,-0.0789,-0.0802,-0.08,-0.0799,-0.0871,0.0,0.0,0.0,0.0,0.0,0.0,0.0,0.0,0.0,0.0,0.0,0.0,0.0,0.0,0.0,0.0,0.0,0.0,0.0,0.0,0.0,0.0,0.0,0.0,0.0,0.0,0.0,0.0,0.6297,0.6339,0.0,0.6262,0.616,0.6241,0.6617,0.7181,0.7545,0.7593,0.7969,0.8295,0.8477,0.865,0.8918,0.938,0.97,1.0056,1.0398,1.057,1.0712,1.0783,1.0783,1.0707,1.0621,1.0621,1.0535,1.0379,1.0112,0.9658,0.9079,0.8537,0.8524,0.8759,0.8325,0.8456,0.8892,0.8915,0.8582,0.7986,0.6705,0.5531,0.4591,0.4522,0.444,0.436,0.4473,0.4558,0.4624,0.4624,0.4657,0.4571,0.4135,0.3792,0.3481,0.3006,0.2647,0.2417,0.2409,0.216,0.1912,0.1801,0.1711,0.1608,0.1544,0.1445,0.1351,0.122,0.0951,0.0664,0.042,-0.0084,-0.0436,-0.0533,-0.0706,-0.0782,-0.0701,-0.0697,-0.0692,-0.0671,-0.0668,-0.0659,-0.0602,-0.0631,-0.0666,0.0,0.0,0.0,0.0,0.0,0.0,0.0,0.0,0.0,0.0,0.0,0.0,0.0,0.0,0.0,0.0,0.0,0.0,0.0,0.0,0.0,0.0,0.0,0.0,0.0,0.645,0.6974,0.7085,0.7196,0.7276,0.7245,0.714,0.7169,0.7362,0.7885,0.816,0.8094,0.8548,0.8874,0.9015,0.9117,0.9362,0.9743,1.0066,1.0346,1.0621,1.0863,1.0995,1.0995,1.0995,1.092,1.0783,1.0783,1.0745,1.0683,1.0683,1.0272,0.9602,0.9353,0.9308,0.9335,0.895,0.9068,0.9371,0.9158,0.8823,0.8286,0.6987,0.5992,0.5234,0.5058,0.4829,0.4673,0.4788,0.4813,0.4813,0.4813,0.4813,0.4728,0.4357,0.4073,0.3786,0.3373,0.3042,0.2796,0.2811,0.2426,0.2084,0.2041,0.1954,0.1835,0.1774,0.1749,0.171,0.16,0.1355,0.1066,0.0785,0.0224,-0.0192,-0.0387,-0.0635,-0.0786,-0.0738,-0.0703,-0.0675,-0.0626,-0.0614,-0.0576,-0.0541,-0.0597,-0.0696,-0.0801,0.0,0.0,0.0,0.0,0.0,0.0,0.0,0.0,0.0,0.0,0.0,0.0,0.0,0.0,0.0,0.0,0.0,0.0,0.0,0.0,0.0,0.0,0.0,0.6233,0.6799,0.7308,0.7527,0.761,0.7771,0.8108,0.7838,0.7762,0.8099,0.8302,0.8505,0.8703,0.8916,0.9178,0.9592,0.9602,0.9743,0.9994,1.0407,1.0621,1.0579,1.0995,1.1194,1.1194,1.1194,1.1194,1.1194,1.1194,1.1085,1.0905,1.0905,1.0664,1.0336,1.0277,1.0022,0.9611,0.9606,0.9602,0.9564,0.9395,0.9056,0.8569,0.7789,0.6951,0.6158,0.5758,0.5329,0.5018,0.5018,0.5015,0.5012,0.5015,0.5015,0.4941,0.4674,0.4455,0.4205,0.3787,0.3464,0.3196,0.3058,0.2632,0.2325,0.2292,0.2142,0.1986,0.1925,0.1837,0.0,0.18,0.1517,0.1206,0.0954,0.0364,-0.0083,-0.0374,-0.0644,-0.0795,-0.0791,-0.0736,-0.0705,-0.0697,-0.0646,-0.0596,-0.0602,-0.0803,-0.1005,-0.1207,0.0,0.0,0.0,0.0,0.0,0.0,0.0,0.0,0.0,0.0,0.0,0.0,0.0,0.0,0.0,0.0,0.0,0.0,0.0,0.0,0.0,0.6497,0.6933,0.6933,0.7569,0.8136,0.834,0.8655,0.8813,0.8741,0.8654,0.8589,0.8543,0.8732,0.8878,0.893,0.9089,0.9324,0.9597,0.9602,0.9743,0.9994,1.0407,1.0621,1.0579,1.0995,1.1194,1.1194,1.1194,1.1194,1.1194,1.1194,1.1161,1.1113,1.1113,1.0957,1.0693,1.039,1.0151,0.9852,0.9658,0.9602,0.9602,0.9522,0.9264,0.8835,0.8299,0.7483,0.6617,0.6179,0.5668,0.5168,0.5054,0.4914,0.4866,0.4955,0.4911,0.4822,0.4719,0.4589,0.4415,0.4061,0.3844,0.3646,0.3408,0.3141,0.2826,0.2428,0.2209,0.2064,0.2046,0.1955,0.0,0.1887,0.1736,0.1543,0.1234,0.0645,0.0194,-0.008,-0.0541,-0.0795,-0.0791,-0.0736,-0.0705,-0.0697,-0.0687,-0.0657,-0.0602,-0.0801,-0.1018,0.0,0.0,0.0,0.0,0.0,0.0,0.0,0.0,0.0,0.0,0.0,0.0,0.0,0.0,0.0,0.0,0.0,0.0,0.0,0.0,0.0,0.0,0.7215,0.774,0.7826,0.8222,0.8571,0.8685,0.9067,0.9202,0.9004,0.8985,0.8935,0.8718,0.8902,0.9023,0.9103,0.9305,0.9512,0.9767,0.9771,0.9875,1.0127,1.0455,1.0617,1.0712,1.1038,1.1194,1.1194,1.1194,1.1194,0.0,1.1194,1.1194,1.1194,1.1194,1.1075,0.0,0.0,0.0,0.0,0.0,0.9602,0.9616,0.9743,0.96,0.935,0.8899,0.8263,0.7531,0.6947,0.6248,0.5623,0.5341,0.5043,0.4814,0.4882,0.4849,0.4777,0.4767,0.477,0.4687,0.4461,0.4273,0.4072,0.3842,0.3556,0.0,0.2818,0.2455,0.2223,0.2196,0.2065,0.1969,0.1916,0.1853,0.1738,0.1462,0.0898,0.0417,0.0109,-0.0395,0.0,0.0,0.0,-0.0719,-0.0697,-0.0695,0.0,0.0,0.0,0.0,0.0,0.0,0.0,0.0,-0.2775,-0.2936,0.0,0.0,0.0,0.0,0.0,0.0,0.0,0.0,0.0,0.0,0.0,0.0,0.0,0.0,0.0,0.0,0.7891,0.8496,0.8675,0.8765,0.8798,0.8774,0.9119,0.923,0.9009,0.8985,0.8944,0.8751,0.8916,0.9079,0.9305,0.0,0.0,0.0,0.0,1.0099,1.0317,1.0521,1.0683,1.0896,1.1099,1.1194,1.1194,1.1194,1.1194,1.1194,1.1194,1.1194,1.1194,1.1194,1.109,1.0924,1.0853,1.0531,1.0009,0.9757,0.9639,0.9663,0.9933,0.0,0.0,0.953,0.9074,0.8607,0.7866,0.7013,0.6198,0.5767,0.5281,0.4836,0.4814,0.4806,0.4798,0.4814,0.4901,0.4944,0.4822,0.4662,0.4469,0.4239,0.3899,0.3563,0.328,0.2792,0.2403,0.2309,0.2197,0.2053,0.1936,0.1915,0.1831,0.1634,0.0,0.0,0.028,-0.0244,-0.0604,-0.0738,-0.0785,-0.0767,-0.0708,-0.0702,-0.0673,-0.0613,-0.0911,-0.1171,-0.1372,-0.2082,-0.2719,-0.3299,-0.3197,-0.3308,0.0,0.0,0.0,0.0,0.0,0.0,0.0,0.0,0.0,0.0,0.0,0.0,0.0,0.0,0.0,0.7384,0.8134,0.8656,0.8699,0.9103,0.9357,0.9183,0.9385,0.9395,0.9023,0.8985,0.8966,0.8924,0.8962,0.915,0.9522,0.9583,0.9738,0.9985,0.9994,1.0099,1.0317,1.0521,1.0683,1.0896,0.0,0.0,1.1194,1.1194,1.1194,1.1194,1.1194,1.1194,1.1194,1.1194,1.1175,1.109,1.0589,1.0319,1.0227,1.0013,0.9937,0.9942,0.998,0.9994,0.999,0.9904,0.9434,0.8861,0.8581,0.7689,0.0,0.6192,0.5574,0.504,0.4994,0.4871,0.4822,0.492,0.4999,0.4944,0.4822,0.476,0.4635,0.427,0.4129,0.3942,0.3507,0.2991,0.2582,0.2406,0.2226,0.2069,0.1994,0.1941,0.1831,0.1634,0.1262,0.0898,0.0617,0.0054,-0.0345,-0.0474,-0.0688,-0.0783,-0.0772,-0.0724,-0.0693,-0.0678,-0.0849,-0.1015,-0.1158,-0.1734,-0.242,-0.3213,-0.3423,-0.373,0.0,0.0,0.0,0.0,0.0,0.0,0.0,0.0,0.0,0.0,0.0,0.645,0.6799,0.0,0.7721,0.793,0.8538,0.9011,0.9011,0.9469,0.9682,0.9319,0.9475,0.9479,0.9164,0.9136,0.9136,0.9136,0.9235,0.9385,0.9592,0.9743,0.9842,0.9994,1.0099,1.0255,1.0469,1.0631,1.0839,1.1047,1.1146,1.1194,1.1194,1.1194,1.1194,1.1194,1.1194,1.1194,1.1194,1.1194,1.1194,1.1156,1.0745,1.0584,1.0546,1.0274,1.0156,1.0142,1.0032,0.9994,0.9994,0.9994,0.9794,0.9434,0.9083,0.8455,0.7708,0.7134,0.6337,0.5586,0.5398,0.5123,0.4887,0.4887,0.4933,0.4999,0.4901,0.4839,0.4723,0.4533,0.4417,0.4248,0.392,0.3524,0.3121,0.2757,0.2427,0.2206,0.2109,0.2006,0.1894,0.1721,0.1403,0.1122,0.0926,0.0217,-0.0293,-0.0479,-0.0695,-0.0794,-0.079,-0.0773,-0.0743,-0.0696,-0.0834,-0.0952,-0.1062,-0.1617,-0.2283,-0.3047,-0.3389,-0.3902,0.0,0.0,0.0,0.0,0.0,0.0,0.0,0.5773,0.5984,0.6359,0.6743,0.7104,0.7475,0.7872,0.8212,0.8425,0.8944,0.9296,0.9338,0.9715,0.9838,0.9374,0.9437,0.9456,0.9244,0.9225,0.9258,0.9338,0.9503,0.962,0.9658,0.9861,1.0013,1.0056,1.0227,1.0436,1.0678,1.0811,1.0995,1.1194,1.1194,1.1194,1.1194,1.1194,1.1194,1.1194,1.1194,1.1194,1.1194,1.1194,1.1194,1.1179,1.1019,1.0953,1.0896,1.0442,1.0317,1.0289,1.007,0.9994,0.9994,0.9994,0.9994,0.9923,0.9544,0.9126,0.8636,0.8117,0.7204,0.6314,0.5973,0.5514,0.5137,0.4936,0.4983,0.5054,0.5018,0.4901,0.4825,0.4801,0.4656,0.4464,0.4239,0.4,0.3658,0.3123,0.2723,0.2411,0.2254,0.2115,0.1975,0.1826,0.1586,0.1327,0.1123,0.041,-0.0161,-0.0511,-0.0655,-0.0758,-0.0799,-0.0803,-0.0777,-0.0714,-0.0836,-0.0919,-0.0974,-0.1525,-0.211,-0.2736,-0.3175,-0.388,0.5656,0.5786,0.607,0.6054,0.6362,0.6667,0.0,0.6907,0.7013,0.7212,0.7477,0.7692,0.7773,0.8085,0.8434,0.8633,0.9039,0.9348,0.954,0.9804,0.9838,0.9374,0.9305,0.9239,0.9037,0.9018,0.9169,0.954,0.9587,0.9724,0.9952,0.998,1.008,1.0274,1.0308,1.0461,1.0858,1.0882,1.0995,1.1194,1.1194,1.1194,1.1194,1.1194,1.1194,1.1194,1.1194,1.1194,1.1194,1.1194,1.1194,1.1194,1.117,1.1161,1.109,1.0494,1.0317,1.0289,1.007,0.9994,0.9994,0.9994,0.9994,0.999,0.9923,0.9486,0.8916,0.8687,0.7833,0.6921,0.6568,0.6168,0.5695,0.5329,0.527,0.5207,0.5054,0.5007,0.4928,0.4817,0.4724,0.4564,0.4252,0.407,0.3794,0.3259,0.2889,0.2591,0.232,0.2181,0.2038,0.1914,0.1843,0.1619,0.1153,0.0783,0.0362,-0.0195,-0.0361,-0.0538,-0.0779,-0.0854,-0.0865,-0.078,-0.081,-0.0841,-0.0921,-0.1221,-0.1625,-0.2125,-0.27,-0.3569,0.6059,0.6247,0.6539,0.6543,0.7051,0.7537,0.7476,0.7754,0.8029,0.7985,0.8269,0.8505,0.8505,0.8741,0.8963,0.9048,0.9277,0.9498,0.9592,0.9823,0.9838,0.9374,0.9282,0.9249,0.9164,0.9159,0.937,0.979,0.9823,0.9861,0.999,1.0113,1.0222,1.0317,1.0508,1.0721,1.0891,1.1009,1.1113,1.1194,1.1194,1.1194,1.1194,1.1194,1.1194,1.1194,1.1194,1.1194,1.1194,1.1194,1.1194,1.1194,1.1194,1.1194,1.1137,1.0631,1.0447,1.0445,1.0108,0.9994,0.9994,0.9994,0.9994,0.9994,0.9994,0.9803,0.9518,0.9307,0.8682,0.8067,0.7727,0.7196,0.6681,0.6331,0.5918,0.5592,0.5404,0.5171,0.5002,0.4911,0.4784,0.4673,0.4517,0.432,0.4064,0.3727,0.3293,0.2878,0.2561,0.2325,0.2087,0.1874,0.1832,0.1681,0.1264,0.0982,0.0556,-0.0054,-0.0277,-0.0516,-0.0784,-0.0862,-0.0858,-0.079,-0.0844,-0.0866,-0.0905,-0.1088,-0.1396,-0.1785,-0.2416,-0.3228,0.6497,0.6768,0.7106,0.7181,0.7782,0.8299,0.8166,0.8458,0.8745,0.8608,0.8768,0.8935,0.8935,0.9053,0.919,0.9263,0.9413,0.9555,0.9672,0.9856,0.9862,0.9537,0.9447,0.9433,0.9567,0.9401,0.9474,0.9838,0.9961,1.0018,1.008,1.0232,1.0369,1.0442,1.074,1.0924,1.0976,1.1123,1.1194,1.1194,1.1194,1.1194,1.1194,1.1194,1.1194,1.1194,1.1194,1.1194,1.1194,1.1194,1.1194,1.1194,1.1194,1.1194,1.1151,1.0797,1.0673,1.0559,1.0142,0.9994,0.9994,0.9994,0.9994,0.9994,0.9994,0.9994,0.9951,0.9777,0.9379,0.8939,0.8623,0.8094,0.7533,0.7079,0.6508,0.5989,0.5682,0.5287,0.5018,0.5018,0.4847,0.4728,0.4695,0.4517,0.4268,0.4033,0.3661,0.3269,0.2861,0.2431,0.2102,0.1882,0.1816,0.1718,0.1477,0.1184,0.0774,0.0187,-0.0248,-0.0571,-0.0784,-0.087,-0.0877,-0.082,-0.0875,-0.0892,-0.0892,-0.1007,-0.118,-0.1412,-0.2104,-0.2859,0.6983,0.7415,0.7842,0.8183,0.8633,0.9015,0.9139,0.9082,0.9004,0.8968,0.8819,0.8713,0.8713,0.8718,0.8855,0.9216,0.9286,0.9478,0.9928,0.999,1.0005,1.0001,0.9749,0.9787,1.0245,0.9693,0.9376,0.9597,0.9838,1.0089,1.0298,1.0317,1.0456,1.0863,1.0886,1.0986,1.1184,1.1194,1.1194,1.1194,1.1194,1.1194,1.1194,1.1194,1.1194,1.1194,1.1194,1.1194,1.1194,1.1194,1.1194,1.1194,1.1194,1.1194,1.117,1.0962,1.0754,1.0559,1.0142,0.9994,0.9994,0.9994,0.9994,0.9994,0.9994,0.9994,0.9994,0.9994,0.965,0.9257,0.9054,0.862,0.8106,0.7358,0.6871,0.6391,0.5743,0.5287,0.5018,0.5018,0.4876,0.479,0.4709,0.4583,0.4391,0.4043,0.3995,0.3753,0.3163,0.2505,0.2084,0.1991,0.1865,0.1819,0.1875,0.1513,0.1051,0.0507,-0.0248,-0.0734,-0.0809,-0.0864,-0.091,-0.0905,-0.0908,-0.0896,-0.0896,-0.0898,-0.0913,-0.0943,-0.167,-0.2369,0.7307,0.7912,0.853,0.8701,0.9304,0.9798,0.9532,0.953,0.9486,0.9082,0.8966,0.8874,0.8727,0.8817,0.8963,0.9061,0.9315,0.9545,0.9729,0.9909,1.0053,1.0201,1.0132,1.0195,1.0517,1.0079,0.0,1.029,1.0523,1.0682,1.0761,1.1043,1.1266,1.1415,1.1558,1.1662,1.1731,1.1736,1.1736,1.1736,1.1736,1.1736,1.1736,1.1736,1.1736,1.1736,1.1736,1.1736,1.1736,1.1736,1.1634,1.1487,1.1487,1.134,1.117,1.0972,1.0849,1.0726,1.0355,1.0208,1.0189,1.0042,0.9994,0.9994,0.9994,0.9994,0.9994,0.9994,0.9864,0.9763,0.9693,0.9406,0.9021,0.8509,0.7675,0.6849,0.6327,0.558,0.5018,0.5018,0.4879,0.4795,0.4709,0.4586,0.4431,0.4216,0.3771,0.3317,0.2941,0.2458,0.2088,0.1883,0.1822,0.1805,0.1824,0.1576,0.1202,0.0669,0.0133,-0.0318,-0.0657,-0.0811,-0.0892,-0.091,-0.0892,-0.0907,-0.0899,-0.0909,-0.0933,-0.0972,-0.1581,-0.2277,0.7934,0.8608,0.9264,0.9431,0.99,1.0229,0.9935,0.9694,0.9471,0.9153,0.8853,0.8632,0.8676,0.875,0.8856,0.9082,0.9468,0.9773,0.9845,1.0076,1.0342,1.0516,1.0534,1.0684,1.1027,1.0777,1.0678,1.0803,1.1071,1.1289,1.1367,1.1729,1.1972,1.2108,1.22,1.2273,1.2273,1.2273,1.2273,1.2273,1.2273,1.2273,1.2273,1.2273,1.2273,1.2273,1.2273,1.2273,1.2273,1.2175,1.1975,1.1736,1.1634,1.1438,1.1179,1.1052,1.1005,1.0934,1.0442,1.0317,1.0284,1.0066,0.9994,0.9994,0.9994,0.9994,0.9994,0.9994,0.9994,0.9994,0.9994,0.9856,0.9648,0.9192,0.8259,0.7254,0.6762,0.5844,0.5093,0.5018,0.4914,0.486,0.4738,0.4616,0.4479,0.4374,0.3769,0.3202,0.2921,0.2477,0.211,0.1853,0.1809,0.1797,0.1797,0.1605,0.1304,0.0843,0.0466,0.0052,-0.048,-0.0649,-0.0785,-0.0898,-0.0909,-0.0895,-0.0913,-0.0934,-0.0964,-0.1002,-0.1499,-0.208,0.8882,0.9573,1.0111,1.0295,1.0349,1.0338,1.0277,0.9614,0.9061,0.9207,0.8564,0.8118,0.8494,0.8483,0.8607,0.9183,0.9685,1.0106,1.0267,1.0542,1.0824,1.1024,1.1064,1.1227,1.1693,1.1742,1.1553,1.1146,0.0,1.1856,1.2027,1.2321,1.2564,1.2851,1.2861,1.2861,1.2861,1.2861,1.2861,1.2861,1.2861,1.2861,1.2861,1.2861,1.2861,1.2861,1.2861,1.2861,1.2813,1.2565,1.2273,1.2029,1.1731,1.1487,1.1243,1.1243,1.1243,1.1157,1.0559,1.035,1.0312,1.0085,1.0013,1.0009,0.9999,0.9994,0.9994,0.9994,0.9994,0.9994,0.9994,0.9994,0.9904,0.9417,0.8568,0.7673,0.7071,0.608,0.5282,0.5054,0.5012,0.4933,0.4817,0.4632,0.4503,0.4503,0.3946,0.3395,0.3048,0.2536,0.2126,0.1929,0.183,0.1797,0.1797,0.1633,0.1371,0.1035,0.0769,0.0341,-0.0253,-0.0352,-0.0534,-0.0872,-0.0872,-0.0887,-0.0888,-0.0974,-0.1002,-0.1004,-0.1395,-0.1781,0.9847,1.0606,1.1179,1.09,1.0838,1.0624,0.9944,0.9468,0.897,0.8376,0.8116,0.7972,0.7867,0.8146,0.8567,0.8995,0.9864,1.0451,1.0515,1.0863,1.131,1.1718,1.1738,1.194,1.2376,1.2471,1.2479,0.0,1.2556,1.253,1.2592,1.3008,1.323,1.334,1.3298,1.3298,1.3298,1.3298,1.3298,1.3298,1.3298,1.3298,1.3298,1.3298,1.3298,1.3298,1.3298,1.3298,1.3298,1.305,1.2807,1.257,1.2322,1.2029,1.1785,1.1785,1.1785,1.1736,1.146,1.1069,1.0679,1.0355,1.0236,1.0208,1.0047,0.9994,0.9994,0.9994,0.9994,0.9994,0.9994,0.9994,0.9941,0.9586,0.8872,0.8123,0.7673,0.6593,0.567,0.5482,0.5133,0.4833,0.4801,0.4632,0.4503,0.4503,0.3982,0.3445,0.3055,0.2536,0.2107,0.1846,0.1805,0.1797,0.1797,0.1714,0.1534,0.1246,0.1028,0.0663,0.0105,-0.0028,-0.0233,-0.0524,-0.066,-0.0772,-0.0821,-0.093,-0.1012,-0.1065,-0.1273,-0.158,1.0475,1.1164,1.1704,1.1232,1.1015,1.0661,0.992,0.927,0.8733,0.8253,0.7944,0.7726,0.77,0.8043,0.8492,0.9001,0.9914,1.0594,1.0704,1.104,1.1407,1.178,1.1946,1.2217,1.2683,1.2808,1.3,1.3272,1.3158,1.3151,1.3262,1.3655,1.3871,1.3871,1.3871,1.3871,1.3871,1.3871,1.3871,1.3871,1.3871,1.3871,1.3871,1.3871,1.3871,1.3871,0.0,1.3871,1.3823,1.3539,1.3298,1.3104,1.2807,1.2565,1.237,1.237,1.237,1.2306,1.2085,1.175,1.1278,1.0666,1.0412,1.0279,1.0061,0.9994,0.9994,0.9994,0.9994,0.9994,0.9994,0.9994,0.9951,0.982,0.9123,0.8427,0.802,0.6936,0.5899,0.5443,0.5076,0.4876,0.4876,0.4711,0.4586,0.4586,0.4038,0.3475,0.3182,0.2626,0.2164,0.1828,0.1797,0.1797,0.1797,0.1766,0.1691,0.1527,0.1383,0.1115,0.0669,0.0527,0.033,0.003,-0.0155,-0.0349,-0.0548,-0.0686,-0.0894,-0.1109,-0.1176,-0.1344,1.0979,1.1566,1.1975,1.1449,1.1043,1.0573,0.997,0.9098,0.8404,0.8376,0.7841,0.7429,0.7719,0.801,0.8447,0.9097,0.9969,1.0674,1.0904,1.1141,1.1404,1.1656,1.1898,1.2235,1.2809,1.2989,1.3248,1.3544,1.3568,1.3664,1.3894,1.4153,1.4298,1.4298,1.4298,1.4298,1.4298,1.4298,1.4298,1.4298,1.4298,1.4298,1.4298,1.4298,1.4298,1.4298,1.4298,0.0,1.4298,1.4022,1.3738,1.3539,1.3249,1.305,1.291,1.291,1.291,1.2861,1.2565,1.2322,1.1976,1.1094,1.0564,1.0317,1.0104,1.0018,0.9994,0.9994,0.9994,0.9994,0.9994,0.9994,0.9994,0.9994,0.9381,0.8677,0.8267,0.7132,0.5973,0.5171,0.5018,0.5018,0.5018,0.4828,0.4706,0.4692,0.4104,0.3601,0.3342,0.2789,0.2267,0.1859,0.1825,0.1825,0.1797,0.1804,0.1808,0.1808,0.1778,0.1602,0.1245,0.1189,0.099,0.0681,0.0478,0.0194,-0.0129,-0.0365,-0.0672,-0.1076,-0.1076,-0.1109,1.1722,1.2152,1.2403,1.1735,1.1192,1.0623,0.9694,0.8979,0.8318,0.7796,0.7408,0.7224,0.7498,0.796,0.8491,0.916,1.0243,1.1017,1.1065,1.1489,1.1896,1.2158,1.223,1.2445,1.2985,1.3083,1.3276,1.3803,1.3839,1.3857,1.3906,1.4153,1.4298,1.4298,1.4298,1.4298,1.4298,1.4298,1.4298,1.4298,1.4298,1.4298,1.4298,1.4298,1.4298,1.4298,1.4298,0.0,1.4298,1.4022,1.3883,1.3786,1.3539,1.3394,1.3394,1.3394,1.3394,1.3346,1.305,1.2856,1.2517,1.1542,1.0898,1.0531,1.0322,1.0137,0.9994,0.9994,0.9994,0.9994,0.9994,0.9994,0.9994,0.9994,0.9587,0.9082,0.8677,0.7334,0.5973,0.5171,0.5018,0.5018,0.5018,0.4898,0.4768,0.4703,0.4342,0.3933,0.3518,0.294,0.2412,0.1995,0.1961,0.1933,0.1797,0.1839,0.1896,0.1896,0.1924,0.1804,0.1467,0.1447,0.131,0.1022,0.0822,0.0533,0.02,-0.0168,-0.0505,-0.0843,-0.1009,-0.1109,1.1639,1.1958,1.2127,1.1363,1.0956,1.0425,0.9405,0.8714,0.8143,0.7623,0.7244,0.7055,0.7255,0.7678,0.8218,0.8968,0.9741,1.0406,1.0815,1.1098,1.1459,1.2047,1.2234,1.2578,1.326,1.3447,1.3688,1.4081,1.4111,1.4111,1.4111,1.4226,1.4298,1.4298,1.4298,1.4298,1.4298,1.4298,1.4298,1.4298,1.4298,1.4298,1.4298,1.4298,1.4298,1.4298,1.4298,0.0,1.4298,1.416,1.4118,1.4118,1.3968,1.3919,1.3919,1.3919,1.3919,1.3871,1.3588,1.3256,1.2841,1.2115,1.1407,1.0743,1.042,1.0163,0.9994,0.9994,0.9994,0.9994,0.9994,0.9994,0.9994,0.9994,0.955,0.8928,0.8222,0.7273,0.6325,0.5482,0.5326,0.5326,0.5326,0.522,0.515,0.5126,0.4698,0.4251,0.399,0.3347,0.2692,0.2168,0.2043,0.1988,0.1912,0.1943,0.1986,0.2051,0.2082,0.2035,0.1872,0.1864,0.1813,0.1681,0.1469,0.1176,0.0807,0.0437,0.0,-0.0539,-0.0706,-0.0908,1.1345,1.1639,1.1714,1.1055,1.0657,1.0225,0.9238,0.8492,0.7888,0.7518,0.7085,0.683,0.7012,0.7343,0.7827,0.8557,0.908,0.966,1.034,1.0575,1.0966,1.1712,1.2079,1.2626,1.3435,1.3755,1.4014,1.428,1.4298,1.4298,1.4298,1.4298,1.4298,1.4298,1.4298,1.4298,1.4298,1.4298,1.4298,1.4298,1.4298,1.4298,1.4298,1.4298,1.4298,1.4298,1.4298,0.0,0.0,1.4298,1.4298,1.4298,1.4298,1.4298,1.4298,1.4298,1.4298,1.4244,1.3909,1.356,1.3081,1.2519,1.1713,1.0903,1.0514,1.0202,0.9994,0.9994,0.9994,0.9994,0.9994,0.9994,0.9985,0.9937,0.947,0.8796,0.7837,0.736,0.6867,0.6028,0.5867,0.5867,0.5867,0.5851,0.5805,0.5772,0.5222,0.4763,0.4609,0.3893,0.3165,0.2505,0.2249,0.2087,0.2015,0.2019,0.2075,0.2142,0.2172,0.2188,0.2188,0.2188,0.2188,0.2188,0.2052,0.1783,0.1379,0.1042,0.0538,-0.0168,-0.037,-0.0672,1.1141,1.1528,1.1754,1.1212,1.0701,1.0083,0.9286,0.8331,0.757,0.7279,0.6808,0.6524,0.6784,0.7049,0.7406,0.7919,0.8627,0.9251,0.9576,1.0238,1.0894,1.1459,1.2011,1.2626,1.3435,1.3755,1.4014,1.428,1.4298,1.4298,1.4298,1.4298,1.4298,1.4298,1.4298,1.4298,1.4298,1.4298,1.4298,1.4298,1.4298,1.4298,1.4298,1.4298,1.4298,1.4298,1.4298,0.0,0.0,1.4298,1.4298,1.4298,1.4298,1.4298,1.4298,1.4298,1.4298,1.4214,1.3691,1.3497,1.331,1.2355,1.1568,1.0965,1.0652,1.0279,0.9994,0.9994,0.9994,0.9994,0.9994,0.9994,0.9947,0.9677,0.9437,0.9053,0.823,0.789,0.7553,0.6891,0.6788,0.6788,0.6788,0.6773,0.6714,0.66,0.6241,0.5741,0.5192,0.4529,0.389,0.3258,0.2766,0.2329,0.2033,0.2117,0.2133,0.2019,0.2125,0.2188,0.2188,0.2188,0.2188,0.2188,0.2188,0.1985,0.158,0.1344,0.0908,0.0235,-0.0134,-0.0505,1.0521,1.0761,1.0833,1.046,1.01,0.9654,0.9011,0.819,0.7522,0.7255,0.6781,0.6474,0.6756,0.7024,0.7352,0.7817,0.8291,0.8836,0.9432,0.9919,1.0472,1.1196,1.1712,1.233,1.2964,1.3417,1.3845,1.4262,1.4298,1.4298,1.4298,1.4298,1.4298,1.4298,1.4298,1.4298,1.4298,1.4298,1.4298,1.4298,1.4298,1.4298,1.4298,1.4298,1.4298,1.4298,1.4298,0.0,0.0,1.4298,1.4298,1.4298,1.4298,1.4298,1.428,1.4123,1.4063,1.4026,1.3622,1.3379,1.3174,1.2655,1.2086,1.1521,1.1007,1.0547,1.0164,1.0164,1.0081,0.9994,0.9994,0.9994,0.9975,0.9852,0.9653,0.9275,0.8625,0.8306,0.7967,0.7358,0.7249,0.7249,0.7249,0.7249,0.7226,0.7193,0.6757,0.6285,0.5846,0.5026,0.4309,0.3789,0.3062,0.2514,0.2217,0.2194,0.2174,0.2056,0.2141,0.2188,0.2188,0.2188,0.2188,0.2188,0.2188,0.2138,0.1966,0.1764,0.1424,0.0964,0.0542,0.0067,0.9961,1.0178,1.0214,0.9877,0.9588,0.9251,0.8716,0.8003,0.7425,0.7243,0.6781,0.6449,0.6659,0.6908,0.7212,0.0,0.7976,0.8423,0.9173,0.9576,1.0051,1.0797,1.1353,1.185,1.2421,1.3103,1.3701,1.4147,1.4256,1.4298,1.4298,1.4298,1.4298,1.4298,1.4298,1.4298,1.4298,1.4298,1.4298,1.4298,1.4298,1.4298,1.4298,1.4298,1.4298,1.4298,1.4298,0.0,0.0,1.4183,1.4135,1.4063,1.4063,1.4063,1.4045,1.3857,1.3791,1.3755,1.3489,1.3278,1.3065,1.2768,1.2429,1.202,1.1392,1.0824,1.0376,1.0337,1.0168,0.9994,0.9994,0.9994,0.9994,0.9994,0.9842,0.9578,0.8977,0.877,0.8511,0.7949,0.7863,0.7863,0.7863,0.7863,0.7863,0.7863,0.7392,0.6908,0.6583,0.5677,0.4857,0.4256,0.355,0.2915,0.2463,0.238,0.2302,0.2224,0.2308,0.2321,0.2255,0.2255,0.2255,0.2188,0.2188,0.2208,0.2182,0.2073,0.1801,0.1454,0.112,0.0504,0.9522,0.9901,1.0172,0.9648,0.9312,0.8963,0.8411,0.7731,0.7206,0.72,0.6781,0.6395,0.6395,0.6635,0.6902,0.7164,0.7611,0.0,0.8644,0.9179,0.9715,1.0238,1.0767,1.1335,1.1878,1.2892,1.3628,1.3888,1.4153,0.0,1.4298,1.4298,1.4298,1.4298,1.4298,1.4298,1.4298,1.4298,1.4298,1.4298,1.4298,1.4298,1.4298,1.4298,1.4298,0.0,0.0,0.0,0.0,1.3912,1.3755,1.3519,1.3519,1.3519,1.3519,1.3519,1.3519,1.3483,1.3218,1.3083,1.3035,1.2543,1.2412,1.2326,1.1823,1.117,1.0549,1.0381,1.0168,0.9994,0.9994,0.9994,0.9994,0.9994,0.9994,0.9876,0.9412,0.9282,0.9159,0.8784,0.8699,0.8699,0.8699,0.8699,0.8699,0.8699,0.8166,0.7659,0.7335,0.6518,0.5649,0.4775,0.4335,0.371,0.2783,0.2708,0.2653,0.2499,0.2606,0.2621,0.2391,0.2391,0.2322,0.2188,0.2188,0.2188,0.2188,0.2188,0.1985,0.1581,0.1379,0.0706,0.8866,0.9083,0.9173,0.9005,0.8764,0.8475,0.8099,0.7599,0.7151,0.6969,0.6659,0.6395,0.6395,0.6607,0.689,0.7158,0.7473,0.0,0.8608,0.9173,0.9709,1.0232,1.108,1.1872,1.2403,1.3097,1.3701,1.4141,1.425,1.4298,1.4298,1.4298,1.4298,1.4298,1.4298,1.4298,1.4298,1.4298,1.4298,1.4298,1.4298,1.4298,1.4298,1.4298,1.4298,0.0,0.0,0.0,0.0,1.3713,1.3592,1.3513,1.3513,1.3513,1.3495,1.327,1.3248,1.3212,1.2934,1.2837,1.2776,1.2643,1.2619,1.2534,1.2283,1.1677,1.0988,1.0459,1.0249,1.0206,1.0206,1.0358,1.0424,1.025,1.0207,1.0048,0.9412,0.9282,0.92,0.8784,0.8703,0.8703,0.8703,0.8703,0.8703,0.8703,0.8313,0.7872,0.7562,0.6784,0.5958,0.5141,0.4598,0.3935,0.3056,0.3002,0.2987,0.2864,0.2897,0.2822,0.2621,0.2456,0.2322,0.2188,0.2188,0.2208,0.2215,0.2208,0.2073,0.1868,0.1522,0.1048,0.8148,0.8331,0.8391,0.8311,0.8166,0.7973,0.7687,0.734,0.7006,0.6842,0.6599,0.6395,0.6395,0.6607,0.689,0.7158,0.7425,0.7848,0.8596,0.9083,0.9624,1.0358,1.1206,1.194,1.2506,1.3049,1.3544,1.3972,1.4183,1.4256,1.4153,1.4244,1.4298,1.4298,1.4201,1.4153,1.4153,1.4051,1.4002,1.4002,1.4002,1.4002,1.4002,1.4002,1.4002,0.0,0.0,0.0,0.0,1.3435,1.3302,1.3212,1.3212,1.3212,1.3194,1.3025,1.2964,1.294,1.2765,1.2705,1.2705,1.2705,1.2662,1.2559,1.2336,1.1793,1.1186,1.0543,1.0455,1.0522,1.0522,1.0687,1.0771,1.0467,1.0381,1.0134,0.9453,0.9282,0.92,0.8784,0.8703,0.8703,0.8703,0.8703,0.8703,0.8703,0.8344,0.8009,0.7806,0.7083,0.6333,0.5658,0.5155,0.4565,0.3833,0.3588,0.3463,0.3439,0.3468,0.3406,0.3205,0.3008,0.279,0.2522,0.2488,0.2443,0.228,0.2239,0.2151,0.2069,0.1683,0.1386,0.0,0.7701,0.7832,0.7638,0.7583,0.7522,0.7236,0.6987,0.0,0.6787,0.6564,0.6395,0.6395,0.6607,0.689,0.7158,0.7437,0.7879,0.8626,0.9023,0.9612,1.0623,1.1218,1.1748,1.2288,1.2813,1.323,1.3495,1.3966,0.0,1.3888,1.4111,1.4244,1.4244,1.3984,1.387,1.3906,1.3646,1.3513,1.3513,1.3513,1.3513,1.3513,1.3513,1.3513,0.0,0.0,0.0,0.0,1.3103,1.294,1.2705,1.2705,1.2705,1.2705,1.2705,1.2705,1.2705,1.2705,1.2705,1.2705,1.2705,1.2565,1.2329,1.2076,1.1662,1.1197,1.067,1.0731,1.0908,1.0908,1.0969,1.0987,1.0722,1.0511,1.0177,0.9495,0.9322,0.92,0.8779,0.8703,0.8703,0.8703,0.8703,0.8703,0.8703,0.8344,0.8115,0.8115,0.7414,0.6737,0.6263,0.5864,0.5454,0.4967,0.435,0.408,0.4301,0.4364,0.4318,0.4122,0.3958,0.3632,0.309,0.3023,0.279,0.2391,0.2259,0.2192,0.2216,0.1902,0.168,0.6902,0.0,0.76,0.7364,0.7443,0.7473,0.0,0.6854,0.675,0.6528,0.6437,0.6395,0.6395,0.6607,0.689,0.7158,0.755,0.8109,0.8896,0.9931,1.0816,1.1248,1.1811,1.2258,1.2578,1.2922,1.323,1.3495,1.3628,1.367,1.361,1.3664,1.3701,1.3701,1.3441,1.3501,1.3906,1.3646,1.3513,1.3513,1.3513,1.3513,1.3513,1.3513,1.3513,0.0,0.0,0.0,1.3065,1.2892,1.2765,1.2705,1.2705,1.2705,1.2705,1.2705,1.2705,1.2705,1.2705,1.2705,1.2705,1.2705,1.2524,1.2272,1.2014,1.1612,1.1237,1.0909,1.1016,1.1207,1.1207,1.1366,1.1472,1.1198,1.0992,1.0615,0.9787,0.9608,0.9441,0.8822,0.8703,0.8703,0.8703,0.8703,0.8703,0.8703,0.8344,0.8115,0.8115,0.7541,0.6923,0.6405,0.6128,0.5766,0.5238,0.5108,0.5122,0.5346,0.5472,0.5463,0.53,0.4992,0.4484,0.3787,0.3119,0.2654,0.2391,0.2269,0.222,0.2279,0.2248,0.2147,0.6564,0.6921,0.723,0.7206,0.7218,0.7158,0.6872,0.6714,0.6564,0.6425,0.6395,0.6431,0.6574,0.6714,0.6952,0.7436,0.7742,0.8303,0.9486,1.0581,1.1411,1.1802,1.2246,1.2602,0.0,1.2987,1.3137,1.3326,0.0,1.3465,1.3344,1.3447,1.3513,1.3513,1.326,1.326,1.3544,1.3278,1.3139,1.3139,1.3139,1.3189,1.3322,1.3189,1.3189,0.0,0.0,0.0,1.2922,1.2765,1.2705,1.2705,1.2705,1.279,1.2875,1.2875,1.2918,1.3003,1.2918,1.279,1.2705,1.2705,1.2608,1.2421,1.2041,1.1843,1.1699,1.129,1.1366,1.1589,1.1746,1.1908,1.1946,1.1671,1.1375,1.091,1.0029,0.977,0.9521,0.8822,0.8703,0.8703,0.8703,0.8703,0.8703,0.8703,0.8344,0.8115,0.8115,0.7574,0.7047,0.6625,0.6391,0.6134,0.574,0.5821,0.5894,0.5876,0.6038,0.6082,0.6024,0.5712,0.5224,0.4467,0.3587,0.3031,0.2896,0.2554,0.2416,0.2443,0.2337,0.2298,0.6371,0.6583,0.686,0.7085,0.7036,0.6944,0.6878,0.6696,0.6553,0.6532,0.6516,0.6599,0.6829,0.6933,0.7212,0.7846,0.8124,0.877,1.0242,1.1105,1.1769,1.2299,1.2584,0.0,1.3124,1.3148,1.3148,0.0,0.0,1.3385,1.3161,1.3361,1.3483,1.3483,1.3264,1.3148,1.3148,1.2868,1.2705,1.2705,1.2747,1.2918,1.3179,1.2966,1.296,1.3179,0.0,0.0,1.2705,1.2705,1.2705,1.2705,1.2747,1.2924,1.3185,1.3222,1.3392,1.3561,1.3313,1.3009,1.279,1.2705,1.2681,1.256,1.2119,1.2107,1.2168,1.1724,1.1772,1.1994,1.2252,1.2343,1.2363,1.21,1.1714,1.1113,1.0274,0.9933,0.9566,0.8899,0.8742,0.8742,0.8703,0.8703,0.8703,0.8703,0.8344,0.8115,0.8115,0.7598,0.7157,0.6892,0.668,0.6468,0.6266,0.6436,0.6463,0.6208,0.6427,0.6564,0.6573,0.6366,0.5903,0.5161,0.425,0.3703,0.3556,0.293,0.2619,0.2569,0.2348,0.225,0.6289,0.6583,0.6817,0.686,0.7254,0.7555,0.7218,0.7204,0.7214,0.7102,0.7079,0.7091,0.7133,0.7591,0.8019,0.8143,0.9105,1.0186,1.1119,1.1575,1.2055,1.257,0.0,1.3113,1.3327,1.3333,1.3333,0.0,0.0,1.342,1.3376,1.3371,1.3439,1.3439,1.3395,1.3333,1.3333,1.29,1.2705,1.2705,1.2924,1.3222,1.361,1.3561,1.3561,0.0,0.0,1.3052,1.2705,1.2705,1.2705,1.2705,1.2966,1.3264,1.3652,1.3851,1.4181,1.4398,1.3815,1.3476,1.3222,1.2833,1.2554,1.2361,1.2276,1.2125,1.2011,1.2155,1.2222,1.2264,1.23,1.2343,1.2406,1.2363,1.1989,1.1433,1.074,1.0395,0.9978,0.9106,0.8946,0.8903,0.8742,0.8703,0.8703,0.8703,0.8344,0.8115,0.8115,0.7721,0.7365,0.7166,0.6897,0.669,0.6473,0.6652,0.6743,0.6682,0.7094,0.7324,0.733,0.7035,0.6515,0.5759,0.5064,0.4391,0.3738,0.3084,0.2667,0.2507,0.2373,0.2289,0.6301,0.6583,0.6842,0.7074,0.7577,0.7973,0.7789,0.7782,0.7762,0.7477,0.7413,0.7486,0.7715,0.8291,0.9038,0.9932,1.0916,1.1647,1.189,1.2346,1.2807,0.0,0.0,1.3766,1.4062,1.4104,0.0,0.0,0.0,0.0,1.4104,1.4104,1.4104,1.4104,1.4104,1.4104,1.4104,1.3893,1.3555,1.3094,1.347,1.3808,1.4068,1.4195,1.4188,1.4062,0.0,1.3512,1.3094,1.3094,1.3094,1.3137,1.347,1.3808,1.4146,1.4601,1.4859,1.4824,1.4279,1.3857,1.3483,1.3052,1.2711,1.2541,1.2527,1.2413,1.2343,1.249,1.2395,1.2343,1.2487,1.2529,1.2577,1.2577,1.2326,1.1895,1.1189,1.0759,1.0258,0.9336,0.9061,0.8946,0.8742,0.8703,0.8703,0.8703,0.8444,0.8212,0.8129,0.7854,0.7541,0.7223,0.7104,0.6884,0.653,0.667,0.6915,0.7163,0.7384,0.7503,0.7507,0.7276,0.695,0.6461,0.5759,0.5099,0.4482,0.3637,0.3149,0.298,0.2554,0.2343,0.6284,0.6529,0.6785,0.7228,0.7819,0.8318,0.839,0.8454,0.8415,0.8112,0.8043,0.8126,0.8398,0.909,1.0116,1.1757,1.2487,1.2831,1.2847,1.326,1.3617,1.3824,1.4146,1.4482,1.4817,0.0,0.0,0.0,0.0,0.0,1.4859,1.4859,1.4859,1.4859,1.4859,1.4859,1.4859,1.4859,1.4482,1.373,1.4146,1.4482,1.4727,1.4859,1.4859,1.4692,1.4475,1.4146,1.3688,1.3688,1.3688,1.373,1.4188,1.4524,1.4859,1.5484,1.5575,1.5333,1.4859,1.4398,1.3948,1.3392,1.3094,1.2923,1.2935,1.2926,1.2917,1.2929,1.2742,1.2577,1.2693,1.2705,1.2705,1.2705,1.2534,1.2222,1.1508,1.1042,1.0503,0.9599,0.9284,0.9056,0.8818,0.8818,0.8818,0.8784,0.8645,0.8466,0.8219,0.8009,0.7702,0.7299,0.7218,0.7057,0.6705,0.6798,0.7078,0.747,0.7489,0.7489,0.7489,0.7504,0.7344,0.7031,0.6505,0.5924,0.5354,0.4369,0.3763,0.3468,0.2786,0.2456,0.6155,0.6314,0.646,0.6991,0.7843,0.8639,0.8968,0.9227,0.9384,0.9372,0.9352,0.9343,0.9224,1.006,1.128,1.2753,1.3157,1.3456,1.409,0.0,1.4247,1.4357,1.4741,1.5124,0.0,0.0,0.0,0.0,0.0,0.0,1.5352,1.5352,1.5352,1.5352,1.5352,1.5352,1.5352,1.5352,1.511,1.4608,1.4873,1.5249,1.5609,1.5609,1.5609,1.5609,1.5394,1.5019,1.4608,1.4608,1.4608,1.4608,1.4915,1.5423,1.6046,1.6443,1.6484,1.6229,1.5775,1.5325,1.4831,1.3948,1.3652,1.3646,1.3626,1.3633,1.3646,1.3626,1.3493,1.3239,1.2826,1.2705,1.2705,1.2705,1.2534,1.2264,1.1711,1.1243,1.0777,1.0013,0.9695,0.9435,0.9061,0.9137,0.9208,0.9022,0.8981,0.8829,0.8442,0.8221,0.7923,0.7526,0.7304,0.7175,0.7147,0.7161,0.7261,0.7479,0.7489,0.7489,0.7489,0.7844,0.7866,0.7446,0.7484,0.7021,0.6107,0.523,0.4443,0.377,0.3025,0.2587,0.6625,0.6696,0.6825,0.7436,0.8112,0.8681,0.9031,0.9862,1.0559,1.0557,1.0915,1.1155,1.0857,1.1436,1.2401,1.3764,1.4324,1.4782,1.5238,1.5379,1.5386,1.522,1.5499,0.0,0.0,0.0,0.0,0.0,0.0,0.0,1.6188,1.6188,1.6188,1.6188,1.6188,1.6188,1.6188,1.6188,1.6105,1.594,1.579,1.5797,1.5955,1.6196,1.6196,1.5955,1.5873,1.5575,1.5144,1.5144,1.5144,1.5186,1.5582,1.6038,1.6492,1.6656,1.6648,1.6525,1.6121,1.5741,1.5325,1.444,1.4237,1.4321,1.4188,1.423,1.4321,1.4188,1.3857,1.3434,1.2833,1.2705,1.2705,1.2705,1.2493,1.2236,1.1884,1.1442,1.0947,1.0398,0.9992,0.9657,0.9246,0.9251,0.9284,0.9208,0.9175,0.9072,0.8814,0.8607,0.8327,0.7902,0.7698,0.7579,0.7579,0.7465,0.7418,0.7484,0.7489,0.7489,0.7489,0.7773,0.7796,0.7522,0.7574,0.7223,0.6509,0.5767,0.5052,0.4386,0.3587,0.3088,0.7272,0.7169,0.716,0.7759,0.8328,0.8861,0.9281,1.0371,1.1331,1.154,1.2049,1.2367,1.1985,1.2521,1.3336,1.4351,1.5157,1.5817,1.615,1.6354,1.6368,1.5982,1.6196,0.0,0.0,0.0,0.0,0.0,0.0,0.0,0.0,1.642,1.6412,1.6523,1.6523,1.6578,1.6689,1.6586,1.6523,1.6523,1.6177,1.6077,1.6294,1.6574,1.6533,1.6294,1.6294,1.6121,1.5809,1.5809,1.5809,1.5858,1.6162,1.6451,1.6689,1.6689,1.6689,1.6656,1.6368,1.6121,1.5816,1.5068,1.4901,1.4985,1.4859,1.4901,1.4985,1.4859,1.4489,1.399,1.3215,1.2875,1.2705,1.2705,1.2506,1.224,1.198,1.1518,1.1064,1.0677,1.0255,0.9879,0.9549,0.9473,0.9473,0.9473,0.9473,0.9429,0.9233,0.9019,0.8711,0.825,0.8031,0.7883,0.7821,0.7688,0.7574,0.7493,0.7489,0.7489,0.7489,0.7698,0.7745,0.7593,0.7766,0.7565,0.6968,0.6436,0.585,0.5117,0.4253,0.3689,0.799,0.7656,0.7415,0.7816,0.8529,0.9281,0.9872,1.0746,1.1616,1.2287,1.2704,1.2825,1.2483,1.3253,1.4047,1.4453,1.5511,1.6434,1.6781,1.7152,1.7139,1.6476,0.0,0.0,0.0,0.0,0.0,0.0,0.0,0.0,0.0,1.5872,1.584,1.619,1.6206,1.6373,1.6689,1.6381,1.6206,1.6198,1.584,1.6047,1.6689,1.6689,1.6689,1.6689,1.6689,1.6689,1.6689,1.6689,1.6689,1.6689,1.6689,1.6689,1.6689,1.6689,1.6689,1.6689,1.6689,1.6566,1.6312,1.5858,1.5692,1.5692,1.5692,1.5692,1.5692,1.5692,1.5409,1.4873,1.3948,1.3222,1.2705,1.2705,1.2499,1.224,1.198,1.1518,1.1135,1.0865,1.0481,1.0143,0.996,0.9922,0.9922,0.9922,0.9922,0.9836,0.9646,0.9426,0.9083,0.8482,0.8236,0.8039,0.7835,0.7816,0.7726,0.7503,0.7493,0.7493,0.7489,0.7698,0.7811,0.7811,0.8184,0.8086,0.7509,0.7351,0.6831,0.5888,0.5027,0.4395,0.8366,0.8245,0.833,0.9058,0.9545,1.0188,1.142,1.2073,1.2813,1.411,1.4148,1.3944,1.389,1.4205,1.4665,1.5261,1.5889,1.6618,1.7566,1.7521,1.7334,0.0,0.0,0.0,0.0,0.0,0.0,0.0,0.0,0.0,0.0,1.5872,1.584,1.619,1.6206,1.6373,1.6689,1.6381,1.6206,1.6198,1.584,1.592,1.6365,1.6365,1.65,1.6689,1.6689,1.6689,1.6689,1.6689,1.6689,1.6689,1.6689,1.6689,1.6689,1.6689,1.6689,1.6689,1.6689,1.6648,1.6525,1.6121,1.6154,1.636,1.6079,1.6203,1.6319,1.6079,1.5748,1.5325,1.444,1.3935,1.3506,1.2875,1.2361,1.2017,1.1938,1.148,1.1101,1.1017,1.0812,1.055,1.0368,1.0331,1.0331,1.0331,1.0331,1.0196,0.9862,0.9694,0.9405,0.8894,0.8636,0.8373,0.8053,0.8025,0.7873,0.7512,0.7636,0.765,0.7498,0.755,0.7588,0.7588,0.7859,0.7829,0.7489,0.7355,0.7014,0.6449,0.5663,0.5099,0.903,0.8991,0.9169,1.0084,1.0741,1.1567,1.315,1.3575,1.3906,1.4996,1.5058,1.4929,1.4813,1.5051,1.5342,1.5627,1.6155,1.6821,1.7641,1.7485,1.7282,0.0,0.0,0.0,0.0,0.0,0.0,0.0,0.0,0.0,0.0,1.5678,1.5654,1.6008,1.5986,1.6194,1.6525,1.6163,1.5986,1.6017,1.5654,1.567,1.5994,1.6158,1.6397,1.6689,1.6689,1.6689,1.6689,1.6689,1.6689,1.6689,1.6689,1.6689,1.6689,1.6689,1.6689,1.6689,1.6689,1.6689,1.6656,1.6409,1.6492,1.6648,1.6409,1.6492,1.6656,1.6417,1.6154,1.5816,1.511,1.4768,1.4349,1.3258,1.2599,1.2174,1.2071,1.1627,1.1244,1.1204,1.1074,1.0925,1.085,1.0738,1.0663,1.0738,1.0663,1.0513,1.018,1.0007,0.9771,0.9527,0.9241,0.8906,0.8508,0.8297,0.8043,0.762,0.7731,0.7754,0.7626,0.7622,0.7579,0.7493,0.7702,0.7707,0.7489,0.7505,0.734,0.6994,0.6423,0.5987,0.9781,0.9791,0.992,1.0937,1.1997,1.3209,1.4794,1.4976,1.4897,1.5192,1.5568,1.5756,1.5488,1.5852,1.6087,1.5761,1.6369,1.6982,1.7216,1.7192,0.0,0.0,0.0,0.0,0.0,0.0,0.0,0.0,0.0,0.0,0.0,1.5438,1.5405,1.5741,1.5749,1.5931,1.6349,1.5939,1.5749,0.0,1.5414,1.543,1.5774,1.6049,1.6341,1.6635,1.6643,1.6594,1.6602,1.6634,1.6642,1.665,1.6681,1.6689,1.6689,1.6689,1.6689,1.6689,1.6689,1.6689,1.6689,1.6689,1.6689,1.6689,1.6689,1.6689,1.6689,1.6689,1.6566,1.6312,1.5858,1.5609,1.5151,1.3899,1.3182,1.2751,1.246,1.1969,1.1571,1.1496,1.1353,1.1298,1.1484,1.1223,1.0999,1.1149,1.0986,1.0804,1.0594,1.0423,1.0315,1.0293,0.99,0.9522,0.9078,0.8639,0.8216,0.7752,0.7793,0.784,0.784,0.784,0.775,0.755,0.7721,0.7717,0.7522,0.7698,0.7695,0.7514,0.7185,0.6945,0.9884,1.01,1.0452,1.1728,1.3118,1.4294,1.4794,1.5217,1.5505,1.565,1.5885,1.614,1.6469,1.6636,1.6698,1.6617,1.6778,1.7041,1.7378,1.7288,0.0,0.0,0.0,0.0,0.0,0.0,0.0,0.0,0.0,0.0,1.6181,1.5861,1.5827,1.6173,1.6181,1.6331,1.6674,1.6339,1.6181,0.0,1.5835,1.5861,1.6153,1.5914,1.5921,1.6146,1.5982,1.5904,1.5928,1.6206,1.6317,1.6349,1.6586,1.6689,1.6689,1.6689,1.6689,1.6689,1.6689,1.6689,1.6689,1.6689,1.6689,1.6689,1.6689,1.6689,1.6689,1.6689,1.6648,1.6525,1.6121,1.5997,1.579,1.5151,1.4331,1.3607,1.3168,1.264,1.2267,1.2196,1.2115,1.2157,1.2526,1.2378,1.2077,1.1632,1.145,1.1244,1.0992,1.1254,1.1303,1.0948,1.0514,1.0013,0.9438,0.8724,0.8205,0.7947,0.8004,0.8049,0.8049,0.8049,0.8025,0.7982,0.7873,0.7792,0.7745,0.7622,0.7617,0.7719,0.7495,0.7387,0.9933,1.038,1.0987,1.2653,1.3825,1.4719,1.5376,1.5773,1.6033,1.6288,1.6333,1.6438,1.683,1.6908,1.6908,1.6908,1.6908,1.6972,1.7183,1.7034,0.0,0.0,0.0,0.0,0.0,0.0,0.0,0.0,0.0,1.6286,1.6286,1.6122,1.6113,1.6277,1.6286,1.6381,1.6545,1.6381,1.6286,1.6313,1.6113,1.6086,1.6187,1.6042,1.597,1.5996,1.5797,1.5712,1.5744,1.6063,1.6206,1.6238,1.6554,1.6689,1.6689,1.6689,1.6689,1.6689,1.6689,1.6689,1.6689,1.6689,1.6689,1.6689,1.6689,1.6689,1.6689,1.6689,1.6689,1.6648,1.6451,1.6376,1.6327,1.6064,1.5277,1.4378,1.377,1.3386,1.3029,1.2721,1.2723,1.282,1.3119,1.2856,1.2452,1.204,1.1765,1.1614,1.1651,1.1909,1.2016,1.1985,1.1493,1.0917,1.0351,0.9536,0.8929,0.8687,0.8656,0.869,0.8827,0.8902,0.8681,0.812,0.8011,0.7959,0.7959,0.7845,0.7902,0.8085,0.807,0.8091,0.9859,1.0631,1.1513,1.3259,1.4038,1.468,1.5762,1.6023,1.6239,1.6707,1.6715,1.6682,1.6874,1.6908,1.6908,1.6908,1.6908,1.6908,1.6908,1.676,0.0,0.0,0.0,0.0,0.0,0.0,0.0,0.0,0.0,1.6412,1.6412,1.6412,1.6412,1.6412,1.6412,1.6412,1.6412,1.6412,1.6412,1.6412,1.6412,1.6342,1.6184,1.6255,1.6158,1.5886,1.5688,1.5605,1.5637,1.5997,1.6102,1.615,1.6524,1.6692,1.6651,1.6706,1.6689,1.6689,1.6689,1.6689,1.6689,1.6689,1.6689,1.6689,1.6689,1.6689,1.6689,1.6689,1.6689,1.6689,1.6689,1.6689,1.6689,1.6689,1.6038,1.5177,1.4453,1.4109,1.3857,1.3397,1.3362,1.3484,1.3637,1.3193,1.2746,1.2526,1.2157,1.204,1.2415,1.2441,1.2618,1.3003,1.2503,1.1971,1.1509,1.0651,1.003,0.9791,0.9638,0.9682,0.9963,1.0101,0.9723,0.8755,0.8466,0.8345,0.831,0.824,0.8301,0.8443,0.8571,0.865,0.9426,1.0842,1.2082,1.2698,1.3424,1.4102,1.4634,1.5019,1.5478,1.6239,1.6636,1.6874,1.6908,1.6908,1.6908,1.6908,1.6908,1.6908,1.6908,0.0,0.0,0.0,0.0,0.0,0.0,0.0,0.0,0.0,1.6839,1.6839,1.6839,1.6839,1.6839,1.6839,1.6839,1.6839,1.6839,1.6839,1.6839,1.6839,1.6839,1.6726,1.6542,1.6378,1.6041,1.5576,1.5353,1.5273,1.5306,1.5638,1.5786,1.5814,1.6337,1.6524,1.6525,1.6668,1.6689,1.6689,1.6689,1.6689,1.6689,1.6689,1.6689,1.6689,1.6689,1.6689,1.6689,1.6689,1.6689,1.6689,1.6689,1.6689,1.6689,1.6689,1.6574,1.6304,1.564,1.5068,1.4623,1.4493,1.4447,1.4389,1.4281,1.3912,1.3586,1.3375,1.301,1.2826,1.3046,1.3093,1.3248,1.3651,1.3077,1.2667,1.2592,1.1833,1.1331,1.1323,1.1198,1.1194,1.1427,1.1434,1.1384,1.1236,1.0,0.9326,0.915,0.8781,0.8628,0.8653,0.8503,0.8552,0.9224,1.0539,1.1623,1.2478,1.2964,1.3461,1.4313,1.4643,1.5065,1.6111,1.6425,1.6642,1.6862,1.6908,1.6908,1.6908,1.6908,1.6908,1.6908,0.0,0.0,0.0,0.0,0.0,0.0,0.0,0.0,0.0,1.6908,1.6908,1.6908,1.6908,1.6908,1.6908,1.6908,1.6908,1.6908,1.6908,1.6908,1.6908,1.6908,1.6795,1.6603,1.6508,1.6228,1.5815,1.563,1.5551,1.5541,1.5883,1.597,1.5906,1.6481,1.6602,1.65,1.6644,1.6689,1.6689,1.6689,1.6689,1.6689,1.6689,1.6689,1.6689,1.6689,1.6689,1.6689,1.6689,1.6689,1.6689,1.6689,1.6689,1.6689,1.6689,1.6689,1.6607,1.6319,1.5777,1.518,1.4718,1.4629,1.4569,1.4533,1.4201,1.3949,1.3848,1.3484,1.3346,1.3659,1.372,1.3825,1.4201,1.363,1.3138,1.299,1.2387,1.1991,1.1943,1.2003,1.2121,1.2352,1.2358,1.2358,1.2358,1.1199,1.0514,1.031,0.9695,0.9265,0.9014,0.8701,0.8618,0.8922,0.9969,1.087,1.2082,1.2468,1.2808,1.3809,1.4203,1.4643,1.5652,1.5904,1.6129,1.6523,1.6771,1.6908,1.6908,1.6908,1.6908,1.6908,0.0,0.0,0.0,0.0,0.0,0.0,0.0,0.0,0.0,1.6908,1.6908,1.6908,1.6908,1.6908,1.6908,1.6908,1.6908,1.6908,1.6908,1.6908,1.6908,1.6908,1.683,1.6682,1.6682,1.6542,1.6307,1.6053,1.5947,1.5929,1.6187,1.6199,1.6049,1.6501,1.6558,1.6398,1.6637,1.6717,1.6733,1.6821,1.6894,1.6894,1.6894,1.6894,1.6894,1.6894,1.6894,1.6861,1.6812,1.6812,1.6771,1.673,1.6689,1.6689,1.6689,1.6689,1.6665,1.6578,1.6182,1.5602,1.4874,1.474,1.4716,1.4621,1.4382,1.4238,1.4238,1.3956,1.3891,1.4201,1.416,1.4185,1.4435,1.3917,1.3435,1.3233,1.2931,1.2745,1.2704,1.2893,1.3107,1.3324,1.3331,1.3331,1.3331,1.2579,1.1909,1.1409,1.0663,1.0049,0.9579,0.908,0.8818,0.8306,0.9161,1.0052,1.1251,1.1853,1.2248,1.2689,1.3387,1.4047,1.4515,1.49,1.5285,1.568,1.6386,1.6908,1.6908,1.6908,1.6908,0.0,0.0,0.0,0.0,0.0,0.0,0.0,0.0,0.0,0.0,1.6908,1.6908,1.6908,1.6908,1.6908,1.6908,1.6908,1.6908,1.6908,1.6908,1.6908,1.6908,1.6908,1.6908,1.6874,1.6874,1.6874,1.6839,1.6447,1.6272,1.6272,1.6298,1.6228,1.6096,1.6278,1.6212,1.6092,1.6599,1.6776,1.6834,1.7227,1.7351,1.7351,1.7351,1.7351,1.7351,1.7351,1.7351,1.731,1.7139,1.7098,1.7017,1.6779,1.6689,1.6689,1.6689,1.6689,1.6602,1.6309,1.6206,1.5975,1.5292,1.5157,1.5046,1.466,1.4605,1.4569,1.4569,1.4569,1.4569,1.4569,1.4312,1.4106,1.414,1.3823,1.36,1.3584,1.3852,1.4016,1.4016,1.4305,1.451,1.4489,1.4497,1.4497,1.4497,1.4353,1.3586,1.2224,1.1632,1.1031,1.0421,0.9652,0.9175,0.7503,0.8656,0.9868,1.0557,1.1026,1.1494,1.2156,1.2542,1.3093,1.4268,1.4625,1.4919,1.557,1.5927,1.612,1.612,1.612,1.612,0.0,0.0,0.0,0.0,0.0,0.0,0.0,0.0,0.0,0.0,0.0,1.6523,1.6523,1.6266,1.6248,1.6523,1.6523,1.6652,1.6908,1.6908,1.6908,1.6908,1.6908,1.6908,1.6908,1.6908,1.6908,1.6908,1.6735,1.67,1.67,1.67,1.6586,1.6438,1.6615,1.6555,1.6439,1.6983,1.7175,1.7234,1.7662,1.7797,1.7797,1.7797,1.7797,1.7797,1.7797,1.7668,1.7538,1.7343,1.718,1.7057,1.6779,1.6689,1.6689,1.6689,1.6689,1.6657,1.6531,1.6365,1.6063,1.5594,1.537,1.5141,1.5014,1.4756,1.4605,1.4605,1.4605,1.4605,1.4605,1.4494,1.4415,1.4415,1.4132,1.3831,1.3634,1.3696,1.3775,1.3775,1.4101,1.4367,1.4597,1.4605,1.4605,1.4605,1.4569,1.4165,1.3433,1.2814,1.2172,1.1515,1.0477,0.9911,0.7086,0.8107,0.9234,0.9923,1.0291,1.0717,1.1504,1.1807,1.2248,1.3442,1.38,1.413,1.4937,1.5115,1.5212,1.5625,1.5689,1.5689,0.0,0.0,0.0,0.0,0.0,0.0,0.0,0.0,0.0,0.0,0.0,0.0,1.6288,1.5918,1.5881,1.6303,1.645,1.6642,1.6908,1.6908,1.6908,1.6908,1.6908,1.6908,1.6908,1.6908,1.6908,1.6908,1.6908,1.6908,1.6908,1.6908,1.6795,1.6595,1.6759,1.6687,1.6577,1.7185,1.7424,1.7501,1.806,1.8241,1.8241,1.8241,1.8241,1.8241,1.8241,1.8072,1.791,1.7676,1.7465,1.7253,1.7017,1.6894,1.6812,1.6812,1.6779,1.6689,1.6689,1.6547,1.6277,1.592,1.5682,1.5451,1.5229,1.4982,1.4748,1.4621,1.4605,1.4605,1.4605,1.4605,1.4557,1.4439,1.4217,1.3966,1.3616,1.3618,1.3632,1.3751,1.3982,1.4233,1.4589,1.4605,1.4605,1.4605,1.4605,1.4489,1.4281,1.3747,1.3202,1.2585,1.1378,1.0456,0.0,0.0,0.0,0.9334,0.9657,0.9868,1.0671,1.1154,1.1577,1.2,1.2395,1.2928,1.3755,1.3911,1.4297,1.546,1.5652,1.5652,0.0,0.0,0.0,0.0,0.0,0.0,0.0,0.0,0.0,0.0,1.6505,1.6251,1.6251,1.589,1.5863,1.6233,1.6661,1.6872,1.6872,1.689,1.689,1.689,1.6899,1.6908,1.6908,1.6908,1.6908,1.6908,1.6908,1.6908,1.6908,1.6908,1.6795,1.6603,1.6603,1.6473,1.6404,1.7229,1.7521,1.7636,1.8426,1.874,1.874,1.874,1.874,1.874,1.874,1.8571,1.8362,1.8121,1.787,1.7659,1.7473,1.727,1.7098,1.7098,1.6894,1.6689,1.6689,1.6689,1.6594,1.6285,1.6214,1.5991,1.5316,1.5226,1.5062,1.466,1.4605,1.4605,1.4605,1.4605,1.447,1.4164,1.409,1.3982,1.3624,1.36,1.3743,1.4093,1.4109,1.4233,1.4589,1.4605,1.4605,1.4605,1.4605,1.4613,1.4621,1.4445,1.409,1.3606,1.2227,1.079,0.6739,0.0,0.0,0.0,0.0,0.0,0.9474,0.9916,1.0484,1.1467,1.1991,1.2606,1.3709,1.3911,1.4093,1.4735,1.4836,1.4836,0.0,0.0,0.0,0.0,0.0,0.0,0.0,0.0,0.0,0.0,1.5661,1.5441,1.5441,1.5331,1.5322,1.5432,1.5817,1.6028,1.6028,1.6331,1.6477,1.6486,1.6771,1.6908,1.6908,1.6908,1.6908,1.6908,1.6908,1.6908,1.6908,1.6908,1.6874,1.683,1.683,1.6795,1.6825,1.7633,1.7933,1.805,1.884,1.9112,1.9112,1.9112,1.9112,1.9112,1.9112,1.8993,1.8803,1.8571,1.8362,1.8112,1.7708,1.7465,1.727,1.7139,1.6894,1.6689,1.6689,1.6689,1.6665,1.6562,1.6381,1.6063,1.5656,1.534,1.5062,1.466,1.4605,1.4605,1.4605,1.4605,1.4565,1.447,1.4462,1.4312,1.3997,1.3966,1.4005,1.4109,1.4109,1.4233,1.4589,1.4605,1.4605,1.4605,1.4605,1.4732,1.5038,1.5078,1.4744,1.3999,1.2492,1.1146,0.74,0.7732,0.8089,0.8089,0.0,0.0,0.8793,0.9161,0.9684,0.0,1.1072,1.1715,1.2937,1.3157,1.335,1.391,1.4002,1.413,0.0,0.0,0.0,0.0,0.0,0.0,0.0,1.5689,1.5689,1.5689,1.5322,1.5029,1.4864,1.501,1.5102,1.5102,1.5487,1.5689,1.5689,1.6111,1.6288,1.6288,1.6716,1.6908,1.6908,1.6908,1.6908,1.6908,1.6908,1.6908,1.6908,1.6908,1.6908,1.6908,1.6908,1.6908,1.6991,1.7623,1.7972,1.8173,1.8843,1.9164,1.9301,1.9301,1.9301,1.9301,1.9301,1.9152,1.8962,1.8851,1.8692,1.8442,1.8072,1.7829,1.7595,1.7416,1.718,1.6976,1.6976,1.6782,1.6597,1.6516,1.6349,1.6047,1.5554,1.5346,1.5062,1.466,1.4605,1.4605,1.4605,1.4605,1.4605,1.4605,1.4605,1.4518,1.4312,1.4196,1.4172,1.4288,1.4196,1.4233,1.4589,1.4605,1.4605,1.4605,1.4605,1.4851,1.5425,1.5479,1.505,1.405,1.3068,1.1833,0.8553,0.8535,0.8498,0.8498,0.8461,0.0,0.8369,0.8673,0.9078,0.0,0.9914,1.0585,1.1752,1.2009,1.2285,1.303,1.3158,1.3442,0.0,0.0,0.0,0.0,0.0,0.0,1.545,1.5487,1.5505,1.5551,1.5239,1.4882,1.4533,1.4845,1.5038,1.5038,1.5377,1.556,1.556,1.5973,1.6184,1.6184,1.6633,1.6844,1.6844,1.689,1.6908,1.6908,1.6908,1.6908,1.6908,1.6908,1.6908,1.6908,1.6908,1.6908,1.6954,1.7348,1.7734,1.8119,1.8559,1.8944,1.9246,1.9283,1.9301,1.9301,1.9301,1.9192,1.9042,1.9042,1.8882,1.8732,1.8523,1.8282,1.8031,1.7821,1.7627,1.7465,1.7383,1.6918,1.6467,1.6181,1.6118,1.5944,1.53,1.5189,1.5062,1.466,1.4605,1.4605,1.4605,1.4605,1.4605,1.4605,1.4605,1.4605,1.4605,1.4312,1.4272,1.4581,1.4312,1.4272,1.4589,1.4605,1.4605,1.4605,1.4605,1.493,1.5626,1.5626,1.5073,1.4055,1.3742,1.2696,0.8885,0.8737,0.8498,0.8498,0.8216,0.0,0.7531,0.7769,0.819,0.0,0.9308,1.0079,1.0984,1.1402,1.1755,1.2257,1.234,1.2625,0.0,0.0,0.0,0.0,0.0,0.0,1.4194,1.426,1.4378,1.4717,1.4671,1.4588,1.4485,1.4558,1.4625,1.4625,1.4698,1.4744,1.4744,1.5139,1.534,1.5349,1.6083,1.6431,1.6441,1.6762,1.6908,1.6908,1.6908,1.6908,1.6908,1.6908,1.6908,1.6908,1.6908,1.6908,1.6954,1.7348,1.755,1.7724,1.8458,1.876,1.888,1.9201,1.9301,1.9301,1.9301,1.9262,1.9222,1.9222,1.9222,1.9152,1.8922,1.8732,1.8491,1.8313,1.8072,1.7753,1.725,1.6975,1.6596,1.5778,1.5701,1.565,1.5253,1.5189,1.5062,1.466,1.4605,1.4605,1.4605,1.4605,1.4605,1.4605,1.4605,1.4605,1.4605,1.4542,1.4526,1.4597,1.4542,1.4534,1.4597,1.4605,1.4605,1.4605,1.4605,1.4819,1.5314,1.5127,1.5057,1.5016,1.4115,1.3315,0.9672,0.9486,0.9106,0.8938,0.8558,0.0,0.0,0.7858,0.8329,0.8754,0.9375,1.0039,1.0646,1.0926,1.1183,1.1579,1.1645,1.1793,1.2212,0.0,0.0,0.0,0.0,0.0,1.3874,1.3911,1.4057,1.4478,1.4515,1.4515,1.4515,1.4515,1.4515,1.4515,1.4515,1.4515,1.4515,1.49,1.5102,1.5111,1.5927,1.6288,1.6297,1.6725,1.6908,1.6908,1.6908,1.6908,1.6908,1.6908,1.6908,1.6908,1.6908,1.6908,1.6927,1.7128,1.7321,1.755,1.7963,1.8375,1.8742,1.8944,1.9146,1.9301,1.9301,1.9301,1.9301,1.9301,1.9301,1.9262,1.9042,1.8922,1.8812,1.8612,1.8294,1.7943,1.7557,1.6983,1.6451,1.5914,1.561,1.5323,1.4979,1.4911,1.4811,1.4629,1.4605,1.4605,1.4605,1.4605,1.4605,1.4605,1.4605,1.4605,1.4605,1.4605,1.4605,1.4605,1.4605,1.4605,1.4605,1.4431,1.4344,1.4344,1.4518,1.4787,1.5189,1.5107,1.5017,1.4948,1.441,1.3802,1.0644,1.039,0.992,0.9592,0.0,0.8608,0.0,0.0,0.0,0.0,0.0,0.0,0.0,0.0,0.0,0.0,0.0,0.0,0.0,0.0,0.0,0.0,0.0,0.0,0.0,1.3626,1.3856,1.4249,1.4203,1.4194,1.4277,1.435,1.4387,1.4387,1.4469,1.4515,1.4515,1.4827,1.4983,1.4992,1.5735,1.6083,1.6101,1.6578,1.6789,1.6798,1.6872,1.6908,1.6908,1.6908,1.6908,1.6908,1.6908,1.6908,1.6908,1.6908,1.711,1.7394,1.7468,1.7926,1.8504,1.866,1.8981,1.9301,1.9301,1.9301,1.9301,1.9301,1.9301,1.9262,1.9112,1.9073,1.9024,1.8762,1.8446,1.813,1.7758,1.7035,1.6356,1.6122,1.5671,1.5204,1.4776,1.4677,1.4677,1.4713,1.4677,1.4677,1.4713,1.4677,1.4677,1.4705,1.4713,1.4713,1.4713,1.4713,1.4713,1.4713,1.4713,1.4713,1.4713,1.4433,1.4255,1.4212,1.4462,1.4748,1.5078,1.5078,1.4993,1.4811,1.4749,1.4312,1.1685,0.0,0.0,0.0,0.9827,0.0,0.0,0.0,0.8909,0.9077,0.0,0.0,0.0,0.0,0.0,0.0,0.0,0.0,0.989,1.0283,0.0,0.0,0.0,0.0,0.0,1.2625,1.3001,1.3406,1.3111,1.3066,1.3415,1.3763,1.3956,1.3956,1.4313,1.4515,1.4515,1.4561,1.4579,1.4579,1.5029,1.5239,1.5267,1.6037,1.6386,1.6404,1.6762,1.6908,1.6908,1.6908,1.6908,1.6908,1.6908,1.6908,1.6908,1.6908,1.6936,1.7027,1.7376,1.755,1.7752,1.8476,1.8981,1.9301,1.9301,1.9301,1.9301,1.9301,1.9301,1.9301,1.9262,1.9262,1.917,1.8784,1.8674,1.837,1.7477,1.7025,1.6704,1.6192,1.5911,1.5586,1.5204,1.4963,1.4935,1.5098,1.4963,1.4935,1.5098,1.4963,1.4935,1.5098,1.5133,1.5133,1.5133,1.5133,1.5133,1.5133,1.5133,1.5133,1.5133,1.4922,1.4728,1.4542,1.4581,1.4621,1.4668,1.4668,1.4985,1.5572,1.5279,1.5083,0.0,0.0,0.0,0.0,0.0,0.0,0.8742,0.0,0.9388,0.0,0.0,0.0,0.0,0.0,0.0,0.0,1.0187,0.0,0.0,0.0,1.0016,0.0,0.0,0.0,0.0,0.0,0.0,0.0,0.0,1.2533,1.2937,1.3562,1.3911,1.3911,1.4295,1.4515,1.4515,1.4515,1.4515,1.4485,1.4909,1.5102,1.5129,1.5913,1.6288,1.6306,1.6734,1.6908,1.6908,1.6908,1.6908,1.6908,1.6908,1.6908,1.6908,1.6908,1.6908,1.6927,1.7092,1.7303,1.7587,1.8183,1.8485,1.866,1.8889,1.9031,1.9155,1.9277,1.9381,1.9429,1.9341,1.939,1.9376,1.8979,1.8759,1.8499,1.7705,1.7285,1.6986,1.6622,1.6517,1.6368,1.6228,1.5559,1.5098,1.5204,1.5133,1.5098,1.5204,1.5133,1.5141,1.5355,1.5488,1.5594,1.57,1.563,1.5594,1.57,1.57,1.5563,1.523,1.5238,1.4937,1.4339,1.4502,1.4605,1.4605,1.4605,1.4756,1.507,1.4935,1.4863,1.2587,0.0,0.0,0.0,0.0,0.0,0.0,0.0,0.0,0.0,0.0,0.0,0.0,0.0,0.0,1.0779,0.0,1.023,0.0,0.0,0.0,0.0,0.0,0.0,0.0,0.0,0.0,0.0,0.0,0.0,1.234,1.3249,1.3755,1.3755,1.424,1.4515,1.4515,1.4536,1.4536,1.4485,1.483,1.4958,1.4964,1.5661,1.6046,1.6166,1.6637,1.6867,1.7003,1.7047,1.7047,1.7047,1.7047,1.7047,1.7047,1.6943,1.6908,1.6908,1.6908,1.7165,1.755,1.7853,1.799,1.8174,1.8496,1.8881,1.9173,1.9327,1.9582,1.9754,1.9627,1.9582,1.9483,1.9146,1.8945,1.8651,1.8097,1.7754,1.7501,1.7373,1.7339,1.7304,1.727,1.6289,1.5559,1.5665,1.5559,1.5559,1.5665,1.5559,1.563,1.5921,1.6079,1.6254,1.6438,1.6254,1.6184,1.6307,1.6377,1.6165,1.5694,1.5695,1.5371,1.4565,1.479,1.4919,1.4919,1.4883,1.482,1.474,1.4641,1.455,0.0,0.0,0.0,1.1102,0.0,0.0,0.0,0.0,1.1009,0.0,0.0,0.0,0.0,0.0,1.2513,1.1532,1.0924,0.0,0.0,0.0,0.0,0.0,0.0,0.0,0.0,0.0,0.0,0.0,0.0,0.0,1.1504,1.2663,1.3314,1.3314,1.4093,1.4515,1.4515,1.4636,1.4636,1.4515,1.4645,1.4654,1.4543,1.4955,1.5349,1.5767,1.6346,1.6846,1.7201,1.7392,1.747,1.747,1.747,1.747,1.7436,1.7047,1.6908,1.6908,1.6908,1.7165,1.7495,1.7513,1.7789,1.8128,1.8351,1.8948,1.9591,1.9601,1.9889,2.0206,2.0264,1.9908,1.9439,1.9238,1.9144,1.8988,1.8562,1.8486,1.8476,1.8442,1.8442,1.8408,1.8172,1.7123,1.6412,1.6795,1.6517,1.6421,1.6804,1.6525,1.6482,1.7097,1.7088,1.7157,1.7339,1.7182,1.7019,1.6864,1.7072,1.7063,1.6846,1.6473,1.6123,1.5745,1.5762,1.5762,1.5762,1.5568,1.5355,1.5161,1.4776,1.4423,0.0,0.0,1.2889,1.2302,0.0,0.0,0.0,0.0,0.0,0.0,0.0,0.0,0.0,1.3459,1.2738,1.1692,1.1081,1.0378,0.0,0.0,0.0,0.0,0.0,0.0,0.0,0.0,0.0,0.0,1.0604,0.0,0.0,1.2565,1.3296,1.3296,1.4084,1.4536,1.4636,1.4883,1.501,1.495,1.501,1.4951,1.4842,1.501,1.5237,1.5497,1.65,1.7059,1.7302,1.7929,1.8148,1.8148,1.8148,1.8148,1.808,1.752,1.7298,1.7298,1.7298,1.7382,1.7495,1.7495,1.7598,1.7849,1.8713,1.9265,1.9748,2.048,2.0671,2.0702,2.0867,2.0435,1.9927,1.9813,1.9646,1.9373,1.899,1.8888,1.8888,1.8888,1.8888,1.8898,1.8798,1.8327,1.7886,1.7672,1.7491,1.7457,1.7604,1.7501,1.7535,1.7842,1.7969,1.8104,1.8303,1.8259,1.808,1.7774,1.7935,1.7935,1.7638,1.7364,1.7019,1.6559,1.6524,1.6524,1.6524,1.6324,1.5878,1.5205,1.498,1.4576,1.4683,1.4266,0.0,1.3058,1.2208,0.0,1.1524,0.0,0.0,0.0,0.0,0.0,0.0,0.0,1.3233,1.217,1.1377,1.0534,0.0,0.9289,0.0,0.0,0.0,1.0455,0.0,0.0,1.0514,1.0524,1.0518,1.0719,0.0,0.0,1.2982,1.3093,1.3921,1.4403,1.4501,1.5012,1.5274,1.5264,1.5332,1.5313,1.5147,1.5095,1.5231,1.5614,1.6625,1.7262,1.7648,1.8395,1.871,1.871,1.871,1.871,1.8654,1.8056,1.7862,1.7862,1.7862,1.7862,1.7862,1.7862,1.7862,1.8056,1.9041,1.9701,2.0199,2.107,2.1321,2.1367,2.1482,2.0958,2.0366,2.0396,2.0129,1.9765,1.9503,1.9473,1.9473,1.9473,1.9473,1.9473,1.9473,1.9341,1.9065,1.8486,1.8317,1.8317,1.8375,1.8317,1.8351,1.8553,1.871,1.8844,1.8965,1.9042,1.8931,1.8553,1.8687,1.8654,1.8408,1.8182,1.791,1.7482,1.7482,1.7482,1.7482,1.7217,1.6592,1.5654,1.5338,1.4773]}]]